[[{"header":{"parameterUnit":"m.s-1","parameterCategory":1,"la1":31.0,"la2":29.5877,"lo1":-88.7671,"lo2":-86.6584,"dy":0.0162,"dx":0.0185,"nx":115,"ny":88,"refTime":"2023-04-23T18:00:00:Z","depth":0,"parameterNumber":2,"parameterNumberName":"U-component_of_WINDS"},"data":[0.0,0.0,0.0,0.0,0.0,0.0,0.0,0.0,0.0,0.0,0.0,0.0,0.0,0.0,0.0,0.0,0.0,0.0,0.0,0.0,0.0,0.0,0.0,0.0,0.0,0.0,0.0,0.0,0.0,0.0,0.0,0.0,0.0,0.0,0.0,0.0,0.0,0.0,0.0,0.0,0.0,0.0,0.0,0.0,0.0,0.0,0.0,0.0,0.0,0.0,0.0,0.0,0.0,0.0,0.0,0.0,0.0,0.0,0.0,0.0,0.0,0.0,0.0,0.0,0.0,0.0,0.0,0.0,0.0,0.0,0.0,0.0,0.0,0.0,0.0,0.0,0.0,0.0,0.0,0.0,0.0,0.0,0.0,0.0,0.0,0.0,0.0,0.0,0.0,0.0,0.0,0.0,0.0,0.0,0.0,0.0,0.0,0.0,0.0,0.0,0.0,0.0,0.0,0.0,0.0,0.0,0.0,0.0,0.0,0.0,0.0,0.0,0.0,0.0,0.0,0.0,0.0,0.0,0.0,0.0,0.0,0.0,0.0,0.0,0.0,0.0,0.0,0.0,0.0,0.0,0.0,0.0,0.0,0.0,0.0,0.0,0.0,0.0,0.0,0.0,0.0,0.0,0.0,0.0,0.0,0.0,0.0,0.0,0.0,0.0,0.0,0.0,0.0,0.0,0.0,0.0,0.0,0.0,0.0,0.0,0.0,0.0,0.0,0.0,0.0,0.0,0.0,0.0,0.0,0.0,0.0,0.0,0.0,0.0,0.0,0.0,0.0,0.0,0.0,0.0,0.0,0.0,0.0,0.0,0.0,0.0,0.0,0.0,0.0,0.0,0.0,0.0,0.0,0.0,0.0,0.0,0.0,0.0,0.0,0.0,0.0,0.0,0.0,0.0,0.0,0.0,0.0,0.0,0.0,0.0,0.0,0.0,0.0,0.0,0.0,0.0,0.0,0.0,0.0,0.0,0.0,0.0,0.0,0.0,0.0,0.0,0.0,0.0,0.0,0.0,0.0,0.0,0.0,0.0,0.0,0.0,0.0,0.0,0.0,0.0,0.0,0.0,0.0,0.0,0.0,0.0,0.0,0.0,0.0,0.0,0.0,0.0,0.0,0.0,0.0,0.0,0.0,0.0,0.0,0.0,0.0,0.0,0.0,0.0,0.0,0.0,0.0,0.0,0.0,0.0,0.0,0.0,0.0,0.0,0.0,0.0,0.0,0.0,0.0,0.0,0.0,0.0,0.0,0.0,0.0,0.0,0.0,0.0,0.0,0.0,0.0,0.0,0.0,0.0,0.0,0.0,0.0,0.0,0.0,0.0,0.0,0.0,0.0,0.0,0.0,0.0,0.0,0.0,0.0,0.0,0.0,0.0,0.0,0.0,0.0,0.0,0.0,0.0,0.0,0.0,0.0,0.0,0.0,0.0,0.0,0.0,0.0,0.0,0.0,0.0,0.0,0.0,0.0,0.0,0.0,0.0,0.0,0.0,0.0,0.0,0.0,0.0,0.0,0.0,0.0,0.0,0.0,0.0,0.0,0.0,0.0,0.0,0.0,0.0,0.0,0.0,0.0,0.0,0.0,0.0,0.0,0.0,0.0,0.0,0.0,0.0,0.0,0.0,0.0,0.0,0.0,0.0,0.0,0.0,0.0,0.0,0.0,0.0,0.0,0.0,0.0,0.0,0.0,0.0,0.0,0.0,0.0,0.0,0.0,0.0,0.0,0.0,0.0,0.0,0.0,0.0,0.0,0.0,0.0,0.0,0.0,0.0,0.0,0.0,0.0,0.0,0.0,0.0,0.0,0.0,0.0,0.0,0.0,0.0,0.0,0.0,0.0,0.0,0.0,0.0,0.0,0.0,0.0,0.0,0.0,0.0,0.0,0.0,0.0,0.0,0.0,0.0,0.0,0.0,0.0,0.0,0.0,0.0,0.0,0.0,0.0,0.0,0.0,0.0,0.0,0.0,0.0,0.0,0.0,0.0,0.0,0.0,0.0,0.0,0.0,0.0,0.0,0.0,0.0,0.0,0.0,0.0,0.0,0.0,0.0,0.0,0.0,0.0,0.0,0.0,0.0,0.0,0.0,0.0,0.0,0.0,0.0,0.0,0.0,0.0,0.0,0.0,0.0,0.0,0.0,0.0,0.0,0.0,0.0,0.0,0.0,0.0,0.0,0.0,0.0,0.0,0.0,0.0,0.0,0.0,0.0,0.0,0.0,0.0,0.0,0.0,0.0,0.0,0.0,0.0,0.0,0.0,0.0,0.0,0.0,0.0,0.0,0.0,0.0,0.0,0.0,0.0,0.0,0.0,0.0,0.0,0.0,0.0,0.0,0.0,0.0,0.0,0.0,0.0,0.0,0.0,0.0,0.0,0.0,0.0,0.0,0.0,0.0,0.0,0.0,0.0,0.0,0.0,0.0,0.0,0.0,0.0,0.0,0.0,0.0,0.0,0.0,0.0,0.0,0.0,0.0,0.0,0.0,0.0,0.0,0.0,0.0,0.0,0.0,0.0,0.0,0.0,0.0,0.0,0.0,0.0,0.0,0.0,0.0,0.0,0.0,0.0,0.0,0.0,0.0,0.0,0.0,0.0,0.0,0.0,0.0,0.0,0.0,0.0,0.0,0.0,0.0,0.0,0.0,0.0,0.0,0.0,0.0,0.0,0.0,0.0,0.0,0.0,0.0,0.0,0.0,0.0,0.0,0.0,0.0,0.0,0.0,0.0,0.0,0.0,0.0,0.0,0.0,0.0,0.0,0.0,0.0,0.0,0.0,0.0,0.0,0.0,0.0,0.0,0.0,0.0,0.0,0.0,0.0,0.0,0.0,0.0,0.0,0.0,0.0,0.0,0.0,0.0,0.0,0.0,0.0,0.0,0.0,0.0,0.0,0.0,0.0,0.0,0.0,0.0,0.0,0.0,0.0,0.0,0.0,0.0,0.0,0.0,0.0,0.0,0.0,0.0,0.0,0.0,0.0,0.0,0.0,0.0,0.0,0.0,0.0,0.0,0.0,0.0,0.0,0.0,0.0,0.0,0.0,0.0,0.0,0.0,0.0,0.0,0.0,0.0,0.0,0.0,0.0,0.0,0.0,0.0,0.0,0.0,0.0,0.0,0.0,0.0,0.0,0.0,0.0,0.0,0.0,0.0,0.0,0.0,0.0,0.0,0.0,0.0,0.0,0.0,0.0,0.0,0.0,0.0,0.0,0.0,0.0,0.0,0.0,0.0,0.0,0.0,0.0,0.0,0.0,0.0,0.0,0.0,0.0,0.0,0.0,0.0,0.0,0.0,0.0,0.0,0.0,0.0,0.0,0.0,0.0,0.0,0.0,0.0,0.0,0.0,0.0,0.0,0.0,0.0,0.0,0.0,0.0,0.0,0.0,0.0,0.0,0.0,0.0,0.0,0.0,0.0,0.0,0.0,0.0,0.0,0.0,0.0,0.0,0.0,0.0,0.0,0.0,0.0,0.0,0.0,0.0,0.0,0.0,0.0,0.0,0.0,0.0,0.0,0.0,0.0,0.0,0.0,0.0,0.0,0.0,0.0,0.0,0.0,0.0,0.0,0.0,0.0,0.0,0.0,0.0,0.0,0.0,0.0,0.0,0.0,0.0,0.0,0.0,0.0,0.0,0.0,0.0,0.0,0.0,0.0,0.0,0.0,0.0,0.0,0.0,0.0,0.0,0.0,0.0,0.0,0.0,0.0,0.0,0.0,0.0,0.0,0.0,0.0,0.0,0.0,0.0,0.0,0.0,0.0,0.0,0.0,0.0,0.0,0.0,0.0,0.0,0.0,0.0,0.0,0.0,0.0,0.0,0.0,0.0,0.0,0.0,0.0,0.0,0.0,0.0,0.0,0.0,0.0,0.0,0.0,0.0,0.0,0.0,0.0,0.0,0.0,0.0,0.0,0.0,0.0,0.0,0.0,0.0,0.0,0.0,0.0,0.0,0.0,0.0,0.0,0.0,0.0,0.0,0.0,0.0,0.0,0.0,0.0,0.0,0.0,0.0,0.0,0.0,0.0,0.0,0.0,0.0,0.0,0.0,0.0,0.0,0.0,0.0,0.0,0.0,0.0,0.0,0.0,0.0,0.0,0.0,0.0,0.0,0.0,0.0,0.0,0.0,0.0,0.0,0.0,0.0,0.0,0.0,0.0,0.0,0.0,0.0,0.0,0.0,0.0,0.0,0.0,0.0,0.0,0.0,0.0,0.0,0.0,0.0,0.0,0.0,0.0,0.0,0.0,0.0,0.0,0.0,0.0,1.7455,0.0,0.0,0.0,0.0,0.0,0.0,0.0,0.0,0.0,0.0,0.0,0.0,0.0,0.0,0.0,0.0,0.0,0.0,0.0,0.0,0.0,0.0,0.0,0.0,0.0,0.0,0.0,0.0,0.0,0.0,0.0,0.0,0.0,0.0,0.0,0.0,0.0,0.0,0.0,0.0,0.0,0.0,0.0,0.0,0.0,0.0,0.0,0.0,0.0,0.0,0.0,0.0,0.0,0.0,0.0,0.0,0.0,0.0,0.0,0.0,0.0,0.0,0.0,0.0,0.0,0.0,0.0,0.0,0.0,0.0,0.0,0.0,0.0,0.0,0.0,0.0,0.0,0.0,0.0,0.0,0.0,0.0,0.0,0.0,0.0,0.0,0.0,0.0,0.0,0.0,0.0,0.0,0.0,0.0,0.0,0.0,0.0,0.0,0.0,0.0,0.0,0.0,0.0,0.0,0.0,0.0,0.0,0.0,0.0,0.0,1.6472,1.7578,1.5321,1.538,1.8164,0.0,0.0,0.0,0.0,0.0,0.0,0.0,0.0,0.0,0.0,0.0,0.0,0.0,0.0,0.0,0.0,0.0,0.0,0.0,0.0,0.0,0.0,0.0,0.0,0.0,0.0,0.0,0.0,0.0,0.0,0.0,0.0,0.0,0.0,0.0,0.0,0.0,0.0,0.0,0.0,0.0,0.0,0.0,0.0,0.0,0.0,0.0,0.0,0.0,0.0,0.0,0.0,0.0,0.0,0.0,0.0,0.0,0.0,0.0,0.0,0.0,0.0,0.0,0.0,0.0,0.0,0.0,0.0,0.0,0.0,0.0,0.0,0.0,0.0,0.0,0.0,0.0,0.0,0.0,0.0,0.0,0.0,0.0,0.0,0.0,0.0,0.0,0.0,0.0,0.0,0.0,0.0,0.0,0.0,0.0,0.0,0.0,0.0,0.0,0.0,0.0,0.0,0.0,0.0,0.0,0.0,0.0,0.0,0.0,0.0,0.0,0.0,1.6098,1.5982,1.867,0.0,0.0,0.0,0.0,0.0,0.0,0.0,0.0,0.0,0.0,0.0,0.0,0.0,0.0,0.0,0.0,0.0,0.0,0.0,0.0,0.0,0.0,0.0,0.0,0.0,0.0,0.0,0.0,0.0,0.0,0.0,0.0,0.0,0.0,0.0,0.0,0.0,0.0,0.0,0.0,0.0,0.0,0.0,0.0,0.0,0.0,0.0,0.0,0.0,0.0,0.0,0.0,0.0,0.0,0.0,0.0,0.0,0.0,0.0,0.0,0.0,0.0,0.0,0.0,0.0,0.0,0.0,0.0,0.0,0.0,0.0,0.0,0.0,0.0,0.0,0.0,0.0,0.0,0.0,0.0,0.0,0.0,0.0,0.0,0.0,0.0,0.0,0.0,0.0,0.0,0.0,0.0,0.0,0.0,0.0,0.0,0.0,0.0,0.0,0.0,0.0,0.0,0.0,0.0,0.0,0.0,0.0,0.0,0.0,0.0,1.8112,2.0512,1.9102,0.0,1.9759,0.0,0.0,0.0,0.0,0.0,0.0,0.0,0.0,0.0,0.0,0.0,0.0,0.0,0.0,0.0,0.0,0.0,0.0,0.0,0.0,0.0,0.0,0.0,0.0,0.0,0.0,0.0,0.0,0.0,0.0,0.0,0.0,0.0,0.0,0.0,0.0,0.0,0.0,0.0,0.0,0.0,0.0,0.0,0.0,0.0,0.0,0.0,0.0,0.0,0.0,0.0,0.0,0.0,0.0,0.0,0.0,0.0,0.0,0.0,0.0,0.0,0.0,0.0,0.0,0.0,0.0,0.0,0.0,0.0,0.0,0.0,0.0,0.0,0.0,0.0,0.0,0.0,0.0,0.0,0.0,0.0,0.0,0.0,0.0,0.0,0.0,0.0,0.0,0.0,0.0,0.0,0.0,0.0,0.0,0.0,0.0,0.0,0.0,0.0,0.0,0.0,0.0,0.0,0.0,0.0,0.0,0.0,0.0,0.0,0.0,1.772,1.9948,1.9883,1.9506,0.0,0.0,0.0,0.0,0.0,0.0,0.0,0.0,0.0,0.0,0.0,0.0,0.0,0.0,0.0,0.0,0.0,0.0,0.0,0.0,0.0,0.0,0.0,0.0,0.0,0.0,0.0,0.0,0.0,0.0,0.0,0.0,0.0,0.0,0.0,0.0,0.0,0.0,0.0,0.0,0.0,0.0,0.0,0.0,0.0,0.0,0.0,0.0,0.0,0.0,0.0,0.0,0.0,0.0,0.0,0.0,0.0,0.0,0.0,0.0,0.0,0.0,0.0,0.0,0.0,0.0,0.0,0.0,0.0,0.0,0.0,0.0,0.0,0.0,0.0,0.0,0.0,0.0,0.0,0.0,0.0,0.0,0.0,0.0,0.0,0.0,0.0,0.0,0.0,0.0,0.0,0.0,0.0,0.0,0.0,0.0,0.0,0.0,0.0,0.0,0.0,0.0,0.0,0.0,0.0,0.0,0.0,0.0,0.0,0.0,1.7387,1.7759,1.9958,2.0126,1.9794,1.9175,0.0,0.0,0.0,0.0,0.0,0.0,0.0,0.0,0.0,0.0,0.0,0.0,0.0,0.0,0.0,0.0,0.0,0.0,0.0,0.0,0.0,0.0,0.0,0.0,0.0,0.0,0.0,0.0,0.0,0.0,0.0,0.0,0.0,0.0,0.0,0.0,0.0,0.0,0.0,0.0,0.0,0.0,0.0,0.0,0.0,0.0,0.0,0.0,0.0,0.0,0.0,0.0,0.0,0.0,0.0,0.0,0.0,0.0,0.0,0.0,0.0,0.0,0.0,0.0,0.0,0.0,0.0,0.0,0.0,0.0,0.0,0.0,0.0,0.0,0.0,0.0,0.0,0.0,0.0,0.0,0.0,0.0,0.0,0.0,0.0,0.0,0.0,0.0,0.0,0.0,0.0,0.0,0.0,0.0,0.0,0.0,0.0,0.0,0.0,0.0,0.0,0.0,0.0,0.0,0.0,0.0,0.0,0.0,2.1369,1.877,1.8749,2.172,2.0143,1.9959,0.0,0.0,0.0,0.0,0.0,0.0,0.0,0.0,0.0,0.0,0.0,0.0,0.0,0.0,0.0,0.0,0.0,0.0,0.0,0.0,0.0,0.0,0.0,0.0,0.0,0.0,0.0,0.0,0.0,0.0,0.0,0.0,0.0,0.0,0.0,0.0,0.0,0.0,0.0,0.0,0.0,0.0,0.0,0.0,0.0,0.0,0.0,0.0,0.0,0.0,0.0,0.0,0.0,0.0,0.0,0.0,0.0,0.0,0.0,0.0,0.0,0.0,0.0,0.0,0.0,0.0,0.0,0.0,0.0,0.0,0.0,0.0,0.0,0.0,0.0,0.0,0.0,0.0,0.0,0.0,0.0,0.0,0.0,0.0,0.0,0.0,0.0,0.0,0.0,0.0,0.0,0.0,0.0,0.0,0.0,0.0,0.0,0.0,0.0,0.0,0.0,0.0,0.0,0.0,0.0,0.0,0.0,0.0,0.0,1.8644,1.8424,1.8932,2.0303,2.0172,2.0091,0.0,0.0,0.0,0.0,0.0,0.0,0.0,0.0,0.0,0.0,0.0,0.0,0.0,0.0,0.0,0.0,0.0,0.0,0.0,0.0,0.0,0.0,0.0,0.0,0.0,0.0,0.0,0.0,0.0,0.0,0.0,0.0,0.0,0.0,0.0,0.0,0.0,0.0,0.0,0.0,0.0,0.0,0.0,0.0,0.0,0.0,0.0,0.0,0.0,0.0,0.0,0.0,0.0,0.0,0.0,0.0,0.0,0.0,0.0,0.0,0.0,0.0,0.0,0.0,0.0,0.0,0.0,0.0,0.0,0.0,0.0,0.0,0.0,0.0,0.0,0.0,0.0,0.0,0.0,0.0,0.0,0.0,0.0,0.0,0.0,0.0,0.0,0.0,0.0,0.0,0.0,0.0,0.0,0.0,0.0,0.0,0.0,0.0,0.0,0.0,0.0,0.0,0.0,0.0,0.0,0.0,0.0,0.0,0.0,1.6919,0.0,1.9251,1.9879,1.9855,1.9817,0.0,0.0,0.0,0.0,0.0,0.0,0.0,0.0,0.0,0.0,0.0,0.0,0.0,0.0,0.0,0.0,0.0,0.0,0.0,0.0,0.0,0.0,0.0,0.0,0.0,0.0,0.0,0.0,0.0,0.0,0.0,0.0,0.0,0.0,0.0,0.0,0.0,0.0,0.0,0.0,0.0,0.0,0.0,0.0,0.0,0.0,0.0,0.0,0.0,0.0,0.0,0.0,0.0,0.0,0.0,0.0,0.0,0.0,0.0,0.0,0.0,0.0,0.0,0.0,0.0,0.0,0.0,0.0,0.0,0.0,0.0,0.0,0.0,0.0,0.0,0.0,0.0,0.0,0.0,0.0,0.0,0.0,0.0,0.0,0.0,0.0,0.0,0.0,0.0,0.0,0.0,0.0,0.0,0.0,0.0,0.0,0.0,0.0,0.0,0.0,0.0,0.0,0.0,0.0,0.0,0.0,0.0,0.0,1.586,1.6841,1.8419,1.9777,2.093,1.9327,1.9185,0.0,0.0,0.0,0.0,0.0,0.0,0.0,0.0,0.0,0.0,0.0,0.0,0.0,0.0,0.0,0.0,0.0,0.0,0.0,0.0,0.0,0.0,0.0,0.0,0.0,0.0,0.0,0.0,0.0,0.0,0.0,0.0,0.0,0.0,0.0,0.0,0.0,0.0,0.0,0.0,0.0,0.0,0.0,0.0,0.0,0.0,0.0,0.0,0.0,0.0,0.0,0.0,0.0,0.0,0.0,0.0,0.0,0.0,0.0,0.0,0.0,0.0,0.0,0.0,0.0,0.0,0.0,0.0,0.0,0.0,0.0,0.0,0.0,0.0,0.0,0.0,0.0,0.0,0.0,0.0,0.0,0.0,0.0,0.0,0.0,0.0,0.0,0.0,0.0,0.0,0.0,0.0,0.0,0.0,0.0,0.0,0.0,0.0,0.0,0.0,0.0,0.0,0.0,0.0,0.0,0.0,0.0,0.0,0.0,1.8561,1.8625,1.974,2.1877,1.9909,1.9592,0.0,0.0,0.0,0.0,0.0,0.0,0.0,0.0,0.0,0.0,0.0,0.0,0.0,0.0,0.0,0.0,0.0,0.0,0.0,0.0,0.0,0.0,0.0,0.0,0.0,0.0,0.0,0.0,0.0,0.0,0.0,0.0,0.0,0.0,0.0,0.0,0.0,0.0,0.0,0.0,0.0,0.0,0.0,0.0,0.0,0.0,0.0,0.0,0.0,0.0,0.0,0.0,0.0,0.0,0.0,0.0,0.0,0.0,0.0,0.0,0.0,0.0,0.0,0.0,0.0,0.0,0.0,0.0,0.0,0.0,0.0,0.0,0.0,0.0,0.0,0.0,0.0,0.0,0.0,0.0,0.0,0.0,0.0,0.0,0.0,0.0,0.0,0.0,0.0,0.0,0.0,0.0,0.0,0.0,0.0,0.0,0.0,0.0,0.0,0.0,0.0,0.0,0.0,0.0,0.0,0.0,0.0,0.0,0.0,2.0518,1.9691,2.0159,2.2072,2.0719,2.0105,2.0395,0.0,0.0,0.0,0.0,0.0,0.0,0.0,0.0,0.0,0.0,0.0,0.0,0.0,0.0,0.0,0.0,0.0,0.0,0.0,0.0,0.0,0.0,0.0,0.0,0.0,0.0,0.0,0.0,0.0,0.0,0.0,0.0,0.0,0.0,0.0,0.0,0.0,0.0,0.0,0.0,0.0,0.0,0.0,0.0,0.0,0.0,0.0,0.0,0.0,0.0,0.0,0.0,0.0,0.0,0.0,0.0,0.0,0.0,0.0,0.0,0.0,0.0,0.0,0.0,0.0,0.0,0.0,0.0,0.0,0.0,0.0,0.0,0.0,0.0,0.0,0.0,0.0,0.0,0.0,0.0,0.0,0.0,0.0,0.0,0.0,0.0,0.0,0.0,0.0,0.0,0.0,0.0,0.0,0.0,0.0,0.0,0.0,0.0,0.0,0.0,0.0,0.0,0.0,0.0,0.0,0.0,0.0,0.0,2.2807,2.1864,2.1553,2.1778,2.1878,2.0838,0.0,0.0,0.0,0.0,0.0,0.0,0.0,0.0,0.0,0.0,0.0,0.0,0.0,0.0,0.0,0.0,0.0,0.0,0.0,0.0,0.0,0.0,0.0,0.0,0.0,0.0,0.0,0.0,0.0,0.0,0.0,0.0,0.0,0.0,0.0,0.0,0.0,0.0,0.0,0.0,0.0,0.0,0.0,0.0,0.0,0.0,0.0,0.0,0.0,0.0,0.0,0.0,0.0,0.0,0.0,0.0,0.0,0.0,0.0,0.0,0.0,0.0,0.0,0.0,0.0,0.0,0.0,0.0,0.0,0.0,0.0,0.0,0.0,0.0,0.0,0.0,0.0,0.0,0.0,0.0,0.0,0.0,0.0,0.0,0.0,0.0,0.0,0.0,0.0,0.0,0.0,0.0,0.0,0.0,0.0,0.0,0.0,0.0,0.0,0.0,0.0,0.0,0.0,0.0,0.0,0.0,0.0,0.0,0.0,2.6289,2.7528,2.7713,2.6674,2.4395,2.2718,0.0,0.0,0.0,0.0,0.0,0.0,0.0,0.0,0.0,0.0,0.0,0.0,0.0,0.0,0.0,0.0,0.0,0.0,0.0,0.0,0.0,0.0,0.0,0.0,0.0,0.0,0.0,0.0,0.0,0.0,0.0,0.0,0.0,0.0,0.0,0.0,0.0,0.0,0.0,0.0,0.0,0.0,0.0,0.0,0.0,0.0,0.0,0.0,0.0,0.0,0.0,0.0,0.0,0.0,0.0,0.0,0.0,0.0,0.0,0.0,0.0,0.0,0.0,0.0,0.0,0.0,0.0,0.0,0.0,0.0,0.0,0.0,0.0,0.0,0.0,0.0,0.0,0.0,0.0,0.0,0.0,0.0,0.0,0.0,0.0,0.0,0.0,0.0,0.0,0.0,0.0,0.0,0.0,0.0,0.0,0.0,0.0,0.0,0.0,0.0,0.0,0.0,0.0,0.0,0.0,0.0,0.0,0.0,2.685,2.7847,3.1545,3.2827,3.1402,2.8181,2.5012,0.0,0.0,0.0,0.0,0.0,0.0,0.0,0.0,0.0,0.0,0.0,0.0,0.0,0.0,0.0,0.0,0.0,0.0,0.0,0.0,0.0,0.0,0.0,0.0,0.0,0.0,0.0,0.0,0.0,0.0,0.0,0.0,0.0,0.0,0.0,0.0,0.0,0.0,0.0,0.0,0.0,0.0,0.0,0.0,0.0,0.0,0.0,0.0,0.0,0.0,0.0,0.0,0.0,0.0,0.0,0.0,0.0,0.0,0.0,0.0,0.0,0.0,0.0,0.0,0.0,0.0,0.0,0.0,0.0,0.0,0.0,0.0,0.0,0.0,0.0,0.0,0.0,0.0,0.0,0.0,0.0,0.0,0.0,0.0,0.0,0.0,0.0,0.0,0.0,0.0,0.0,0.0,0.0,0.0,0.0,0.0,0.0,0.0,0.0,0.0,0.0,0.0,0.0,0.0,0.0,0.0,0.0,0.0,2.9583,2.8318,3.4076,3.6549,3.5211,3.2032,2.7315,0.0,0.0,0.0,0.0,0.0,0.0,0.0,0.0,0.0,0.0,0.0,0.0,0.0,0.0,0.0,0.0,0.0,0.0,0.0,0.0,0.0,0.0,0.0,0.0,0.0,0.0,0.0,0.0,0.0,0.0,0.0,0.0,0.0,0.0,0.0,0.0,0.0,0.0,0.0,0.0,0.0,0.0,0.0,0.0,0.0,0.0,0.0,0.0,0.0,0.0,0.0,0.0,0.0,0.0,0.0,0.0,0.0,0.0,0.0,0.0,0.0,0.0,0.0,0.0,0.0,0.0,0.0,0.0,0.0,0.0,0.0,0.0,0.0,0.0,0.0,0.0,0.0,0.0,0.0,0.0,0.0,0.0,0.0,0.0,0.0,0.0,0.0,0.0,0.0,0.0,0.0,0.0,0.0,0.0,0.0,0.0,0.0,0.0,0.0,0.0,0.0,0.0,0.0,0.0,0.0,0.0,0.0,0.0,2.874,2.9717,3.3996,3.6014,3.5499,3.1643,2.7806,0.0,0.0,0.0,0.0,0.0,0.0,0.0,0.0,0.0,0.0,0.0,0.0,0.0,0.0,0.0,0.0,0.0,0.0,0.0,0.0,0.0,0.0,0.0,0.0,0.0,0.0,0.0,0.0,0.0,0.0,0.0,0.0,0.0,0.0,0.0,0.0,0.0,0.0,0.0,0.0,0.0,0.0,0.0,0.0,0.0,0.0,0.0,0.0,1.9987,0.0,0.0,0.0,0.0,0.0,0.0,0.0,0.0,0.0,0.0,0.0,0.0,0.0,0.0,0.0,0.0,0.0,0.0,0.0,0.0,0.0,0.0,0.0,0.0,0.0,0.0,0.0,0.0,0.0,0.0,0.0,0.0,0.0,0.0,0.0,0.0,0.0,0.0,0.0,0.0,0.0,0.0,0.0,0.0,0.0,0.0,0.0,0.0,0.0,0.0,0.0,0.0,0.0,0.0,0.0,0.0,0.0,0.0,0.0,2.9286,3.088,3.4338,3.6248,3.6218,3.2377,2.8834,0.0,0.0,0.0,0.0,0.0,0.0,0.0,0.0,0.0,0.0,0.0,0.0,0.0,0.0,0.0,0.0,0.0,0.0,0.0,0.0,0.0,0.0,0.0,0.0,0.0,0.0,0.0,0.0,0.0,0.0,0.0,0.0,0.0,0.0,0.0,0.0,0.0,0.0,0.0,0.0,0.0,0.0,0.0,0.0,0.0,0.0,0.0,0.0,0.0,0.0,0.0,0.0,0.0,0.0,0.0,0.0,0.0,0.0,0.0,0.0,0.0,0.0,0.0,0.0,0.0,0.0,0.0,0.0,0.0,0.0,0.0,0.0,0.0,0.0,0.0,0.0,0.0,0.0,0.0,0.0,0.0,0.0,0.0,0.0,0.0,0.0,0.0,0.0,0.0,0.0,0.0,0.0,0.0,0.0,0.0,0.0,0.0,0.0,0.0,0.0,0.0,0.0,0.0,0.0,0.0,0.0,0.0,2.7503,3.0069,3.1956,3.4703,3.6483,3.7108,3.3244,2.9789,2.7025,0.0,0.0,0.0,0.0,0.0,0.0,0.0,0.0,0.0,0.0,0.0,0.0,0.0,0.0,0.0,0.0,0.0,0.0,0.0,0.0,0.0,0.0,0.0,0.0,0.0,0.0,0.0,0.0,0.0,0.0,0.0,0.0,0.0,0.0,0.0,0.0,0.0,0.0,1.5309,1.5772,0.0,0.0,0.0,0.0,0.0,0.0,0.0,0.0,2.0297,0.0,0.0,0.0,0.0,0.0,0.0,0.0,0.0,0.0,0.0,0.0,0.0,0.0,0.0,0.0,0.0,0.0,0.0,0.0,0.0,0.0,0.0,0.0,0.0,0.0,0.0,0.0,0.0,0.0,0.0,0.0,0.0,0.0,0.0,0.0,0.0,0.0,0.0,0.0,0.0,0.0,0.0,0.0,0.0,0.0,0.0,0.0,0.0,0.0,0.0,0.0,0.0,0.0,0.0,0.0,0.0,2.6022,2.7028,2.9294,3.2946,3.4366,3.5736,3.701,3.2723,2.9529,2.7815,0.0,0.0,0.0,0.0,0.0,0.0,0.0,0.0,0.0,0.0,0.0,0.0,0.0,0.0,0.0,0.0,0.0,0.0,0.0,0.0,0.0,0.0,0.0,0.0,0.0,0.0,0.0,0.0,0.0,0.0,0.0,0.0,0.0,0.0,0.0,0.0,0.0,0.0,0.0,1.7182,1.8172,0.0,0.0,0.0,0.0,0.0,0.0,0.0,0.0,2.0778,0.0,0.0,0.0,0.0,0.0,0.0,0.0,0.0,0.0,0.0,0.0,0.0,0.0,0.0,0.0,0.0,0.0,0.0,0.0,0.0,0.0,0.0,0.0,0.0,0.0,0.0,0.0,0.0,0.0,0.0,0.0,0.0,0.0,0.0,0.0,0.0,0.0,0.0,0.0,0.0,0.0,0.0,0.0,0.0,0.0,0.0,0.0,0.0,0.0,0.0,0.0,0.0,0.0,0.0,0.0,2.6216,2.812,3.0703,3.3934,3.4799,3.5712,3.6649,3.2511,2.9396,0.0,0.0,0.0,0.0,0.0,0.0,0.0,0.0,0.0,0.0,0.0,0.0,0.0,0.0,0.0,0.0,0.0,0.0,0.0,0.0,0.0,0.0,0.0,0.0,0.0,0.0,0.0,0.0,0.0,0.0,0.0,0.0,0.0,0.0,0.0,0.0,0.0,0.0,0.0,0.0,1.8222,1.9305,2.0741,0.0,0.0,0.0,0.0,0.0,0.0,2.204,2.1694,0.0,0.0,0.0,0.0,0.0,0.0,0.0,0.0,0.0,0.0,0.0,0.0,0.0,0.0,0.0,0.0,0.0,0.0,0.0,0.0,0.0,0.0,0.0,0.0,0.0,0.0,0.0,0.0,0.0,0.0,0.0,0.0,0.0,0.0,0.0,0.0,0.0,0.0,0.0,0.0,0.0,0.0,0.0,0.0,0.0,0.0,0.0,0.0,0.0,0.0,0.0,0.0,0.0,0.0,0.0,2.628,2.9433,3.2322,3.4823,3.5376,3.5904,3.6433,3.2183,2.901,0.0,0.0,0.0,0.0,0.0,0.0,0.0,0.0,0.0,0.0,0.0,0.0,0.0,0.0,0.0,0.0,0.0,0.0,0.0,0.0,0.0,0.0,0.0,0.0,0.0,0.0,0.0,0.0,0.0,0.0,0.0,0.0,0.0,0.0,0.0,0.0,0.0,0.0,0.0,0.0,0.0,2.0604,2.2163,2.2268,0.0,0.0,0.0,0.0,2.2673,2.3155,0.0,0.0,0.0,0.0,0.0,0.0,0.0,0.0,0.0,0.0,0.0,0.0,0.0,0.0,0.0,0.0,0.0,0.0,0.0,0.0,0.0,0.0,0.0,0.0,0.0,0.0,0.0,0.0,0.0,0.0,0.0,0.0,0.0,0.0,0.0,0.0,0.0,0.0,0.0,0.0,0.0,0.0,0.0,0.0,0.0,0.0,0.0,0.0,0.0,0.0,0.0,0.0,0.0,0.0,0.0,0.0,2.6863,2.9965,3.2874,3.5352,3.5568,3.6073,3.6962,3.1298,2.7871,0.0,0.0,0.0,0.0,0.0,0.0,0.0,0.0,0.0,0.0,0.0,0.0,0.0,0.0,0.0,0.0,0.0,0.0,0.0,0.0,0.0,0.0,0.0,0.0,0.0,0.0,0.0,0.0,0.0,0.0,0.0,0.0,0.0,0.0,0.0,0.0,0.0,0.0,0.0,0.0,0.0,2.2282,2.3581,2.3209,2.268,0.0,0.0,2.434,2.3879,2.6034,0.0,0.0,0.0,0.0,0.0,0.0,0.0,0.0,0.0,0.0,0.0,0.0,0.0,0.0,0.0,0.0,0.0,0.0,0.0,0.0,0.0,0.0,0.0,0.0,0.0,0.0,0.0,0.0,0.0,0.0,0.0,0.0,0.0,0.0,0.0,0.0,0.0,0.0,0.0,0.0,0.0,0.0,0.0,0.0,0.0,0.0,0.0,0.0,0.0,0.0,0.0,0.0,0.0,0.0,0.0,2.6116,2.7445,3.1362,3.4294,3.6002,3.6362,3.6723,3.718,3.1205,2.7716,0.0,0.0,0.0,0.0,0.0,0.0,0.0,0.0,0.0,0.0,0.0,0.0,0.0,0.0,0.0,0.0,0.0,0.0,0.0,0.0,0.0,0.0,0.0,0.0,0.0,0.0,0.0,0.0,0.0,0.0,0.0,0.0,0.0,0.0,0.0,0.0,0.0,0.0,0.0,0.0,0.0,0.0,2.3399,2.4142,0.0,0.0,0.0,2.6338,2.5369,0.0,0.0,0.0,0.0,0.0,0.0,0.0,0.0,0.0,0.0,0.0,0.0,0.0,0.0,0.0,0.0,0.0,0.0,0.0,0.0,0.0,0.0,0.0,0.0,0.0,0.0,0.0,0.0,0.0,0.0,0.0,0.0,0.0,0.0,0.0,0.0,0.0,0.0,0.0,0.0,0.0,0.0,0.0,0.0,0.0,0.0,0.0,0.0,0.0,0.0,0.0,0.0,0.0,0.0,0.0,0.0,0.0,2.7781,3.2373,3.5328,3.6362,3.6795,3.7086,3.7108,3.1902,0.0,0.0,0.0,0.0,0.0,0.0,0.0,0.0,0.0,0.0,0.0,0.0,0.0,0.0,0.0,0.0,0.0,0.0,0.0,0.0,0.0,0.0,0.0,0.0,0.0,0.0,0.0,1.5572,0.0,0.0,0.0,0.0,0.0,0.0,0.0,0.0,0.0,0.0,0.0,0.0,0.0,0.0,2.4615,2.3812,2.5194,2.6226,0.0,0.0,2.7766,2.6713,2.8704,2.9169,0.0,0.0,0.0,0.0,0.0,0.0,0.0,0.0,0.0,0.0,0.0,0.0,0.0,0.0,0.0,0.0,0.0,0.0,0.0,0.0,0.0,0.0,0.0,0.0,0.0,0.0,0.0,0.0,0.0,0.0,0.0,0.0,0.0,0.0,0.0,0.0,0.0,0.0,0.0,0.0,0.0,0.0,0.0,0.0,0.0,0.0,0.0,0.0,0.0,0.0,0.0,0.0,0.0,0.0,0.0,2.783,3.2396,3.5328,3.6362,3.6435,3.6699,3.7132,3.3761,3.0445,0.0,0.0,0.0,0.0,0.0,0.0,0.0,0.0,0.0,0.0,0.0,0.0,0.0,0.0,0.0,0.0,0.0,0.0,0.0,0.0,0.0,0.0,0.0,0.0,0.0,0.0,0.0,0.0,0.0,0.0,0.0,0.0,0.0,0.0,0.0,0.0,0.0,0.0,0.0,0.0,0.0,2.597,2.5896,2.6441,2.7119,0.0,0.0,2.8093,2.7829,3.0713,3.1278,2.6116,0.0,0.0,0.0,0.0,0.0,0.0,0.0,0.0,0.0,0.0,0.0,0.0,0.0,0.0,0.0,0.0,0.0,0.0,0.0,0.0,0.0,0.0,0.0,0.0,0.0,0.0,0.0,0.0,0.0,0.0,0.0,0.0,0.0,0.0,0.0,0.0,0.0,0.0,0.0,0.0,0.0,0.0,0.0,0.0,0.0,0.0,0.0,0.0,0.0,0.0,0.0,0.0,0.0,2.7661,2.8238,3.2876,3.564,3.6386,3.6723,3.7132,3.7687,3.4116,3.0767,0.0,0.0,0.0,0.0,0.0,0.0,0.0,0.0,0.0,0.0,0.0,0.0,0.0,0.0,0.0,0.0,0.0,0.0,0.0,0.0,0.0,0.0,0.0,0.0,0.0,0.0,0.0,0.0,1.9425,1.9759,2.0103,0.0,0.0,0.0,0.0,0.0,0.0,0.0,0.0,0.0,0.0,2.6504,2.6726,2.7243,0.0,0.0,2.9154,2.9362,2.816,2.9991,3.0062,2.5523,2.5146,0.0,0.0,0.0,0.0,0.0,0.0,0.0,0.0,0.0,0.0,0.0,0.0,0.0,0.0,0.0,0.0,0.0,0.0,0.0,0.0,0.0,0.0,0.0,0.0,0.0,0.0,0.0,0.0,0.0,0.0,0.0,0.0,0.0,0.0,0.0,0.0,0.0,0.0,0.0,0.0,0.0,0.0,0.0,0.0,0.0,0.0,0.0,0.0,0.0,0.0,0.0,0.0,2.7858,2.8262,3.2948,3.5663,3.6259,3.672,3.725,3.7796,3.5165,3.2299,0.0,0.0,0.0,0.0,0.0,0.0,0.0,0.0,0.0,0.0,0.0,0.0,0.0,0.0,0.0,0.0,0.0,0.0,0.0,0.0,0.0,0.0,0.0,0.0,0.0,0.0,0.0,0.0,2.0698,2.1035,2.1141,0.0,0.0,0.0,0.0,0.0,0.0,0.0,0.0,0.0,0.0,2.7157,2.709,2.7585,2.8005,2.8096,2.896,2.9185,2.8011,2.8663,2.8325,2.5405,0.0,0.0,0.0,0.0,0.0,0.0,0.0,0.0,0.0,0.0,0.0,0.0,0.0,0.0,0.0,0.0,0.0,0.0,0.0,0.0,0.0,0.0,0.0,0.0,0.0,0.0,0.0,0.0,0.0,0.0,2.1092,0.0,0.0,0.0,0.0,0.0,0.0,0.0,0.0,0.0,0.0,0.0,0.0,0.0,0.0,0.0,0.0,0.0,0.0,0.0,0.0,0.0,0.0,0.0,2.7781,3.2421,3.5228,3.598,3.6307,3.6809,3.7551,3.724,3.5482,3.2136,0.0,0.0,0.0,0.0,0.0,0.0,0.0,0.0,0.0,0.0,0.0,0.0,0.0,0.0,0.0,0.0,0.0,0.0,0.0,0.0,0.0,0.0,0.0,0.0,0.0,0.0,1.884,2.0139,2.1315,0.0,0.0,0.0,0.0,0.0,0.0,0.0,0.0,0.0,0.0,2.6885,2.8039,2.6962,2.747,2.7889,2.7789,2.7267,2.7019,2.7355,2.7014,2.6494,0.0,0.0,0.0,0.0,0.0,0.0,0.0,0.0,0.0,0.0,0.0,0.0,0.0,0.0,0.0,0.0,0.0,0.0,0.0,0.0,0.0,0.0,0.0,0.0,0.0,0.0,0.0,2.343,2.3266,0.0,0.0,0.0,0.0,0.0,0.0,0.0,0.0,0.0,0.0,0.0,2.531,2.572,0.0,0.0,0.0,0.0,0.0,0.0,0.0,0.0,0.0,0.0,0.0,0.0,2.8135,2.8171,3.2647,3.5289,3.5748,3.6154,3.6593,3.6985,3.6967,3.5258,3.1763,0.0,0.0,0.0,0.0,0.0,0.0,0.0,0.0,0.0,0.0,0.0,0.0,0.0,0.0,0.0,0.0,0.0,0.0,0.0,0.0,0.0,0.0,0.0,0.0,0.0,2.0663,0.0,0.0,0.0,0.0,0.0,0.0,0.0,0.0,0.0,0.0,0.0,2.4543,2.551,2.6022,2.6387,2.6613,2.6889,2.7448,0.0,0.0,0.0,0.0,0.0,0.0,0.0,0.0,0.0,0.0,0.0,0.0,0.0,0.0,2.5523,2.4328,2.4954,2.5691,2.5672,0.0,0.0,0.0,0.0,0.0,0.0,0.0,0.0,0.0,0.0,0.0,0.0,0.0,0.0,0.0,0.0,2.4245,0.0,0.0,0.0,0.0,0.0,0.0,0.0,0.0,2.5796,2.7056,2.8222,2.8823,2.91,0.0,2.8715,2.6863,0.0,0.0,0.0,0.0,0.0,0.0,0.0,0.0,2.8606,2.8406,3.2795,3.5182,3.528,3.5601,3.5933,3.6231,3.6247,3.5168,3.2908,2.9798,2.7293,0.0,0.0,0.0,0.0,0.0,0.0,0.0,0.0,0.0,0.0,0.0,0.0,0.0,0.0,0.0,0.0,0.0,0.0,0.0,0.0,0.0,0.0,0.0,2.1776,0.0,0.0,0.0,0.0,0.0,0.0,0.0,0.0,0.0,2.4126,2.4825,2.5666,2.6559,2.6533,2.6479,2.6589,0.0,0.0,0.0,0.0,0.0,0.0,0.0,2.4694,2.4433,2.475,2.543,2.6561,2.7075,2.7342,2.7345,0.0,0.0,2.5984,2.646,2.716,2.7243,2.7311,2.7426,2.7661,2.7751,2.7857,0.0,0.0,0.0,0.0,0.0,0.0,0.0,0.0,2.6068,2.6068,0.0,2.586,0.0,0.0,0.0,0.0,0.0,2.5227,0.0,0.0,2.9539,3.0687,3.0287,3.127,3.1726,3.1654,3.0608,2.9822,2.9128,2.721,0.0,0.0,0.0,0.0,0.0,0.0,2.8991,2.8554,3.2758,3.4886,3.4562,3.458,3.4853,3.5388,3.5233,3.523,3.5425,3.2795,3.1297,3.1132,2.6351,0.0,0.0,0.0,0.0,0.0,0.0,0.0,0.0,0.0,0.0,0.0,0.0,0.0,0.0,0.0,0.0,0.0,0.0,0.0,0.0,2.1934,0.0,0.0,0.0,0.0,0.0,0.0,0.0,0.0,0.0,0.0,2.426,2.575,2.7099,2.7617,0.0,0.0,0.0,0.0,2.7642,2.5796,2.5403,2.5391,2.548,2.5418,2.574,2.6824,0.0,0.0,2.9082,2.8242,2.7516,2.7161,2.8863,2.9685,2.7898,2.7666,2.7761,2.7859,2.8052,2.8072,2.8288,2.8773,2.8763,2.8098,0.0,0.0,0.0,0.0,2.7886,2.9083,3.0571,3.0261,2.9876,2.9431,2.9004,0.0,0.0,0.0,0.0,0.0,0.0,2.8361,2.9684,3.1693,3.2484,3.2272,3.3096,3.2951,3.1987,3.1448,3.082,3.0144,2.9542,2.7687,2.4619,0.0,0.0,0.0,0.0,2.8011,2.8701,3.1976,3.3726,3.3661,3.4015,3.4455,3.5024,3.4303,3.4238,3.4924,3.3671,3.2206,3.0578,2.9547,0.0,0.0,0.0,0.0,0.0,0.0,0.0,0.0,0.0,0.0,0.0,0.0,0.0,0.0,0.0,0.0,0.0,0.0,0.0,2.2319,2.317,2.3286,0.0,0.0,0.0,0.0,0.0,0.0,0.0,0.0,0.0,2.5975,2.6361,2.6958,0.0,0.0,2.6851,2.6813,2.6826,2.7105,2.7826,0.0,0.0,0.0,2.7234,2.6819,2.7699,2.8923,2.9719,2.9535,2.9894,3.019,3.0231,3.0841,3.1164,3.0837,3.0788,3.0925,3.1189,3.1265,3.127,3.1228,3.1414,3.1622,3.1768,2.9083,2.9133,2.9313,2.9691,3.0756,3.1752,3.2677,3.2712,3.2213,3.1406,3.1378,3.023,2.8262,2.74,0.0,0.0,0.0,2.9658,3.1621,3.2635,3.3133,3.3222,3.4014,3.3945,3.3136,3.2724,3.2286,3.1838,3.0484,2.8746,2.6498,0.0,0.0,2.4049,2.6814,2.8362,2.8752,3.1404,3.2756,3.2742,3.3219,3.3713,3.414,3.347,3.3475,3.4324,3.3673,3.2771,3.1644,3.111,2.9307,0.0,0.0,0.0,0.0,0.0,0.0,0.0,0.0,0.0,0.0,0.0,2.1666,0.0,0.0,0.0,0.0,2.259,2.2923,2.3451,2.3786,0.0,0.0,0.0,0.0,0.0,0.0,0.0,2.4236,2.6018,2.7188,2.6878,2.7019,2.7458,2.8207,2.7591,2.7189,2.7527,0.0,2.7776,2.8948,2.8161,2.7828,2.8972,2.8589,2.8437,2.9359,3.0054,3.0498,3.0488,3.0917,3.1282,3.1375,3.1537,3.1741,3.1897,3.2114,3.2368,3.2589,3.2668,3.2701,3.2843,3.2966,3.3191,3.5473,3.3705,3.1349,3.0881,3.1755,3.2958,3.3376,3.3217,3.3803,3.3375,3.2326,3.2981,3.2695,3.1578,2.9482,0.0,3.0054,2.9339,3.0386,3.2753,3.2868,3.3071,3.3331,3.4159,3.4551,3.4442,3.3976,3.3759,3.3534,3.062,2.904,2.8887,2.8471,2.7152,2.5318,2.8129,2.936,2.8704,3.0809,3.1839,3.1759,3.2285,3.2693,3.2943,3.2657,3.2862,3.3617,3.3041,3.2999,3.3499,3.1644,3.074,3.1021,0.0,0.0,0.0,0.0,0.0,0.0,0.0,0.0,0.0,0.0,0.0,0.0,0.0,0.0,0.0,2.3809,0.0,2.4805,2.4198,0.0,0.0,0.0,2.4952,2.6231,2.6252,2.6109,2.6054,0.0,0.0,2.7201,0.0,2.8312,2.8999,2.8787,2.8579,2.8665,2.8888,2.9165,2.9223,2.8799,2.867,2.9178,2.9569,3.0136,3.1022,3.1314,3.126,3.1386,3.1283,3.1176,3.1065,3.1266,3.1515,3.1694,3.1908,3.221,3.246,3.256,3.2776,3.3225,3.3279,3.3319,3.6838,3.6392,3.6087,3.535,3.4479,3.4897,3.5256,3.552,3.4958,3.4279,3.3606,3.3418,3.2745,3.1715,3.094,3.0931,3.1512,3.1901,3.2753,3.4005,3.4203,3.3964,3.3457,3.3478,3.3111,3.2443,3.2397,3.2339,3.2176,3.1419,3.028,2.8937,2.9236,2.8113,2.5541,2.6484,2.7434,2.8215,2.9099,3.0033,3.1082,3.1469,3.1626,3.1596,3.1602,3.1662,3.1758,3.2038,3.2446,3.2976,3.3106,3.2346,3.051,2.7428,0.0,0.0,0.0,0.0,0.0,0.0,0.0,0.0,0.0,2.2773,2.2163,0.0,2.3435,0.0,2.5648,2.6644,2.625,2.6543,0.0,0.0,2.5419,2.5525,2.5384,2.6495,2.7051,2.638,2.7661,2.8428,2.7943,2.8331,2.8777,2.8974,2.9075,2.9147,2.9261,2.9347,2.9407,2.9415,2.9344,2.9479,3.0015,3.0607,3.092,3.1049,3.1158,3.124,3.1163,3.1109,3.094,3.074,3.0904,3.1091,3.1113,3.1354,3.1612,3.1954,3.2346,3.2524,3.2127,3.2364,3.2598,3.8223,3.7903,3.8132,3.7253,3.5785,3.677,3.6957,3.6508,3.6285,3.5604,3.4648,3.4514,3.3853,3.282,3.2628,3.281,3.3156,3.3104,3.3558,3.4391,3.4132,3.3567,3.2847,3.288,3.2592,3.2115,3.2176,3.2176,3.2096,3.1742,3.0996,2.9952,3.0004,2.905,2.7138,2.6881,2.7002,2.7426,2.8117,2.907,3.0246,3.0859,3.0657,2.9735,2.9668,2.9311,2.8641,2.8609,2.8865,2.9474,3.0077,2.9875,2.8676,2.649,2.5018,0.0,0.0,0.0,0.0,0.0,0.0,0.0,0.0,0.0,0.0,0.0,2.4553,2.4748,2.6248,2.696,2.6271,2.6593,2.6668,2.6286,2.658,2.6907,2.715,2.7951,2.83,2.7839,2.8621,2.9002,2.8586,2.8766,2.8964,2.9002,2.926,2.9471,2.951,2.9544,2.9611,2.9762,2.9811,2.996,3.0426,3.072,3.0918,3.0908,3.1064,3.1132,3.1007,3.0776,3.0596,3.0498,3.0406,3.0365,3.043,3.0567,3.0743,3.0947,3.1218,3.1487,3.1678,3.1689,3.171,3.9382,3.8681,3.8623,3.7703,3.6417,3.8225,3.801,3.6532,3.7087,3.6551,3.5167,3.553,3.5116,3.4132,3.4069,3.4243,3.4581,3.3582,3.3535,3.4258,3.3553,3.287,3.2258,3.2643,3.2771,3.268,3.279,3.2771,3.2643,3.1983,3.1543,3.1318,3.0626,2.9819,2.8931,2.8095,2.7364,2.671,2.7651,2.8545,2.9322,2.992,2.9433,2.7806,2.7412,2.6652,2.5391,2.4781,2.474,2.5317,2.5697,2.6276,2.7041,2.528,2.4843,0.0,2.424,0.0,0.0,0.0,0.0,0.0,0.0,0.0,0.0,2.5849,2.5808,2.5655,2.6411,2.6681,2.6057,2.6104,2.66,2.7721,2.7962,2.8497,2.9542,2.956,2.945,2.945,2.9183,2.8975,2.8979,2.8975,2.9005,2.9023,2.926,2.9453,2.9506,2.9536,2.9702,3.002,3.007,3.008,3.0321,3.0397,3.0538,3.0772,3.0946,3.0979,3.096,3.0531,3.0201,3.0324,2.996,2.9646,2.9804,2.9863,2.9892,2.9981,3.001,3.0311,3.1181,3.1113,3.1035,3.9318,3.9147,3.8766,3.8044,3.7188,3.7595,3.6793,3.5215,3.4973,3.468,3.4432,3.447,3.4398,3.4184,3.3884,3.3977,3.4373,3.3879,3.3909,3.436,3.3895,3.361,3.3505,3.3872,3.3725,3.3141,3.3743,3.3725,3.3067,3.2921,3.2203,3.0919,3.0754,2.9947,2.8572,0.0,0.0,0.0,2.7611,2.8066,2.8377,2.7356,2.657,2.6149,2.5678,0.0,2.448,2.499,2.5242,2.5199,2.5872,0.0,0.0,0.0,0.0,0.0,0.0,0.0,0.0,0.0,0.0,0.0,2.6102,2.5964,2.5986,2.6165,2.6411,2.6769,2.7623,2.8158,2.8206,2.8745,2.8861,2.8369,2.8811,2.9083,2.8769,2.8939,2.9094,2.9094,2.9035,2.8975,2.8975,2.8975,2.8975,2.8993,2.9078,2.9133,2.9104,2.939,2.9501,2.9299,2.9478,2.9703,2.9966,3.0244,3.0421,3.0528,3.0742,3.0898,3.0859,3.0604,3.0232,3.0054,2.9742,2.9509,2.9568,2.9568,2.9627,2.9833,2.9745,2.9646,2.9928,3.0038,3.0117,3.9485,0.0,3.903,3.833,0.0,3.7371,3.6716,3.5526,3.528,3.5051,3.4877,3.4668,3.4599,3.4599,3.4424,3.4576,3.4946,3.4566,3.4623,3.4972,3.4551,3.4386,3.4422,3.4623,3.4513,3.4093,3.4312,3.4167,3.3798,3.3413,3.2664,3.1689,3.1488,3.0882,2.9923,2.9672,2.9115,2.8105,2.8289,2.8549,2.8861,2.8256,2.7352,2.6184,0.0,0.0,0.0,0.0,0.0,0.0,0.0,0.0,0.0,0.0,0.0,2.8857,2.7431,2.675,2.7325,2.6984,2.7127,2.8055,2.7996,2.7653,2.6984,2.7267,2.7617,2.7918,2.8388,2.8709,2.8894,2.9231,2.9257,2.8777,2.9013,2.9091,2.8796,2.8895,2.8975,2.8975,2.8975,2.8975,2.8975,2.8975,2.8975,2.8975,2.8975,2.8975,2.9023,2.9159,2.9207,2.9042,2.9272,2.9597,2.9863,3.0157,3.0392,3.0421,3.0538,3.0557,3.044,3.0157,2.9892,2.9715,2.945,2.9242,2.9242,2.9242,2.9302,2.939,2.9331,2.9242,2.9272,2.9479,2.9804,3.9478,3.9177,3.9177,3.8533,3.7519,3.7519,3.7089,3.6403,0.0,0.0,0.0,3.5245,3.5138,3.5192,3.5211,3.5412,3.576,3.5467,3.5486,3.5815,3.5376,3.5211,3.5211,3.5211,3.5119,3.4991,3.4678,3.4477,3.4367,3.367,3.3086,3.2698,3.2313,3.1854,3.1428,3.1047,3.0406,2.9482,2.9152,2.9133,2.9372,2.9402,2.842,2.6435,2.6133,2.527,2.3712,2.364,2.371,2.3848,2.4483,2.5266,2.6176,2.6615,2.7283,2.8223,2.8049,2.8257,2.9064,2.8545,2.8666,2.9661,2.9538,2.9021,2.8147,2.8441,2.8717,2.8822,2.8811,2.8872,2.8998,2.8975,2.8975,2.8975,2.8975,2.9005,2.8975,2.8975,2.8975,2.8975,2.8975,2.8975,2.8975,2.8975,2.8975,2.8975,2.8975,2.8975,2.8975,2.8993,2.9071,2.9124,2.9361,2.9597,2.9863,3.0098,3.0304,3.0255,3.0304,3.0216,2.9951,2.9686,2.9538,2.9538,2.9213,2.9053,2.9005,2.9005,2.8975,2.8975,2.8975,2.8975,2.9005,2.9272,2.9656,3.878,3.8724,3.8685,3.8409,3.7929,3.7929,3.7651,3.7191,3.6496,3.5962,3.5577,3.554,3.5687,3.6036,3.6054,3.6274,3.6621,3.6566,3.6566,0.0,3.6237,3.6036,3.6036,3.6036,3.5687,3.5028,3.4936,3.4752,3.4385,3.3945,3.3523,3.3086,3.2716,3.2162,3.1433,3.1322,3.1244,3.1043,2.9672,2.8847,2.8553,2.728,2.6268,2.559,2.4962,2.4392,2.4103,2.4465,2.4504,2.4343,2.4728,2.5988,2.8179,2.8427,2.9282,3.1009,3.1064,3.0614,2.9726,2.9474,2.9298,2.9153,2.9094,2.8995,2.8854,2.8906,2.8947,2.8961,2.8972,2.8979,2.8975,2.8975,2.8975,2.8975,2.8975,2.8975,2.8975,2.8975,2.8975,2.8975,2.8975,2.8975,2.8975,2.8975,2.8975,2.8975,2.8975,2.8975,2.8975,2.8975,2.9124,2.9361,2.9479,2.9627,2.9804,2.9922,2.9981,2.9981,2.9981,2.9951,2.9833,2.9627,2.9479,2.9509,2.9213,2.9005,2.8975,2.8975,2.8975,2.8975,2.8975,2.8975,2.9005,2.9242,2.9509,3.86,3.86,3.86,3.849,3.8289,3.8108,3.7906,3.7704,3.7079,3.6769,3.6566,3.6604,3.6658,3.6823,3.6861,3.6933,3.7116,3.6896,3.6805,3.6768,3.6402,3.6201,3.6201,3.6201,3.598,3.5632,3.5412,3.5101,3.4698,3.433,3.3817,3.3196,3.2808,3.2294,3.1763,3.1708,3.1598,3.1391,3.0675,3.0075,2.969,2.8986,2.8417,2.8003,2.7628,2.7463,2.7463,2.7816,2.7929,2.7828,2.8389,2.9239,3.0341,3.0638,3.1082,3.1722,3.138,3.0828,3.0067,2.9398,2.8883,2.8505,2.8469,2.8469,2.8469,2.8815,2.8975,2.8975,2.8975,2.8975,2.8975,2.8975,2.8975,2.8975,2.8975,2.8975,2.8975,2.8975,2.8975,2.8975,2.8975,2.8975,2.8975,2.8975,2.8975,2.8975,2.8975,2.8975,2.8975,2.8975,2.9035,2.9213,2.9361,2.9538,2.9686,2.9804,2.9833,2.9715,2.9686,2.9627,2.9479,2.9272,2.9242,2.9213,2.9112,2.9005,2.8975,2.8975,2.8975,2.8975,2.8975,2.8975,2.9035,2.9124,2.9331,3.86,3.86,3.86,3.86,3.8582,3.8252,3.8124,3.8087,3.7776,3.7666,3.7629,3.7482,3.7428,3.7519,3.7558,3.7519,3.7482,3.7208,3.7061,3.7024,3.6677,3.6531,3.6604,3.6531,3.6421,3.6273,3.5944,3.5504,3.5101,3.466,3.4,3.3266,3.29,3.2533,3.2148,3.2129,3.1946,3.1575,3.1524,3.1286,3.0714,3.0759,3.0558,3.0147,3.0136,3.0204,3.0235,3.0556,3.0736,3.0754,3.1377,3.1728,3.1696,3.1915,3.192,3.1576,3.1014,3.0478,2.9974,2.9036,2.8339,2.8025,2.799,2.799,2.805,2.8439,2.8815,2.8856,2.8874,2.8904,2.8993,2.8975,2.8975,2.8975,2.8975,2.8975,2.8975,2.8975,2.8975,2.8975,2.8975,2.8975,2.8975,2.8975,2.8975,2.8975,2.8975,2.8975,2.8975,2.8975,2.8975,2.9035,2.9213,2.9361,2.942,2.9538,2.9568,2.939,2.939,2.9302,2.9094,2.9005,2.8975,2.9005,2.9005,2.8975,2.8975,2.8975,2.8975,2.8975,2.8975,2.8975,2.8975,2.9005,2.9124,3.86,3.86,3.86,3.86,3.86,3.8545,3.8527,3.8527,3.849,3.849,3.838,3.7721,3.7611,3.7924,3.7961,3.7922,3.7961,3.7886,3.7831,3.7833,3.7446,3.7503,3.7684,3.7448,3.7079,3.6713,3.6347,3.5944,3.5504,3.477,3.4018,3.3269,3.3159,3.2955,3.2588,3.2551,3.2349,3.1964,3.1946,3.1417,3.0434,3.0633,3.0463,2.9782,3.0049,3.0204,3.0228,3.0584,3.0799,3.0835,3.1198,3.1451,3.1419,3.1198,3.1023,3.1001,3.0613,3.0134,2.9337,2.8529,2.8013,2.799,2.796,2.796,2.796,2.802,2.8229,2.8457,2.8517,2.8666,2.8964,2.8993,2.8975,2.8975,2.8975,2.8975,2.8975,2.8975,2.8975,2.8975,2.8975,2.8975,2.8975,2.8975,2.8975,2.8975,2.8975,2.8975,2.8975,2.8975,2.8975,2.8975,2.9053,2.9064,2.9064,2.9035,2.9124,2.9064,2.9035,2.9035,2.9005,2.8975,2.8975,2.8975,2.8975,2.8975,2.8975,2.8975,2.8975,2.8975,2.8975,2.8975,2.8975,2.8975,2.9064,3.86,3.86,3.86,3.86,3.86,3.86,3.86,3.86,3.86,3.86,3.8582,3.8252,3.8197,3.8343,3.8343,3.8343,3.8325,3.8126,3.8016,3.7979,3.7613,3.7521,3.7592,3.7482,3.7171,3.6823,3.6621,3.62,3.5577,3.4788,3.4238,3.3927,3.3707,3.3358,3.2991,3.2973,3.2628,3.2005,3.1822,3.1255,3.0524,3.0677,3.0619,3.0187,3.0251,3.0347,3.0347,3.0477,3.0549,3.0599,3.0743,3.0815,3.0782,3.0653,3.062,3.0538,2.9853,2.9147,2.8644,2.7883,2.7466,2.7478,2.7496,2.7496,2.7466,2.7466,2.7586,2.787,2.808,2.8337,2.8636,2.8725,2.8785,2.8945,2.8975,2.8975,2.8975,2.8975,2.8975,2.8975,2.8975,2.8975,2.8975,2.8975,2.8975,2.8975,2.8975,2.8975,2.8975,2.8975,2.8975,2.8975,2.8975,2.8975,2.8975,2.8975,2.8975,2.8975,2.8975,2.8975,2.8975,2.8975,2.8975,2.8975,2.8975,2.8975,2.8975,2.8975,2.8975,2.8975,2.8975,2.8975,2.8975,2.8975,2.8975,3.8692,3.8618,3.86,3.86,3.86,3.86,3.86,3.86,3.86,3.86,3.86,3.86,3.86,3.86,3.86,3.86,3.8563,3.8289,3.8199,3.8163,3.7849,3.7739,3.7721,3.7631,3.7336,3.6988,3.6841,3.6383,3.5577,3.4935,3.4513,3.4367,3.4,3.3635,3.3397,3.3376,3.3046,3.2371,3.1875,3.1325,3.0671,3.0576,3.049,3.0263,3.0346,3.0411,3.0411,3.0411,3.0411,3.0411,3.0411,3.0411,3.0411,3.0296,3.0163,2.9907,2.9104,2.8417,2.8063,2.7463,2.7103,2.7103,2.7103,2.7103,2.7103,2.7103,2.7194,2.7388,2.7629,2.79,2.8307,2.8367,2.8517,2.8797,2.8874,2.8904,2.8975,2.8975,2.8975,2.8975,2.8975,2.8975,2.8975,2.8975,2.8975,2.8975,2.8975,2.8975,2.8975,2.8975,2.8975,2.8975,2.8975,2.8975,2.8975,2.8975,2.8975,2.8975,2.8975,2.8975,2.8975,2.8975,2.8975,2.8975,2.8975,2.8975,2.8975,2.8975,2.8975,2.8975,2.8975,2.8975,2.8975,2.8975,2.8975,3.8948,3.8618,3.86,3.856,3.856,3.8521,3.8521,3.8225,3.8481,3.856,3.8481,3.86,3.86,3.86,3.86,3.86,3.86,3.8563,3.8527,3.8527,3.8508,3.8527,3.8508,3.8142,3.7739,3.7318,3.7006,3.642,3.5614,3.5156,3.4807,3.4403,3.4018,3.3798,3.3762,3.3743,3.3578,3.3033,3.2346,3.1702,3.0976,3.0226,2.9855,2.9855,3.0165,3.0346,3.0378,3.0378,3.0378,3.0378,3.0346,3.0378,3.0346,3.0035,2.9553,2.8983,2.8506,2.808,2.7723,2.733,2.7137,2.712,2.712,2.7103,2.7103,2.7103,2.7103,2.7133,2.7194,2.7435,2.79,2.799,2.817,2.8487,2.8517,2.8666,2.8945,2.8945,2.8975,2.8975,2.8975,2.8975,2.8975,2.8975,2.8975,2.8975,2.8975,2.8975,2.8975,2.8975,2.8975,2.8975,2.8975,2.8975,2.8975,2.8975,2.8975,2.8975,2.8975,2.8975,2.8975,2.8975,2.8975,2.8975,2.8975,2.8975,2.8975,2.8975,2.8975,2.8975,2.8975,2.8975,2.8975,2.8975,2.8975,3.8966,3.8618,3.86,3.7986,3.6992,3.6952,3.6333,3.5406,3.6454,3.6952,3.7152,3.8105,3.86,3.86,3.86,3.86,3.86,3.86,3.86,3.86,3.86,3.86,3.8582,3.8435,3.8014,3.7446,3.7244,3.675,3.5999,3.5321,3.4918,3.468,3.4147,3.3817,3.3817,3.3817,3.3615,3.3162,3.2286,3.1521,3.0963,2.9998,2.9495,2.9495,2.9593,2.9709,2.9709,2.9676,2.9709,2.9676,2.9709,2.9676,2.9676,2.9561,2.9378,2.9143,2.8768,2.8511,2.8337,2.7758,2.7415,2.7398,2.7223,2.7137,2.7103,2.7103,2.7103,2.712,2.712,2.7224,2.7375,2.7569,2.781,2.808,2.817,2.8337,2.8576,2.8696,2.8755,2.8945,2.8975,2.8975,2.8975,2.8975,2.8975,2.8975,2.8975,2.8975,2.8975,2.8975,2.8975,2.8975,2.8975,2.8975,2.8975,2.8975,2.8975,2.8975,2.8975,2.8975,2.8975,2.8975,2.8975,2.8975,2.8975,2.8975,2.8975,2.8975,2.8975,2.8975,2.8975,2.8975,2.8975,2.8975,2.8975,3.7398,3.71,3.7165,3.6436,3.5244,3.5264,3.4596,3.3576,3.466,3.517,3.543,3.6431,3.693,3.705,3.749,3.7769,3.7867,3.8304,3.86,3.86,3.86,3.86,3.8582,3.8453,3.8124,3.7592,3.7299,3.6861,3.6219,3.5504,3.5119,3.4954,3.433,3.3892,3.3835,3.3817,3.3635,3.3102,3.2262,3.155,3.1133,3.0164,2.9607,2.9488,2.9405,2.9337,2.9283,2.9299,2.925,2.9152,2.9119,2.9152,2.9152,2.925,2.9232,2.9128,2.8905,2.8749,2.8594,2.8114,2.7792,2.7792,2.7586,2.7463,2.7463,2.7463,2.7381,2.7326,2.7274,2.7257,2.7168,2.7267,2.7509,2.7779,2.784,2.796,2.8289,2.8337,2.8487,2.8737,2.8916,2.8975,2.8975,2.8975,2.8975,2.8975,2.8975,2.8975,2.8975,2.8975,2.8975,2.8975,2.8975,2.8975,2.8975,2.8975,2.8975,2.8975,2.8975,2.8975,2.8975,2.8975,2.8975,2.8975,2.8975,2.8975,2.8975,2.8975,2.8975,2.8975,2.8975,2.8975,2.8975,2.8975,2.8975,3.4249,3.4135,3.4187,3.4078,3.3508,3.3616,3.36,3.3044,3.3274,3.3397,3.3438,3.3642,3.405,3.4132,3.5712,3.6155,3.6735,3.7986,3.86,3.86,3.86,3.86,3.8582,3.827,3.8053,3.7851,3.7153,3.6641,3.6201,3.5779,3.5357,3.4991,3.4605,3.4183,3.3835,3.38,3.3643,3.3169,3.2447,3.1926,3.1547,3.0736,3.0156,2.9865,2.958,2.9394,2.9319,2.9268,2.9103,2.8874,2.8807,2.8807,2.8823,2.9053,2.9114,2.8857,2.8787,2.8582,2.8291,2.8174,2.8091,2.8043,2.8089,2.7972,2.7969,2.8035,2.7915,2.7689,2.7604,2.7501,2.7227,2.7253,2.7323,2.7431,2.7509,2.7659,2.79,2.802,2.814,2.8457,2.8707,2.8945,2.8975,2.8886,2.8856,2.8856,2.8856,2.8856,2.8826,2.8874,2.8964,2.8993,2.8993,2.8975,2.8975,2.8975,2.8975,2.8975,2.8975,2.8975,2.8975,2.8975,2.8975,2.8975,2.8975,2.8975,2.8975,2.8975,2.8975,2.8975,2.8975,2.8975,2.8975,2.8975,2.8975,3.4018,3.4081,3.3816,3.2959,3.1945,3.1771,3.1069,3.0038,3.1022,3.1602,3.1809,3.2864,3.4034,3.5066,3.5793,3.6614,3.7769,3.8402,3.86,3.856,3.86,3.86,3.8582,3.8472,3.8105,3.7613,3.7043,3.6585,3.6201,3.5815,3.554,3.5339,3.4733,3.4367,3.4183,3.3963,3.3643,3.3259,3.2519,3.1944,3.1565,3.0806,3.0242,2.9919,2.98,2.9597,2.931,2.886,2.8677,2.8793,2.8577,2.8477,2.8461,2.856,2.8575,2.8492,2.8475,2.8425,2.8291,2.804,2.789,2.7808,2.7609,2.7602,2.7807,2.7887,2.7931,2.7952,2.8015,2.7946,2.7878,2.7843,2.7683,2.7276,2.7224,2.7375,2.7612,2.784,2.802,2.811,2.8229,2.8289,2.8319,2.8319,2.8379,2.8349,2.8349,2.8349,2.8349,2.8546,2.8636,2.8666,2.8785,2.8886,2.8826,2.8797,2.8797,2.8856,2.8886,2.8975,2.8975,2.8975,2.8975,2.8975,2.8975,2.8975,2.8975,2.8975,2.8975,2.8975,2.8975,2.8975,2.8975,2.8975,2.8975,3.1913,3.1927,3.1758,3.1017,3.0043,2.9958,2.9327,2.8445,2.9342,2.9844,3.008,3.0939,3.2041,3.3217,3.44,3.5228,3.5948,3.757,3.8243,3.7849,3.8402,3.86,3.86,3.86,3.8179,3.7482,3.7134,3.6751,3.6219,3.5962,3.5705,3.5339,3.488,3.4423,3.422,3.391,3.3608,3.3085,3.2575,3.2017,3.1409,3.0873,3.0375,2.9963,2.9757,2.9567,2.9275,2.8633,2.8372,2.8489,2.8294,2.8097,2.8081,2.8229,2.8296,2.8296,2.8296,2.8296,2.8279,2.8097,2.7916,2.7866,2.7701,2.765,2.7859,2.7923,2.7986,2.8012,2.7978,2.7959,2.7841,2.7916,2.7758,2.7398,2.7303,2.7318,2.741,2.7612,2.7792,2.784,2.793,2.796,2.799,2.799,2.799,2.799,2.799,2.799,2.802,2.817,2.8277,2.8337,2.8409,2.8498,2.8588,2.8588,2.8588,2.8677,2.8767,2.8886,2.8975,2.8975,2.8975,2.8975,2.8975,2.8975,2.8975,2.8975,2.8975,2.8975,2.8975,2.8975,2.8975,2.8975,2.8975,2.8354,2.808,2.8606,2.8636,2.8185,2.8548,2.8531,2.8248,2.8305,2.8389,2.8389,2.8642,2.8726,2.9384,3.2124,3.2782,3.2139,3.5746,3.729,3.6872,3.753,3.8264,3.856,3.86,3.8197,3.7574,3.7391,3.6989,3.6329,3.6182,3.5797,3.5103,3.4974,3.4536,3.3884,3.3716,3.3314,3.2596,3.2474,3.1911,3.0977,3.0783,3.0456,2.979,2.9388,2.9158,2.9023,2.843,2.813,2.8232,2.7958,2.7764,2.7798,2.8047,2.813,2.813,2.8196,2.8163,2.8196,2.8064,2.8081,2.8031,2.8015,2.8263,2.8147,2.8097,2.8048,2.7897,2.7832,2.7683,2.7467,2.7609,2.775,2.7695,2.7625,2.7535,2.724,2.7449,2.767,2.7696,2.782,2.7983,2.7945,2.794,2.7923,2.787,2.784,2.781,2.787,2.787,2.796,2.802,2.808,2.8199,2.8319,2.8319,2.8319,2.8379,2.8498,2.8648,2.8856,2.8916,2.8975,2.8975,2.8964,2.8993,2.8975,2.8975,2.8975,2.8975,2.8975,2.8975,2.8975,2.8975,2.8975,2.8391,2.8367,2.8445,2.8347,2.8234,2.8482,2.843,2.8205,2.8192,2.8192,2.8179,2.8192,2.8838,3.0178,3.0981,3.185,3.2782,3.4132,3.543,3.5994,3.6373,3.7472,3.8402,3.86,3.8325,3.7773,3.7405,3.7116,3.664,3.6235,3.5702,3.5039,3.4885,3.4288,3.3247,3.3233,3.2632,3.1609,3.1422,3.1031,3.0261,2.9604,2.9234,2.9048,2.8623,2.8444,2.8377,2.7744,2.7682,2.8159,2.7874,2.7733,2.7653,2.7595,2.7533,2.7566,2.7533,2.75,2.75,2.7533,2.75,2.75,2.7566,2.76,2.7849,2.7849,2.7932,2.8048,2.8147,2.8064,2.7982,2.8047,2.7996,2.7795,2.786,2.7952,2.7878,2.7957,2.8019,2.8051,2.8109,2.7985,2.7843,2.7756,2.7687,2.7514,2.7475,2.7475,2.7635,2.7639,2.7716,2.7767,2.784,2.796,2.802,2.802,2.805,2.808,2.817,2.8289,2.8558,2.8767,2.8886,2.8975,2.8904,2.8904,2.8964,2.8975,2.8975,2.8975,2.8975,2.8975,2.8975,2.8975,2.8975,2.7954,2.7895,2.808,2.8132,2.809,2.8423,2.8473,2.8232,2.8192,2.8192,2.8136,2.7981,2.8558,2.9677,3.0289,3.069,3.1298,3.2561,3.3585,3.4335,3.5527,3.681,3.7884,3.8362,3.8131,3.7234,3.6999,3.6565,3.5964,3.5489,3.4861,3.4316,3.4259,3.3667,3.282,3.2793,3.246,3.1534,3.0953,3.0332,2.9629,2.8697,2.8042,2.7897,2.7753,2.7913,2.7996,2.7712,2.7593,2.7557,2.7353,2.7266,2.7284,2.7261,2.72,2.72,2.72,2.72,2.72,2.72,2.72,2.72,2.72,2.73,2.7451,2.7484,2.7633,2.775,2.7832,2.7832,2.7865,2.7965,2.8015,2.7998,2.8107,2.8177,2.8001,2.7963,2.806,2.8154,2.8186,2.8134,2.786,2.786,2.7758,2.7652,2.7683,2.7665,2.7696,2.7582,2.7583,2.7674,2.76,2.7656,2.7704,2.7704,2.7769,2.7799,2.788,2.8,2.8223,2.8505,2.8528,2.8618,2.8725,2.8785,2.8785,2.8856,2.8975,2.8975,2.8975,2.8975,2.8945,2.8975,2.8975,2.7304,2.7096,2.7715,2.7782,2.7679,2.819,2.8257,2.805,2.7968,2.7968,2.7883,2.7601,2.7728,2.8136,2.9034,2.9146,2.8347,3.0578,3.1779,3.2864,3.4392,3.6086,3.6529,3.7587,3.7292,3.633,3.6114,3.5672,3.5081,3.4287,3.3481,3.3051,3.2936,3.2494,3.1647,3.1789,3.1809,3.0905,2.9987,2.925,2.8501,2.757,2.6829,2.6508,2.675,2.7223,2.7535,2.7596,2.7357,2.6633,2.6707,2.6879,2.6869,2.7059,2.7065,2.7,2.6967,2.7,2.7067,2.7034,2.7134,2.71,2.7167,2.72,2.7234,2.7267,2.7267,2.7334,2.72,2.73,2.7334,2.7517,2.7733,2.7916,2.8098,2.8014,2.7823,2.7718,2.7877,2.8147,2.8196,2.8211,2.8191,2.8191,2.8157,2.7929,2.7929,2.7929,2.7895,2.7837,2.7782,2.7765,2.7593,2.7339,2.737,2.737,2.7469,2.7547,2.7644,2.7743,2.7907,2.8084,2.8055,2.811,2.8349,2.8457,2.8457,2.8588,2.8767,2.8826,2.8707,2.8797,2.8916,2.8975,2.8975,2.757,2.7362,2.7628,2.7457,2.7178,2.7602,2.7556,2.7135,2.7135,2.7165,2.708,2.7008,2.6995,2.7177,2.749,2.7334,2.7207,2.8236,2.9146,3.1794,3.3479,3.4009,3.4351,3.5544,3.6109,3.544,3.5231,3.4887,3.4337,3.3555,3.288,3.1395,3.1307,3.0571,2.8857,2.9268,2.8678,2.7903,2.7559,2.7311,2.6876,2.6009,2.5483,2.5317,2.5345,2.5639,2.6095,2.6033,2.6092,2.6538,2.6989,2.7192,2.6985,2.6824,2.6691,2.6525,2.6429,2.638,2.6398,2.6633,2.68,2.6833,2.7,2.72,2.72,2.7167,2.7167,2.72,2.72,2.72,2.72,2.7267,2.74,2.75,2.7533,2.7568,2.7687,2.7966,2.8129,2.8243,2.8259,2.8242,2.82,2.8182,2.8209,2.8194,2.822,2.8203,2.8154,2.8137,2.81,2.8066,2.7878,2.7703,2.7672,2.7672,2.7672,2.7703,2.7675,2.7699,2.7848,2.7878,2.7947,2.7993,2.805,2.811,2.811,2.817,2.8319,2.8379,2.8457,2.8528,2.8648,2.8797,2.8934,2.7536,2.7232,2.7575,2.7372,2.7015,2.7391,2.7304,2.6859,2.6783,2.6783,2.6741,2.6613,2.6571,2.6783,2.6571,2.6571,2.6868,2.7249,2.8123,2.9732,3.1091,3.1587,3.1478,3.2314,3.2953,3.2904,3.2738,3.2491,3.2078,3.1488,3.0382,2.9516,2.9552,2.8916,2.7562,2.765,2.7734,2.7235,2.6459,2.6096,2.5845,2.5008,2.4558,2.4575,2.4374,2.4536,2.5662,2.566,2.6011,2.6626,2.708,2.7179,2.6969,2.685,2.6661,2.6401,2.6325,2.6234,2.6225,2.6298,2.6398,2.6432,2.6599,2.6633,2.6733,2.6833,2.6967,2.7,2.71,2.72,2.72,2.72,2.72,2.72,2.72,2.73,2.7484,2.7783,2.813,2.8229,2.8296,2.8279,2.8261,2.8161,2.8226,2.8237,2.8497,2.8512,2.8541,2.849,2.8496,2.8426,2.8254,2.8166,2.8117,2.81,2.8049,2.8015,2.796,2.7957,2.8033,2.7998,2.7948,2.7913,2.7847,2.7779,2.7779,2.784,2.7983,2.8097,2.8235,2.8247,2.8307,2.8433,2.8564,2.7534,2.7075,2.7398,2.7258,2.6871,2.7122,2.6994,2.6579,2.6571,2.6456,2.6498,2.6146,2.6146,2.6401,2.6146,2.6231,2.6626,2.7122,2.7532,2.8025,2.8909,2.9356,2.9397,2.9537,2.9536,2.946,3.0057,2.999,2.9522,2.8556,2.8449,2.7812,2.7469,2.7093,2.6989,2.6963,2.6686,2.6397,2.5753,2.544,2.5348,2.4584,2.4239,2.3998,2.3616,2.3896,2.4881,2.5258,2.5735,2.6728,2.6801,2.6691,2.6659,2.6779,2.6837,2.6519,2.636,2.6175,2.5994,2.5989,2.6029,2.6045,2.6112,2.613,2.6231,2.6432,2.6566,2.6733,2.6833,2.7067,2.71,2.7167,2.72,2.72,2.72,2.72,2.7234,2.7451,2.775,2.7965,2.7932,2.7916,2.8031,2.8098,2.8196,2.8329,2.8576,2.8725,2.8722,2.8703,2.8598,2.8628,2.8459,2.8584,2.8616,2.8565,2.8514,2.8411,2.8325,2.8289,2.8254,2.8109,2.8009,2.7737,2.7626,2.7648,2.7757,2.794,2.8044,2.8016,2.8177,2.8372,2.8283,2.8119,2.8282,2.763,2.7271,2.6927,2.6597,2.6294,2.6207,2.5982,2.5683,2.5732,2.5647,2.5647,2.5562,2.5604,2.5647,2.5604,2.5562,2.5817,2.6116,2.6528,2.7109,2.7688,2.7772,2.7772,2.773,2.7311,2.6951,2.7871,2.8701,2.8504,2.8169,2.7243,2.6533,2.6201,2.5673,2.4983,2.448,2.4811,2.4945,2.4552,2.4408,2.4303,2.4086,2.372,2.3472,2.2964,2.3179,2.3687,2.397,2.4475,2.58,2.5983,2.5949,2.5975,2.6279,2.6302,2.6044,2.5878,2.5717,2.5574,2.5674,2.567,2.5727,2.5876,2.6045,2.6078,2.6164,2.6231,2.6331,2.6566,2.68,2.68,2.6934,2.7167,2.7167,2.7167,2.7167,2.72,2.7267,2.7367,2.75,2.75,2.75,2.7699,2.7816,2.7898,2.7998,2.8229,2.8329,2.8362,2.8411,2.8394,2.8476,2.8591,2.8869,2.9114,2.9062,2.8979,2.8859,2.874,2.865,2.8548,2.8323,2.8132,2.8094,2.7991,2.7985,2.8082,2.8096,2.8092,2.8112,2.8309,2.8542,2.8398,2.8237,2.8381,2.7377,2.7003,2.6692,2.6355,2.6037,2.588,2.5632,2.5415,2.5391,2.5391,2.5391,2.5391,2.5391,2.5391,2.5391,2.5391,2.5391,2.5391,2.5775,2.6316,2.6358,2.6358,2.6401,2.6401,2.6018,2.5823,2.6588,2.709,2.6864,2.6522,2.6149,2.5659,2.5269,2.4705,2.4203,2.4138,2.3921,2.3848,2.38,2.38,2.3788,2.3692,2.3427,2.3212,2.2842,2.2941,2.3404,2.3452,2.3957,2.4904,2.5198,2.5162,2.5231,2.5317,2.54,2.5106,2.5229,2.5198,2.5123,2.5256,2.5495,2.5352,2.5506,2.5573,2.5641,2.5727,2.591,2.6063,2.6197,2.6398,2.6398,2.6566,2.67,2.69,2.6934,2.7034,2.7134,2.7167,2.7167,2.7167,2.7267,2.7334,2.7367,2.75,2.7566,2.7699,2.7898,2.7948,2.7981,2.8064,2.813,2.8296,2.8411,2.8593,2.8889,2.8922,2.8988,2.897,2.8935,2.8864,2.8844,2.859,2.8687,2.8785,2.8665,2.8294,2.8217,2.8177,2.8183,2.822,2.8361,2.8452,2.8417,2.8411,2.8542,2.7018,2.6584,2.6475,2.6186,2.5813,2.5716,2.5584,2.5427,2.5391,2.5391,2.5391,2.5391,2.5391,2.5391,2.5391,2.5391,2.5391,2.5391,2.5433,2.5476,2.5519,2.5433,2.5433,2.5391,2.5433,2.5476,2.5549,2.5391,2.5622,2.539,2.5119,2.5028,2.4775,2.4451,2.4222,2.415,2.4029,2.3884,2.38,2.38,2.374,2.3559,2.3414,2.3366,2.2973,2.2975,2.3392,2.3204,2.3525,2.4092,2.4351,2.4351,2.4351,2.4351,2.4159,2.3961,2.4571,2.4723,2.4778,2.4839,2.5112,2.5091,2.5067,2.5091,2.5202,2.5404,2.5607,2.5828,2.5962,2.6011,2.6045,2.6112,2.6264,2.6465,2.6599,2.6666,2.6833,2.6934,2.7034,2.7067,2.7134,2.72,2.7234,2.7267,2.7367,2.74,2.7566,2.76,2.7666,2.7766,2.7865,2.8064,2.8163,2.8229,2.8395,2.8494,2.8593,2.8675,2.8691,2.8657,2.8805,2.8869,2.8952,2.8916,2.8794,2.8441,2.8381,2.8408,2.8597,2.8648,2.8477,2.8492,2.8676,2.8621,2.8593,2.6861,2.6548,2.6078,2.5837,2.5752,2.5547,2.5439,2.5403,2.5391,2.5391,2.5391,2.5391,2.5391,2.5391,2.5391,2.5391,2.5391,2.5391,2.5391,2.5391,2.5391,2.5391,2.5391,2.5391,2.5391,2.5391,2.5391,2.5391,2.5343,2.5138,2.5029,2.4981,2.48,2.4487,2.4342,2.4318,2.4053,2.3872,2.3824,2.3812,2.3764,2.3571,2.3463,2.3306,2.2995,2.2796,2.2961,2.2779,2.2893,2.3438,2.355,2.355,2.355,2.355,2.3141,2.3065,2.3501,2.4345,2.4448,2.4506,2.4645,2.4809,2.4911,2.4973,2.5174,2.5237,2.5373,2.5187,2.5487,2.5685,2.5768,2.591,2.6063,2.613,2.6197,2.6213,2.6347,2.6633,2.6733,2.68,2.68,2.7,2.7134,2.7167,2.72,2.72,2.7234,2.7267,2.7334,2.75,2.7566,2.7733,2.7816,2.7865,2.7932,2.7998,2.8163,2.8312,2.8362,2.8395,2.856,2.8692,2.8692,2.8624,2.8555,2.8635,2.8648,2.8762,2.9045,2.9059,2.8888,2.8991,2.9179,2.9023,2.8764,2.6246,2.6114,2.5928,2.5704,2.556,2.5439,2.5391,2.5391,2.5391,2.5391,2.5391,2.5391,2.5391,2.5391,2.5391,2.5391,2.5391,2.5391,2.5391,2.5391,2.5391,2.5391,2.5391,2.5391,2.5391,2.5391,2.5391,2.5391,2.5343,2.5306,2.5222,2.5198,2.5102,2.4945,2.462,2.4644,2.4499,2.4294,2.4113,2.3957,2.3812,2.3704,2.3631,2.3607,2.314,2.2949,2.2804,2.2502,2.2433,2.2781,2.2781,2.2781,2.2781,2.2781,2.2595,2.2433,2.2744,2.3257,2.3637,2.3976,2.4249,2.4503,2.4736,2.5064,2.5435,2.5579,2.5613,2.5642,2.5569,2.555,2.551,2.5527,2.5656,2.5742,2.5824,2.5928,2.6011,2.6179,2.6365,2.6432,2.6499,2.67,2.69,2.7,2.7067,2.72,2.72,2.7234,2.7234,2.7267,2.7334,2.74,2.7434,2.7467,2.75,2.7566,2.7716,2.7865,2.7948,2.8048,2.8263,2.8362,2.8329,2.8395,2.8378,2.8542,2.879,2.8987,2.9132,2.9232,2.9299,2.9299,2.9299,2.9265,2.9074,2.568,2.5692,2.5692,2.5572,2.5391,2.5391,2.5391,2.5391,2.5391,2.5391,2.5391,2.5391,2.5391,2.5391,2.5391,2.5391,2.5391,2.5391,2.5391,2.5391,2.5391,2.5391,2.5391,2.5391,2.5391,2.5391,2.5391,2.5391,2.5391,2.5379,2.5367,2.5391,2.5331,2.5198,2.5053,2.4921,2.4776,2.4403,2.4234,2.4041,2.3848,2.38,2.374,2.3571,2.3333,2.3058,2.2925,2.2562,2.2346,2.2334,2.2371,2.2408,2.2408,2.2408,2.2408,2.2296,2.2484,2.2571,2.3001,2.3364,2.3862,2.425,2.4713,2.5242,2.5643,2.5912,2.6003,2.5944,2.5798,2.5666,2.5559,2.5408,2.5427,2.5523,2.5531,2.5656,2.5794,2.5895,2.5996,2.6063,2.6164,2.6298,2.6532,2.6733,2.6934,2.7134,2.72,2.7167,2.7167,2.7167,2.7234,2.7267,2.7267,2.73,2.73,2.7334,2.7417,2.7484,2.755,2.765,2.7832,2.7932,2.7932,2.7998,2.813,2.8296,2.8494,2.8856,2.9152,2.9152,2.9152,2.9283,2.9299,2.9266,2.9299,2.5415,2.5427,2.5427,2.5415,2.5391,2.5391,2.5391,2.5391,2.5391,2.5391,2.5391,2.5391,2.5391,2.5391,2.5391,2.5391,2.5391,2.5391,2.5391,2.5391,2.5391,2.5391,2.5391,2.5391,2.5391,2.5391,2.5391,2.5391,2.5391,2.5391,2.5391,2.5391,2.5391,2.5234,2.5114,2.5053,2.4788,2.4451,2.427,2.4089,2.3884,2.3788,2.3704,2.3463,2.3225,2.2973,2.2744,2.2465,2.2345,2.2345,2.2308,2.2308,2.2308,2.2308,2.2308,2.2308,2.2308,2.2372,2.2583,2.2855,2.3358,2.4073,2.4806,2.5371,2.5733,2.5915,2.5976,2.607,2.6061,2.6003,2.5886,2.5725,2.5569,2.555,2.5515,2.5436,2.5527,2.5573,2.5641,2.5693,2.5794,2.5928,2.6063,2.6264,2.6566,2.6767,2.7034,2.7034,2.71,2.7134,2.7167,2.72,2.72,2.72,2.72,2.7267,2.73,2.7334,2.7351,2.7334,2.7367,2.7434,2.76,2.7666,2.7799,2.7998,2.8163,2.8428,2.8659,2.8873,2.8972,2.9021,2.9119,2.9152,2.9218,2.5391,2.5391,2.5391,2.5391,2.5391,2.5391,2.5391,2.5391,2.5391,2.5391,2.5391,2.5391,2.5391,2.5391,2.5391,2.5391,2.5391,2.5391,2.5391,2.5391,2.5391,2.5391,2.5391,2.5391,2.5391,2.5391,2.5391,2.5391,2.5391,2.5391,2.5391,2.5391,2.5391,2.5355,2.5258,2.5186,2.4897,2.4571,2.4391,2.4246,2.3872,2.38,2.3752,2.3643,2.3263,2.3167,2.3043,2.2574,2.2478,2.2453,2.2381,2.2332,2.2308,2.2308,2.2308,2.2308,2.2308,2.2308,2.2334,2.252,2.298,2.3964,2.4793,2.5422,2.5776,2.6157,2.6387,2.6466,2.6377,2.6289,2.6266,2.6032,2.5813,2.5754,2.5608,2.5418,2.5383,2.5495,2.5411,2.5542,2.5517,2.5524,2.5659,2.5794,2.6097,2.6398,2.6666,2.69,2.6934,2.6967,2.7,2.7067,2.7067,2.7134,2.7134,2.7167,2.72,2.72,2.72,2.72,2.72,2.72,2.7334,2.74,2.7417,2.7566,2.7733,2.7965,2.8196,2.8428,2.8593,2.8692,2.8823,2.8988,2.9053,2.5391,2.5391,2.5391,2.5391,2.5391,2.5391,2.5391,2.5391,2.5391,2.5391,2.5391,2.5391,2.5391,2.5391,2.5391,2.5391,2.5391,2.5391,2.5391,2.5391,2.5391,2.5391,2.5391,2.5391,2.5391,2.5391,2.5391,2.5391,2.5391,2.5391,2.5391,2.5391,2.5391,2.5379,2.5379,2.5367,2.5126,2.4716,2.4547,2.4318,2.3884,2.38,2.3728,2.3655,2.3345,2.3239,2.314,2.284,2.2635,2.2598,2.2526,2.2393,2.2332,2.2308,2.2308,2.2308,2.2308,2.2308,2.2334,2.252,2.2893,2.3733,2.4522,2.5245,2.585,2.618,2.6263,2.6656,2.6569,2.6488,2.6546,2.6369,2.6179,2.6105,2.5857,2.5681,2.5637,2.5648,2.5472,2.5388,2.5364,2.5368,2.5352,2.5521,2.5839,2.6127,2.6347,2.6499,2.6532,2.6599,2.6682,2.6767,2.6867,2.6967,2.7034,2.71,2.7134,2.72,2.72,2.72,2.72,2.7167,2.7167,2.7267,2.7267,2.72,2.7334,2.76,2.7832,2.8064,2.8229,2.8395,2.8527,2.8659,2.8725,2.5391,2.5391,2.5391,2.5391,2.5391,2.5391,2.5391,2.5391,2.5391,2.5391,2.5391,2.5391,2.5391,2.5391,2.5391,2.5391,2.5391,2.5391,2.5391,2.5391,2.5391,2.5391,2.5391,2.5391,2.5391,2.5391,2.5391,2.5391,2.5391,2.5391,2.5391,2.5391,2.5391,2.5391,2.5391,2.5391,2.5114,2.468,2.462,2.4282,2.3969,2.3836,2.3704,2.3571,2.3414,2.3321,2.3249,2.3082,2.2915,2.2756,2.2683,2.2514,2.232,2.2308,2.2308,2.2308,2.2308,2.2308,2.2346,2.2669,2.3042,2.3475,2.423,2.4857,2.5263,2.5593,2.5983,2.6349,2.6364,2.6561,2.6656,2.6669,2.6487,2.6413,2.6179,2.6003,2.5974,2.5807,2.5652,2.5549,2.5505,2.5432,2.5261,2.5246,2.5565,2.5869,2.6026,2.6112,2.6145,2.628,2.6414,2.6481,2.6599,2.6633,2.6733,2.6967,2.7067,2.7134,2.71,2.7,2.7034,2.7067,2.71,2.7167,2.72,2.72,2.72,2.7234,2.7467,2.7733,2.7998,2.8163,2.8263,2.8329,2.8395,2.5391,2.5391,2.5391,2.5391,2.5391,2.5391,2.5391,2.5391,2.5391,2.5391,2.5391,2.5391,2.5391,2.5391,2.5391,2.5391,2.5391,2.5391,2.5391,2.5391,2.5391,2.5391,2.5391,2.5391,2.5391,2.5391,2.5391,2.5391,2.5391,2.5391,2.5391,2.5391,2.5391,2.5391,2.5391,2.5379,2.5186,2.4885,2.468,2.4415,2.4089,2.3897,2.3752,2.3655,2.3511,2.3439,2.349,2.3312,2.3094,2.2949,2.2864,2.2611,2.2381,2.2332,2.2308,2.2308,2.2308,2.2308,2.2296,2.2483,2.2781,2.334,2.3859,2.4488,2.5079,2.5263,2.563,2.5873,2.5983,2.6202,2.6401,2.6496,2.6445,2.6713,2.6574,2.6398,2.6281,2.6076,2.59,2.5871,2.5827,2.5763,2.5666,2.5491,2.5687,2.572,2.588,2.5802,2.5775,2.6045,2.6213,2.6213,2.6264,2.6264,2.6365,2.6566,2.6633,2.6633,2.6599,2.6532,2.6633,2.68,2.6934,2.6967,2.71,2.72,2.7134,2.7134,2.72,2.74,2.7666,2.7832,2.7882,2.7981,2.8048,2.5391,2.5391,2.5391,2.5391,2.5391,2.5391,2.5391,2.5391,2.5391,2.5391,2.5391,2.5391,2.5391,2.5391,2.5391,2.5391,2.5391,2.5391,2.5391,2.5391,2.5391,2.5391,2.5391,2.5391,2.5391,2.5391,2.5391,2.5391,2.5391,2.5391,2.5391,2.5391,2.5391,2.5391,2.5391,2.5367,2.5258,2.4969,2.4728,2.4451,2.4174,2.3969,2.3812,2.3752,2.368,2.3619,2.3655,2.3538,2.33,2.3191,2.2983,2.273,2.255,2.2429,2.2393,2.2345,2.2308,2.2308,2.2296,2.2296,2.2707,2.3327,2.3661,2.4193,2.4784,2.4968,2.5226,2.5446,2.558,2.5836,2.6093,2.618,2.6298,2.6532,2.6583,2.6395,2.6387,2.6184,2.621,2.6181,2.6143,2.6114,2.6041,2.5959,2.5912,2.5834,2.5741,2.5618,2.5527,2.5749,2.5918,2.5922,2.5925,2.5959,2.6011,2.6145,2.6164,2.6097,2.613,2.6164,2.6264,2.6465,2.6633,2.6767,2.67,2.6733,2.6967,2.7067,2.71,2.7167,2.73,2.7434,2.7517,2.7617,2.7716,2.5391,2.5391,2.5391,2.5391,2.5391,2.5391,2.5391,2.5391,2.5391,2.5391,2.5391,2.5391,2.5391,2.5391,2.5391,2.5391,2.5391,2.5391,2.5391,2.5391,2.5391,2.5391,2.5391,2.5391,2.5391,2.5391,2.5391,2.5391,2.5391,2.5391,2.5391,2.5391,2.5391,2.5391,2.5391,2.5367,2.527,2.5065,2.4824,2.4595,2.4379,2.4029,2.3957,2.3897,2.3836,2.38,2.38,2.3728,2.3535,2.3427,2.333,2.3068,2.2864,2.2707,2.2538,2.2405,2.2345,2.2345,2.2308,2.2308,2.2632,2.3178,2.3414,2.3896,2.4377,2.471,2.4894,2.5079,2.5189,2.5433,2.569,2.5763,2.5836,2.6042,2.6225,2.6255,2.6364,2.6387,2.6467,2.6452,2.6401,2.6349,2.6275,2.6208,2.6137,2.6061,2.597,2.58,2.5677,2.5481,2.5622,2.5504,2.5527,2.5618,2.567,2.5757,2.5775,2.5727,2.5828,2.5876,2.6011,2.6112,2.628,2.6313,2.6197,2.6264,2.6566,2.68,2.6967,2.7,2.6967,2.72,2.7318,2.7334,2.74,2.5391,2.5391,2.5391,2.5391,2.5391,2.5391,2.5391,2.5391,2.5391,2.5391,2.5391,2.5391,2.5391,2.5391,2.5391,2.5391,2.5391,2.5391,2.5391,2.5391,2.5391,2.5391,2.5391,2.5391,2.5391,2.5391,2.5391,2.5391,2.5391,2.5391,2.5391,2.5391,2.5391,2.5391,2.5391,2.5391,2.5331,2.521,2.4981,2.4812,2.4607,2.4294,2.4246,2.421,2.3969,2.3945,2.3993,2.3872,2.3619,2.3309,2.3354,2.3188,2.2756,2.284,2.2891,2.2661,2.26,2.2514,2.2345,2.2308,2.2532,2.3005,2.3265,2.3846,2.4341,2.4599,2.4673,2.4784,2.4857,2.5079,2.5263,2.5359,2.5469,2.5616,2.58,2.5946,2.6019,2.6101,2.6198,2.6256,2.6207,2.6359,2.6322,2.6423,2.6373,2.6335,2.6245,2.602,2.5836,2.5676,2.5549,2.5467,2.5442,2.5584,2.5358,2.5366,2.5385,2.5356,2.5506,2.5607,2.5708,2.5809,2.5876,2.5944,2.5928,2.6029,2.6231,2.6432,2.6633,2.6599,2.6566,2.6867,2.71,2.7134,2.7167,2.5391,2.5391,2.5391,2.5391,2.5391,2.5391,2.5343,2.527,2.5343,2.5391,2.5391,2.5391,2.5391,2.5391,2.5391,2.5391,2.5391,2.5391,2.5391,2.5391,2.5391,2.5391,2.5391,2.5391,2.5391,2.5391,2.5391,2.5391,2.5391,2.5391,2.5391,2.5391,2.5391,2.5391,2.5391,2.5391,2.5391,2.5294,2.5162,2.5041,2.4836,2.4583,2.4535,2.4487,2.415,2.4113,2.4138,2.3945,2.3619,2.3393,2.3535,2.3378,2.3046,2.3082,2.3084,2.2891,2.2879,2.2745,2.2538,2.2478,2.263,2.2856,2.3079,2.36,2.4105,2.4488,2.4562,2.4673,2.4636,2.471,2.4857,2.5005,2.5115,2.5263,2.5396,2.5543,2.5653,2.5726,2.5786,2.5859,2.5991,2.6225,2.6357,2.6509,2.6517,2.6272,2.6243,2.6279,2.6111,2.5956,2.5816,2.574,2.5681,2.5706,2.5418,2.5261,2.5315,2.5305,2.5221,2.5337,2.5404,2.5438,2.5506,2.5641,2.576,2.5828,2.5928,2.6063,2.6231,2.6164,2.6213,2.6432,2.6767,2.7034,2.71,2.5391,2.5391,2.5391,2.5391,2.5391,2.5391,2.5258,2.5041,2.5246,2.5343,2.5306,2.5379,2.5379,2.5331,2.5355,2.5391,2.5391,2.5391,2.5391,2.5391,2.5391,2.5391,2.5391,2.5391,2.5391,2.5391,2.5391,2.5391,2.5391,2.5391,2.5391,2.5391,2.5391,2.5391,2.5391,2.5391,2.5391,2.5355,2.5222,2.5102,2.5005,2.48,2.462,2.4632,2.4427,2.4234,2.4174,2.4017,2.3812,2.3788,2.3752,2.3619,2.3439,2.3297,2.3215,2.3118,2.3118,2.2961,2.278,2.2671,2.2727,2.2842,2.2905,2.3265,2.3711,2.423,2.4377,2.4562,2.4599,2.4599,2.4747,2.4784,2.4857,2.4931,2.5042,2.5115,2.5189,2.5286,2.5433,2.5506,2.5653,2.5887,2.6056,2.6166,2.6166,2.5977,2.6036,2.6241,2.6207,2.607,2.606,2.597,2.5997,2.5944,2.571,2.5535,2.5432,2.5364,2.5247,2.5188,2.5364,2.5271,2.51,2.5288,2.5491,2.5524,2.5592,2.5727,2.5794,2.5861,2.5895,2.5996,2.6298,2.6682,2.69,2.5391,2.5391,2.5391,2.5391,2.5391,2.5391,2.5246,2.5017,2.5065,2.4969,2.4885,2.5162,2.5282,2.515,2.5306,2.5367,2.5391,2.5391,2.5391,2.5391,2.5391,2.5391,2.5391,2.5391,2.5391,2.5391,2.5391,2.5391,2.5391,2.5391,2.5391,2.5391,2.5391,2.5391,2.5391,2.5391,2.5391,2.5379,2.5331,2.5258,2.5222,2.509,2.4957,2.4945,2.4812,2.4511,2.4391,2.4234,2.3872,2.3619,2.374,2.374,2.3704,2.3671,2.355,2.3406,2.3306,2.32,2.3034,2.2864,2.2834,2.2813,2.2842,2.298,2.3302,2.3822,2.4193,2.4414,2.4562,2.4525,2.4525,2.4525,2.4525,2.4562,2.4599,2.4673,2.471,2.4857,2.5005,2.5152,2.5263,2.541,2.558,2.569,2.58,2.5822,2.5822,2.5918,2.5955,2.5902,2.6193,2.6192,2.6327,2.6231,2.5982,2.5822,2.5769,2.5666,2.5549,2.5491,2.5383,2.5286,2.5203,2.5115,2.5187,2.5255,2.5288,2.5255,2.5322,2.5491,2.5592,2.5693,2.5828,2.613,2.6432,2.5391,2.5391,2.5391,2.5391,2.5379,2.527,2.5065,2.4849,2.4812,2.4595,2.4354,2.4764,2.5005,2.4981,2.5162,2.5331,2.5367,2.5391,2.5391,2.5391,2.5391,2.5391,2.5391,2.5391,2.5391,2.5391,2.5391,2.5391,2.5391,2.5391,2.5391,2.5391,2.5391,2.5391,2.5391,2.5391,2.5391,2.5391,2.5391,2.5391,2.5391,2.527,2.5222,2.5222,2.5041,2.4752,2.4511,2.433,2.3993,2.3716,2.3752,2.3788,2.3788,2.3764,2.3716,2.3631,2.3559,2.3463,2.3261,2.308,2.2961,2.2943,2.2908,2.3075,2.3104,2.358,2.3665,2.3875,2.3909,2.3933,2.3933,2.3896,2.3896,2.3933,2.3933,2.397,2.397,2.4044,2.4119,2.4179,2.4253,2.429,2.4401,2.4438,2.4586,2.4881,2.5028,2.5433,2.5506,2.5726,2.6038,2.633,2.6424,2.6473,2.631,2.6193,2.6135,2.6018,2.59,2.5798,2.571,2.5461,2.5305,2.5261,2.5188,2.5119,2.51,2.51,2.51,2.5221,2.5337,2.5404,2.5524,2.5674,2.5959,2.5379,2.5355,2.5343,2.5318,2.5258,2.5053,2.48,2.4559,2.4535,2.427,2.3945,2.4354,2.468,2.4873,2.5017,2.5198,2.5331,2.5379,2.5391,2.5391,2.5391,2.5391,2.5391,2.5391,2.5391,2.5391,2.5391,2.5391,2.5391,2.5391,2.5391,2.5391,2.5391,2.5391,2.5391,2.5391,2.5391,2.5391,2.5391,2.5391,2.5391,2.5391,2.5391,2.5294,2.5138,2.4873,2.4595,2.433,2.4065,2.3909,2.3788,2.38,2.38,2.38,2.38,2.3752,2.374,2.3631,2.3487,2.3366,2.3261,2.3191,2.313,2.3152,2.3199,2.3252,2.3342,2.3367,2.3391,2.3427,2.3427,2.3427,2.3427,2.3464,2.3464,2.3451,2.3451,2.3451,2.3438,2.3438,2.3475,2.3475,2.3475,2.3475,2.3624,2.3933,2.423,2.4636,2.5005,2.5373,2.5721,2.6117,2.6416,2.6417,2.6502,2.6515,2.6457,2.6369,2.6252,2.6135,2.5959,2.5637,2.5432,2.5418,2.533,2.5188,2.51,2.51,2.51,2.5144,2.5168,2.5235,2.5255,2.5404,2.5517,2.527,2.5077,2.5077,2.4957,2.4752,2.468,2.4511,2.4294,2.427,2.4089,2.3945,2.4101,2.4415,2.468,2.4921,2.5138,2.5367,2.5391,2.5391,2.5391,2.5391,2.5391,2.5391,2.5391,2.5391,2.5391,2.5391,2.5391,2.5391,2.5391,2.5391,2.5391,2.5391,2.5391,2.5391,2.5391,2.5391,2.5391,2.5391,2.5391,2.5391,2.5391,2.5391,2.5294,2.5138,2.4873,2.4595,2.433,2.4065,2.3884,2.38,2.38,2.38,2.38,2.38,2.38,2.38,2.3764,2.3655,2.3547,2.343,2.3393,2.3297,2.3193,2.3188,2.3152,2.322,2.321,2.3265,2.3379,2.3403,2.3403,2.3403,2.3366,2.3353,2.3328,2.3302,2.3302,2.3302,2.329,2.3302,2.3302,2.3302,2.3302,2.334,2.3525,2.3562,2.4007,2.4525,2.4931,2.5336,2.574,2.6166,2.6655,2.6823,2.6837,2.6778,2.6691,2.6588,2.6427,2.6164,2.574,2.5593,2.5696,2.5447,2.5232,2.5159,2.5257,2.5232,2.5261,2.5144,2.5134,2.5134,2.5183,2.5343]},{"header":{"parameterUnit":"m.s-1","parameterCategory":1,"la1":31.0,"la2":29.5877,"lo1":-88.7671,"lo2":-86.6584,"dy":0.0162,"dx":0.0185,"nx":115,"ny":88,"refTime":"2023-04-23T18:00:00:Z","depth":0,"parameterNumber":3,"parameterNumberName":"V-component_of_WINDS"},"data":[0.0,0.0,0.0,0.0,0.0,0.0,0.0,0.0,0.0,0.0,0.0,0.0,0.0,0.0,0.0,0.0,0.0,0.0,0.0,0.0,0.0,0.0,0.0,0.0,0.0,0.0,0.0,0.0,0.0,0.0,0.0,0.0,0.0,0.0,0.0,0.0,0.0,0.0,0.0,0.0,0.0,0.0,0.0,0.0,0.0,0.0,0.0,0.0,0.0,0.0,0.0,0.0,0.0,0.0,0.0,0.0,0.0,0.0,0.0,0.0,0.0,0.0,0.0,0.0,0.0,0.0,0.0,0.0,0.0,0.0,0.0,0.0,0.0,0.0,0.0,0.0,0.0,0.0,0.0,0.0,0.0,0.0,0.0,0.0,0.0,0.0,0.0,0.0,0.0,0.0,0.0,0.0,0.0,0.0,0.0,0.0,0.0,0.0,0.0,0.0,0.0,0.0,0.0,0.0,0.0,0.0,0.0,0.0,0.0,0.0,0.0,0.0,0.0,0.0,0.0,0.0,0.0,0.0,0.0,0.0,0.0,0.0,0.0,0.0,0.0,0.0,0.0,0.0,0.0,0.0,0.0,0.0,0.0,0.0,0.0,0.0,0.0,0.0,0.0,0.0,0.0,0.0,0.0,0.0,0.0,0.0,0.0,0.0,0.0,0.0,0.0,0.0,0.0,0.0,0.0,0.0,0.0,0.0,0.0,0.0,0.0,0.0,0.0,0.0,0.0,0.0,0.0,0.0,0.0,0.0,0.0,0.0,0.0,0.0,0.0,0.0,0.0,0.0,0.0,0.0,0.0,0.0,0.0,0.0,0.0,0.0,0.0,0.0,0.0,0.0,0.0,0.0,0.0,0.0,0.0,0.0,0.0,0.0,0.0,0.0,0.0,0.0,0.0,0.0,0.0,0.0,0.0,0.0,0.0,0.0,0.0,0.0,0.0,0.0,0.0,0.0,0.0,0.0,0.0,0.0,0.0,0.0,0.0,0.0,0.0,0.0,0.0,0.0,0.0,0.0,0.0,0.0,0.0,0.0,0.0,0.0,0.0,0.0,0.0,0.0,0.0,0.0,0.0,0.0,0.0,0.0,0.0,0.0,0.0,0.0,0.0,0.0,0.0,0.0,0.0,0.0,0.0,0.0,0.0,0.0,0.0,0.0,0.0,0.0,0.0,0.0,0.0,0.0,0.0,0.0,0.0,0.0,0.0,0.0,0.0,0.0,0.0,0.0,0.0,0.0,0.0,0.0,0.0,0.0,0.0,0.0,0.0,0.0,0.0,0.0,0.0,0.0,0.0,0.0,0.0,0.0,0.0,0.0,0.0,0.0,0.0,0.0,0.0,0.0,0.0,0.0,0.0,0.0,0.0,0.0,0.0,0.0,0.0,0.0,0.0,0.0,0.0,0.0,0.0,0.0,0.0,0.0,0.0,0.0,0.0,0.0,0.0,0.0,0.0,0.0,0.0,0.0,0.0,0.0,0.0,0.0,0.0,0.0,0.0,0.0,0.0,0.0,0.0,0.0,0.0,0.0,0.0,0.0,0.0,0.0,0.0,0.0,0.0,0.0,0.0,0.0,0.0,0.0,0.0,0.0,0.0,0.0,0.0,0.0,0.0,0.0,0.0,0.0,0.0,0.0,0.0,0.0,0.0,0.0,0.0,0.0,0.0,0.0,0.0,0.0,0.0,0.0,0.0,0.0,0.0,0.0,0.0,0.0,0.0,0.0,0.0,0.0,0.0,0.0,0.0,0.0,0.0,0.0,0.0,0.0,0.0,0.0,0.0,0.0,0.0,0.0,0.0,0.0,0.0,0.0,0.0,0.0,0.0,0.0,0.0,0.0,0.0,0.0,0.0,0.0,0.0,0.0,0.0,0.0,0.0,0.0,0.0,0.0,0.0,0.0,0.0,0.0,0.0,0.0,0.0,0.0,0.0,0.0,0.0,0.0,0.0,0.0,0.0,0.0,0.0,0.0,0.0,0.0,0.0,0.0,0.0,0.0,0.0,0.0,0.0,0.0,0.0,0.0,0.0,0.0,0.0,0.0,0.0,0.0,0.0,0.0,0.0,0.0,0.0,0.0,0.0,0.0,0.0,0.0,0.0,0.0,0.0,0.0,0.0,0.0,0.0,0.0,0.0,0.0,0.0,0.0,0.0,0.0,0.0,0.0,0.0,0.0,0.0,0.0,0.0,0.0,0.0,0.0,0.0,0.0,0.0,0.0,0.0,0.0,0.0,0.0,0.0,0.0,0.0,0.0,0.0,0.0,0.0,0.0,0.0,0.0,0.0,0.0,0.0,0.0,0.0,0.0,0.0,0.0,0.0,0.0,0.0,0.0,0.0,0.0,0.0,0.0,0.0,0.0,0.0,0.0,0.0,0.0,0.0,0.0,0.0,0.0,0.0,0.0,0.0,0.0,0.0,0.0,0.0,0.0,0.0,0.0,0.0,0.0,0.0,0.0,0.0,0.0,0.0,0.0,0.0,0.0,0.0,0.0,0.0,0.0,0.0,0.0,0.0,0.0,0.0,0.0,0.0,0.0,0.0,0.0,0.0,0.0,0.0,0.0,0.0,0.0,0.0,0.0,0.0,0.0,0.0,0.0,0.0,0.0,0.0,0.0,0.0,0.0,0.0,0.0,0.0,0.0,0.0,0.0,0.0,0.0,0.0,0.0,0.0,0.0,0.0,0.0,0.0,0.0,0.0,0.0,0.0,0.0,0.0,0.0,0.0,0.0,0.0,0.0,0.0,0.0,0.0,0.0,0.0,0.0,0.0,0.0,0.0,0.0,0.0,0.0,0.0,0.0,0.0,0.0,0.0,0.0,0.0,0.0,0.0,0.0,0.0,0.0,0.0,0.0,0.0,0.0,0.0,0.0,0.0,0.0,0.0,0.0,0.0,0.0,0.0,0.0,0.0,0.0,0.0,0.0,0.0,0.0,0.0,0.0,0.0,0.0,0.0,0.0,0.0,0.0,0.0,0.0,0.0,0.0,0.0,0.0,0.0,0.0,0.0,0.0,0.0,0.0,0.0,0.0,0.0,0.0,0.0,0.0,0.0,0.0,0.0,0.0,0.0,0.0,0.0,0.0,0.0,0.0,0.0,0.0,0.0,0.0,0.0,0.0,0.0,0.0,0.0,0.0,0.0,0.0,0.0,0.0,0.0,0.0,0.0,0.0,0.0,0.0,0.0,0.0,0.0,0.0,0.0,0.0,0.0,0.0,0.0,0.0,0.0,0.0,0.0,0.0,0.0,0.0,0.0,0.0,0.0,0.0,0.0,0.0,0.0,0.0,0.0,0.0,0.0,0.0,0.0,0.0,0.0,0.0,0.0,0.0,0.0,0.0,0.0,0.0,0.0,0.0,0.0,0.0,0.0,0.0,0.0,0.0,0.0,0.0,0.0,0.0,0.0,0.0,0.0,0.0,0.0,0.0,0.0,0.0,0.0,0.0,0.0,0.0,0.0,0.0,0.0,0.0,0.0,0.0,0.0,0.0,0.0,0.0,0.0,0.0,0.0,0.0,0.0,0.0,0.0,0.0,0.0,0.0,0.0,0.0,0.0,0.0,0.0,0.0,0.0,0.0,0.0,0.0,0.0,0.0,0.0,0.0,0.0,0.0,0.0,0.0,0.0,0.0,0.0,0.0,0.0,0.0,0.0,0.0,0.0,0.0,0.0,0.0,0.0,0.0,0.0,0.0,0.0,0.0,0.0,0.0,0.0,0.0,0.0,0.0,0.0,0.0,0.0,0.0,0.0,0.0,0.0,0.0,0.0,0.0,0.0,0.0,0.0,0.0,0.0,0.0,0.0,0.0,0.0,0.0,0.0,0.0,0.0,0.0,0.0,0.0,0.0,0.0,0.0,0.0,0.0,0.0,0.0,0.0,0.0,0.0,0.0,0.0,0.0,0.0,0.0,0.0,0.0,0.0,0.0,0.0,0.0,0.0,0.0,0.0,0.0,0.0,0.0,0.0,0.0,0.0,0.0,0.0,0.0,0.0,0.0,0.0,0.0,0.0,0.0,0.0,0.0,0.0,0.0,0.0,0.0,0.0,0.0,0.0,0.0,0.0,0.0,0.0,0.0,0.0,0.0,0.0,0.0,0.0,0.0,0.0,0.0,0.0,0.0,0.0,0.0,0.0,0.0,0.0,0.0,0.0,0.0,0.0,0.0,0.0,0.0,0.0,0.0,0.0,0.0,0.0,0.0,0.0,0.0,0.0,0.0,0.0,0.0,0.0,0.0,0.0,0.0,0.0,0.0,0.0,0.0,0.0,1.3823,0.0,0.0,0.0,0.0,0.0,0.0,0.0,0.0,0.0,0.0,0.0,0.0,0.0,0.0,0.0,0.0,0.0,0.0,0.0,0.0,0.0,0.0,0.0,0.0,0.0,0.0,0.0,0.0,0.0,0.0,0.0,0.0,0.0,0.0,0.0,0.0,0.0,0.0,0.0,0.0,0.0,0.0,0.0,0.0,0.0,0.0,0.0,0.0,0.0,0.0,0.0,0.0,0.0,0.0,0.0,0.0,0.0,0.0,0.0,0.0,0.0,0.0,0.0,0.0,0.0,0.0,0.0,0.0,0.0,0.0,0.0,0.0,0.0,0.0,0.0,0.0,0.0,0.0,0.0,0.0,0.0,0.0,0.0,0.0,0.0,0.0,0.0,0.0,0.0,0.0,0.0,0.0,0.0,0.0,0.0,0.0,0.0,0.0,0.0,0.0,0.0,0.0,0.0,0.0,0.0,0.0,0.0,0.0,0.0,0.0,1.0494,1.1731,1.0604,1.159,1.5057,0.0,0.0,0.0,0.0,0.0,0.0,0.0,0.0,0.0,0.0,0.0,0.0,0.0,0.0,0.0,0.0,0.0,0.0,0.0,0.0,0.0,0.0,0.0,0.0,0.0,0.0,0.0,0.0,0.0,0.0,0.0,0.0,0.0,0.0,0.0,0.0,0.0,0.0,0.0,0.0,0.0,0.0,0.0,0.0,0.0,0.0,0.0,0.0,0.0,0.0,0.0,0.0,0.0,0.0,0.0,0.0,0.0,0.0,0.0,0.0,0.0,0.0,0.0,0.0,0.0,0.0,0.0,0.0,0.0,0.0,0.0,0.0,0.0,0.0,0.0,0.0,0.0,0.0,0.0,0.0,0.0,0.0,0.0,0.0,0.0,0.0,0.0,0.0,0.0,0.0,0.0,0.0,0.0,0.0,0.0,0.0,0.0,0.0,0.0,0.0,0.0,0.0,0.0,0.0,0.0,0.0,0.0,0.0,0.0,0.0,0.0,0.0,1.1669,1.2913,1.6977,0.0,0.0,0.0,0.0,0.0,0.0,0.0,0.0,0.0,0.0,0.0,0.0,0.0,0.0,0.0,0.0,0.0,0.0,0.0,0.0,0.0,0.0,0.0,0.0,0.0,0.0,0.0,0.0,0.0,0.0,0.0,0.0,0.0,0.0,0.0,0.0,0.0,0.0,0.0,0.0,0.0,0.0,0.0,0.0,0.0,0.0,0.0,0.0,0.0,0.0,0.0,0.0,0.0,0.0,0.0,0.0,0.0,0.0,0.0,0.0,0.0,0.0,0.0,0.0,0.0,0.0,0.0,0.0,0.0,0.0,0.0,0.0,0.0,0.0,0.0,0.0,0.0,0.0,0.0,0.0,0.0,0.0,0.0,0.0,0.0,0.0,0.0,0.0,0.0,0.0,0.0,0.0,0.0,0.0,0.0,0.0,0.0,0.0,0.0,0.0,0.0,0.0,0.0,0.0,0.0,0.0,0.0,0.0,0.0,0.0,1.2405,1.4496,1.4824,0.0,2.0776,0.0,0.0,0.0,0.0,0.0,0.0,0.0,0.0,0.0,0.0,0.0,0.0,0.0,0.0,0.0,0.0,0.0,0.0,0.0,0.0,0.0,0.0,0.0,0.0,0.0,0.0,0.0,0.0,0.0,0.0,0.0,0.0,0.0,0.0,0.0,0.0,0.0,0.0,0.0,0.0,0.0,0.0,0.0,0.0,0.0,0.0,0.0,0.0,0.0,0.0,0.0,0.0,0.0,0.0,0.0,0.0,0.0,0.0,0.0,0.0,0.0,0.0,0.0,0.0,0.0,0.0,0.0,0.0,0.0,0.0,0.0,0.0,0.0,0.0,0.0,0.0,0.0,0.0,0.0,0.0,0.0,0.0,0.0,0.0,0.0,0.0,0.0,0.0,0.0,0.0,0.0,0.0,0.0,0.0,0.0,0.0,0.0,0.0,0.0,0.0,0.0,0.0,0.0,0.0,0.0,0.0,0.0,0.0,0.0,0.0,1.2009,1.4677,1.6777,1.8714,0.0,0.0,0.0,0.0,0.0,0.0,0.0,0.0,0.0,0.0,0.0,0.0,0.0,0.0,0.0,0.0,0.0,0.0,0.0,0.0,0.0,0.0,0.0,0.0,0.0,0.0,0.0,0.0,0.0,0.0,0.0,0.0,0.0,0.0,0.0,0.0,0.0,0.0,0.0,0.0,0.0,0.0,0.0,0.0,0.0,0.0,0.0,0.0,0.0,0.0,0.0,0.0,0.0,0.0,0.0,0.0,0.0,0.0,0.0,0.0,0.0,0.0,0.0,0.0,0.0,0.0,0.0,0.0,0.0,0.0,0.0,0.0,0.0,0.0,0.0,0.0,0.0,0.0,0.0,0.0,0.0,0.0,0.0,0.0,0.0,0.0,0.0,0.0,0.0,0.0,0.0,0.0,0.0,0.0,0.0,0.0,0.0,0.0,0.0,0.0,0.0,0.0,0.0,0.0,0.0,0.0,0.0,0.0,0.0,0.0,1.1454,1.2638,1.5947,1.8221,1.9815,2.0788,0.0,0.0,0.0,0.0,0.0,0.0,0.0,0.0,0.0,0.0,0.0,0.0,0.0,0.0,0.0,0.0,0.0,0.0,0.0,0.0,0.0,0.0,0.0,0.0,0.0,0.0,0.0,0.0,0.0,0.0,0.0,0.0,0.0,0.0,0.0,0.0,0.0,0.0,0.0,0.0,0.0,0.0,0.0,0.0,0.0,0.0,0.0,0.0,0.0,0.0,0.0,0.0,0.0,0.0,0.0,0.0,0.0,0.0,0.0,0.0,0.0,0.0,0.0,0.0,0.0,0.0,0.0,0.0,0.0,0.0,0.0,0.0,0.0,0.0,0.0,0.0,0.0,0.0,0.0,0.0,0.0,0.0,0.0,0.0,0.0,0.0,0.0,0.0,0.0,0.0,0.0,0.0,0.0,0.0,0.0,0.0,0.0,0.0,0.0,0.0,0.0,0.0,0.0,0.0,0.0,0.0,0.0,0.0,1.5313,1.3905,1.5082,1.9132,1.9178,2.0311,0.0,0.0,0.0,0.0,0.0,0.0,0.0,0.0,0.0,0.0,0.0,0.0,0.0,0.0,0.0,0.0,0.0,0.0,0.0,0.0,0.0,0.0,0.0,0.0,0.0,0.0,0.0,0.0,0.0,0.0,0.0,0.0,0.0,0.0,0.0,0.0,0.0,0.0,0.0,0.0,0.0,0.0,0.0,0.0,0.0,0.0,0.0,0.0,0.0,0.0,0.0,0.0,0.0,0.0,0.0,0.0,0.0,0.0,0.0,0.0,0.0,0.0,0.0,0.0,0.0,0.0,0.0,0.0,0.0,0.0,0.0,0.0,0.0,0.0,0.0,0.0,0.0,0.0,0.0,0.0,0.0,0.0,0.0,0.0,0.0,0.0,0.0,0.0,0.0,0.0,0.0,0.0,0.0,0.0,0.0,0.0,0.0,0.0,0.0,0.0,0.0,0.0,0.0,0.0,0.0,0.0,0.0,0.0,0.0,1.3009,1.4105,1.5229,1.6515,1.8976,2.0782,0.0,0.0,0.0,0.0,0.0,0.0,0.0,0.0,0.0,0.0,0.0,0.0,0.0,0.0,0.0,0.0,0.0,0.0,0.0,0.0,0.0,0.0,0.0,0.0,0.0,0.0,0.0,0.0,0.0,0.0,0.0,0.0,0.0,0.0,0.0,0.0,0.0,0.0,0.0,0.0,0.0,0.0,0.0,0.0,0.0,0.0,0.0,0.0,0.0,0.0,0.0,0.0,0.0,0.0,0.0,0.0,0.0,0.0,0.0,0.0,0.0,0.0,0.0,0.0,0.0,0.0,0.0,0.0,0.0,0.0,0.0,0.0,0.0,0.0,0.0,0.0,0.0,0.0,0.0,0.0,0.0,0.0,0.0,0.0,0.0,0.0,0.0,0.0,0.0,0.0,0.0,0.0,0.0,0.0,0.0,0.0,0.0,0.0,0.0,0.0,0.0,0.0,0.0,0.0,0.0,0.0,0.0,0.0,0.0,1.2334,0.0,1.6011,1.617,1.9027,2.0883,0.0,0.0,0.0,0.0,0.0,0.0,0.0,0.0,0.0,0.0,0.0,0.0,0.0,0.0,0.0,0.0,0.0,0.0,0.0,0.0,0.0,0.0,0.0,0.0,0.0,0.0,0.0,0.0,0.0,0.0,0.0,0.0,0.0,0.0,0.0,0.0,0.0,0.0,0.0,0.0,0.0,0.0,0.0,0.0,0.0,0.0,0.0,0.0,0.0,0.0,0.0,0.0,0.0,0.0,0.0,0.0,0.0,0.0,0.0,0.0,0.0,0.0,0.0,0.0,0.0,0.0,0.0,0.0,0.0,0.0,0.0,0.0,0.0,0.0,0.0,0.0,0.0,0.0,0.0,0.0,0.0,0.0,0.0,0.0,0.0,0.0,0.0,0.0,0.0,0.0,0.0,0.0,0.0,0.0,0.0,0.0,0.0,0.0,0.0,0.0,0.0,0.0,0.0,0.0,0.0,0.0,0.0,0.0,1.2503,1.396,1.5906,1.7497,1.8845,1.9453,2.0619,0.0,0.0,0.0,0.0,0.0,0.0,0.0,0.0,0.0,0.0,0.0,0.0,0.0,0.0,0.0,0.0,0.0,0.0,0.0,0.0,0.0,0.0,0.0,0.0,0.0,0.0,0.0,0.0,0.0,0.0,0.0,0.0,0.0,0.0,0.0,0.0,0.0,0.0,0.0,0.0,0.0,0.0,0.0,0.0,0.0,0.0,0.0,0.0,0.0,0.0,0.0,0.0,0.0,0.0,0.0,0.0,0.0,0.0,0.0,0.0,0.0,0.0,0.0,0.0,0.0,0.0,0.0,0.0,0.0,0.0,0.0,0.0,0.0,0.0,0.0,0.0,0.0,0.0,0.0,0.0,0.0,0.0,0.0,0.0,0.0,0.0,0.0,0.0,0.0,0.0,0.0,0.0,0.0,0.0,0.0,0.0,0.0,0.0,0.0,0.0,0.0,0.0,0.0,0.0,0.0,0.0,0.0,0.0,0.0,1.4502,1.5785,1.7657,2.0068,2.0415,2.1782,0.0,0.0,0.0,0.0,0.0,0.0,0.0,0.0,0.0,0.0,0.0,0.0,0.0,0.0,0.0,0.0,0.0,0.0,0.0,0.0,0.0,0.0,0.0,0.0,0.0,0.0,0.0,0.0,0.0,0.0,0.0,0.0,0.0,0.0,0.0,0.0,0.0,0.0,0.0,0.0,0.0,0.0,0.0,0.0,0.0,0.0,0.0,0.0,0.0,0.0,0.0,0.0,0.0,0.0,0.0,0.0,0.0,0.0,0.0,0.0,0.0,0.0,0.0,0.0,0.0,0.0,0.0,0.0,0.0,0.0,0.0,0.0,0.0,0.0,0.0,0.0,0.0,0.0,0.0,0.0,0.0,0.0,0.0,0.0,0.0,0.0,0.0,0.0,0.0,0.0,0.0,0.0,0.0,0.0,0.0,0.0,0.0,0.0,0.0,0.0,0.0,0.0,0.0,0.0,0.0,0.0,0.0,0.0,0.0,1.7777,1.7886,1.8819,2.0605,2.1857,2.3153,2.4496,0.0,0.0,0.0,0.0,0.0,0.0,0.0,0.0,0.0,0.0,0.0,0.0,0.0,0.0,0.0,0.0,0.0,0.0,0.0,0.0,0.0,0.0,0.0,0.0,0.0,0.0,0.0,0.0,0.0,0.0,0.0,0.0,0.0,0.0,0.0,0.0,0.0,0.0,0.0,0.0,0.0,0.0,0.0,0.0,0.0,0.0,0.0,0.0,0.0,0.0,0.0,0.0,0.0,0.0,0.0,0.0,0.0,0.0,0.0,0.0,0.0,0.0,0.0,0.0,0.0,0.0,0.0,0.0,0.0,0.0,0.0,0.0,0.0,0.0,0.0,0.0,0.0,0.0,0.0,0.0,0.0,0.0,0.0,0.0,0.0,0.0,0.0,0.0,0.0,0.0,0.0,0.0,0.0,0.0,0.0,0.0,0.0,0.0,0.0,0.0,0.0,0.0,0.0,0.0,0.0,0.0,0.0,0.0,2.3208,2.2273,2.1647,2.1308,2.4033,2.4889,0.0,0.0,0.0,0.0,0.0,0.0,0.0,0.0,0.0,0.0,0.0,0.0,0.0,0.0,0.0,0.0,0.0,0.0,0.0,0.0,0.0,0.0,0.0,0.0,0.0,0.0,0.0,0.0,0.0,0.0,0.0,0.0,0.0,0.0,0.0,0.0,0.0,0.0,0.0,0.0,0.0,0.0,0.0,0.0,0.0,0.0,0.0,0.0,0.0,0.0,0.0,0.0,0.0,0.0,0.0,0.0,0.0,0.0,0.0,0.0,0.0,0.0,0.0,0.0,0.0,0.0,0.0,0.0,0.0,0.0,0.0,0.0,0.0,0.0,0.0,0.0,0.0,0.0,0.0,0.0,0.0,0.0,0.0,0.0,0.0,0.0,0.0,0.0,0.0,0.0,0.0,0.0,0.0,0.0,0.0,0.0,0.0,0.0,0.0,0.0,0.0,0.0,0.0,0.0,0.0,0.0,0.0,0.0,0.0,2.7016,3.0406,3.1393,2.9755,2.8532,2.8148,0.0,0.0,0.0,0.0,0.0,0.0,0.0,0.0,0.0,0.0,0.0,0.0,0.0,0.0,0.0,0.0,0.0,0.0,0.0,0.0,0.0,0.0,0.0,0.0,0.0,0.0,0.0,0.0,0.0,0.0,0.0,0.0,0.0,0.0,0.0,0.0,0.0,0.0,0.0,0.0,0.0,0.0,0.0,0.0,0.0,0.0,0.0,0.0,0.0,0.0,0.0,0.0,0.0,0.0,0.0,0.0,0.0,0.0,0.0,0.0,0.0,0.0,0.0,0.0,0.0,0.0,0.0,0.0,0.0,0.0,0.0,0.0,0.0,0.0,0.0,0.0,0.0,0.0,0.0,0.0,0.0,0.0,0.0,0.0,0.0,0.0,0.0,0.0,0.0,0.0,0.0,0.0,0.0,0.0,0.0,0.0,0.0,0.0,0.0,0.0,0.0,0.0,0.0,0.0,0.0,0.0,0.0,0.0,2.8048,3.059,3.6448,3.8949,3.7798,3.453,3.1764,0.0,0.0,0.0,0.0,0.0,0.0,0.0,0.0,0.0,0.0,0.0,0.0,0.0,0.0,0.0,0.0,0.0,0.0,0.0,0.0,0.0,0.0,0.0,0.0,0.0,0.0,0.0,0.0,0.0,0.0,0.0,0.0,0.0,0.0,0.0,0.0,0.0,0.0,0.0,0.0,0.0,0.0,0.0,0.0,0.0,0.0,0.0,0.0,0.0,0.0,0.0,0.0,0.0,0.0,0.0,0.0,0.0,0.0,0.0,0.0,0.0,0.0,0.0,0.0,0.0,0.0,0.0,0.0,0.0,0.0,0.0,0.0,0.0,0.0,0.0,0.0,0.0,0.0,0.0,0.0,0.0,0.0,0.0,0.0,0.0,0.0,0.0,0.0,0.0,0.0,0.0,0.0,0.0,0.0,0.0,0.0,0.0,0.0,0.0,0.0,0.0,0.0,0.0,0.0,0.0,0.0,0.0,0.0,3.2073,3.386,4.0655,4.4288,4.4316,4.0406,3.5318,0.0,0.0,0.0,0.0,0.0,0.0,0.0,0.0,0.0,0.0,0.0,0.0,0.0,0.0,0.0,0.0,0.0,0.0,0.0,0.0,0.0,0.0,0.0,0.0,0.0,0.0,0.0,0.0,0.0,0.0,0.0,0.0,0.0,0.0,0.0,0.0,0.0,0.0,0.0,0.0,0.0,0.0,0.0,0.0,0.0,0.0,0.0,0.0,0.0,0.0,0.0,0.0,0.0,0.0,0.0,0.0,0.0,0.0,0.0,0.0,0.0,0.0,0.0,0.0,0.0,0.0,0.0,0.0,0.0,0.0,0.0,0.0,0.0,0.0,0.0,0.0,0.0,0.0,0.0,0.0,0.0,0.0,0.0,0.0,0.0,0.0,0.0,0.0,0.0,0.0,0.0,0.0,0.0,0.0,0.0,0.0,0.0,0.0,0.0,0.0,0.0,0.0,0.0,0.0,0.0,0.0,0.0,0.0,3.3244,3.6049,4.1935,4.5124,4.5283,4.0365,3.6566,0.0,0.0,0.0,0.0,0.0,0.0,0.0,0.0,0.0,0.0,0.0,0.0,0.0,0.0,0.0,0.0,0.0,0.0,0.0,0.0,0.0,0.0,0.0,0.0,0.0,0.0,0.0,0.0,0.0,0.0,0.0,0.0,0.0,0.0,0.0,0.0,0.0,0.0,0.0,0.0,0.0,0.0,0.0,0.0,0.0,0.0,0.0,0.0,2.232,0.0,0.0,0.0,0.0,0.0,0.0,0.0,0.0,0.0,0.0,0.0,0.0,0.0,0.0,0.0,0.0,0.0,0.0,0.0,0.0,0.0,0.0,0.0,0.0,0.0,0.0,0.0,0.0,0.0,0.0,0.0,0.0,0.0,0.0,0.0,0.0,0.0,0.0,0.0,0.0,0.0,0.0,0.0,0.0,0.0,0.0,0.0,0.0,0.0,0.0,0.0,0.0,0.0,0.0,0.0,0.0,0.0,0.0,0.0,3.529,3.8476,4.3363,4.6135,4.6357,4.1674,3.8091,0.0,0.0,0.0,0.0,0.0,0.0,0.0,0.0,0.0,0.0,0.0,0.0,0.0,0.0,0.0,0.0,0.0,0.0,0.0,0.0,0.0,0.0,0.0,0.0,0.0,0.0,0.0,0.0,0.0,0.0,0.0,0.0,0.0,0.0,0.0,0.0,0.0,0.0,0.0,0.0,0.0,0.0,0.0,0.0,0.0,0.0,0.0,0.0,0.0,0.0,0.0,0.0,0.0,0.0,0.0,0.0,0.0,0.0,0.0,0.0,0.0,0.0,0.0,0.0,0.0,0.0,0.0,0.0,0.0,0.0,0.0,0.0,0.0,0.0,0.0,0.0,0.0,0.0,0.0,0.0,0.0,0.0,0.0,0.0,0.0,0.0,0.0,0.0,0.0,0.0,0.0,0.0,0.0,0.0,0.0,0.0,0.0,0.0,0.0,0.0,0.0,0.0,0.0,0.0,0.0,0.0,0.0,3.3216,3.7174,4.0764,4.4418,4.6696,4.7496,4.3275,3.9621,3.6857,0.0,0.0,0.0,0.0,0.0,0.0,0.0,0.0,0.0,0.0,0.0,0.0,0.0,0.0,0.0,0.0,0.0,0.0,0.0,0.0,0.0,0.0,0.0,0.0,0.0,0.0,0.0,0.0,0.0,0.0,0.0,0.0,0.0,0.0,0.0,0.0,0.0,0.0,1.6168,1.7965,0.0,0.0,0.0,0.0,0.0,0.0,0.0,0.0,2.3504,0.0,0.0,0.0,0.0,0.0,0.0,0.0,0.0,0.0,0.0,0.0,0.0,0.0,0.0,0.0,0.0,0.0,0.0,0.0,0.0,0.0,0.0,0.0,0.0,0.0,0.0,0.0,0.0,0.0,0.0,0.0,0.0,0.0,0.0,0.0,0.0,0.0,0.0,0.0,0.0,0.0,0.0,0.0,0.0,0.0,0.0,0.0,0.0,0.0,0.0,0.0,0.0,0.0,0.0,0.0,0.0,3.084,3.3303,3.6993,4.2122,4.3987,4.5792,4.7424,4.3622,4.0784,3.9176,0.0,0.0,0.0,0.0,0.0,0.0,0.0,0.0,0.0,0.0,0.0,0.0,0.0,0.0,0.0,0.0,0.0,0.0,0.0,0.0,0.0,0.0,0.0,0.0,0.0,0.0,0.0,0.0,0.0,0.0,0.0,0.0,0.0,0.0,0.0,0.0,0.0,0.0,0.0,2.0206,2.1874,0.0,0.0,0.0,0.0,0.0,0.0,0.0,0.0,2.4735,0.0,0.0,0.0,0.0,0.0,0.0,0.0,0.0,0.0,0.0,0.0,0.0,0.0,0.0,0.0,0.0,0.0,0.0,0.0,0.0,0.0,0.0,0.0,0.0,0.0,0.0,0.0,0.0,0.0,0.0,0.0,0.0,0.0,0.0,0.0,0.0,0.0,0.0,0.0,0.0,0.0,0.0,0.0,0.0,0.0,0.0,0.0,0.0,0.0,0.0,0.0,0.0,0.0,0.0,0.0,3.2302,3.5431,3.9166,4.3482,4.4591,4.5761,4.6962,4.3488,4.088,0.0,0.0,0.0,0.0,0.0,0.0,0.0,0.0,0.0,0.0,0.0,0.0,0.0,0.0,0.0,0.0,0.0,0.0,0.0,0.0,0.0,0.0,0.0,0.0,0.0,0.0,0.0,0.0,0.0,0.0,0.0,0.0,0.0,0.0,0.0,0.0,0.0,0.0,0.0,0.0,2.1934,2.3471,2.5021,0.0,0.0,0.0,0.0,0.0,0.0,2.592,2.5854,0.0,0.0,0.0,0.0,0.0,0.0,0.0,0.0,0.0,0.0,0.0,0.0,0.0,0.0,0.0,0.0,0.0,0.0,0.0,0.0,0.0,0.0,0.0,0.0,0.0,0.0,0.0,0.0,0.0,0.0,0.0,0.0,0.0,0.0,0.0,0.0,0.0,0.0,0.0,0.0,0.0,0.0,0.0,0.0,0.0,0.0,0.0,0.0,0.0,0.0,0.0,0.0,0.0,0.0,0.0,3.3599,3.763,4.137,4.4622,4.533,4.6007,4.6685,4.3147,4.0483,0.0,0.0,0.0,0.0,0.0,0.0,0.0,0.0,0.0,0.0,0.0,0.0,0.0,0.0,0.0,0.0,0.0,0.0,0.0,0.0,0.0,0.0,0.0,0.0,0.0,0.0,0.0,0.0,0.0,0.0,0.0,0.0,0.0,0.0,0.0,0.0,0.0,0.0,0.0,0.0,0.0,2.5134,2.6886,2.7104,0.0,0.0,0.0,0.0,2.7021,2.7687,0.0,0.0,0.0,0.0,0.0,0.0,0.0,0.0,0.0,0.0,0.0,0.0,0.0,0.0,0.0,0.0,0.0,0.0,0.0,0.0,0.0,0.0,0.0,0.0,0.0,0.0,0.0,0.0,0.0,0.0,0.0,0.0,0.0,0.0,0.0,0.0,0.0,0.0,0.0,0.0,0.0,0.0,0.0,0.0,0.0,0.0,0.0,0.0,0.0,0.0,0.0,0.0,0.0,0.0,0.0,0.0,3.4383,3.8354,4.203,4.5299,4.5576,4.6223,4.7362,4.2733,3.9758,0.0,0.0,0.0,0.0,0.0,0.0,0.0,0.0,0.0,0.0,0.0,0.0,0.0,0.0,0.0,0.0,0.0,0.0,0.0,0.0,0.0,0.0,0.0,0.0,0.0,0.0,0.0,0.0,0.0,0.0,0.0,0.0,0.0,0.0,0.0,0.0,0.0,0.0,0.0,0.0,0.0,2.694,2.8197,2.7999,2.7422,0.0,0.0,2.9039,2.8457,3.1441,0.0,0.0,0.0,0.0,0.0,0.0,0.0,0.0,0.0,0.0,0.0,0.0,0.0,0.0,0.0,0.0,0.0,0.0,0.0,0.0,0.0,0.0,0.0,0.0,0.0,0.0,0.0,0.0,0.0,0.0,0.0,0.0,0.0,0.0,0.0,0.0,0.0,0.0,0.0,0.0,0.0,0.0,0.0,0.0,0.0,0.0,0.0,0.0,0.0,0.0,0.0,0.0,0.0,0.0,0.0,3.2833,3.5168,4.0187,4.3895,4.608,4.6542,4.7004,4.7588,4.2607,3.9629,0.0,0.0,0.0,0.0,0.0,0.0,0.0,0.0,0.0,0.0,0.0,0.0,0.0,0.0,0.0,0.0,0.0,0.0,0.0,0.0,0.0,0.0,0.0,0.0,0.0,0.0,0.0,0.0,0.0,0.0,0.0,0.0,0.0,0.0,0.0,0.0,0.0,0.0,0.0,0.0,0.0,0.0,2.8196,2.9254,0.0,0.0,0.0,3.1493,3.0571,0.0,0.0,0.0,0.0,0.0,0.0,0.0,0.0,0.0,0.0,0.0,0.0,0.0,0.0,0.0,0.0,0.0,0.0,0.0,0.0,0.0,0.0,0.0,0.0,0.0,0.0,0.0,0.0,0.0,0.0,0.0,0.0,0.0,0.0,0.0,0.0,0.0,0.0,0.0,0.0,0.0,0.0,0.0,0.0,0.0,0.0,0.0,0.0,0.0,0.0,0.0,0.0,0.0,0.0,0.0,0.0,0.0,3.5599,4.1529,4.5218,4.6542,4.7096,4.7414,4.7496,4.3162,0.0,0.0,0.0,0.0,0.0,0.0,0.0,0.0,0.0,0.0,0.0,0.0,0.0,0.0,0.0,0.0,0.0,0.0,0.0,0.0,0.0,0.0,0.0,0.0,0.0,0.0,0.0,1.8702,0.0,0.0,0.0,0.0,0.0,0.0,0.0,0.0,0.0,0.0,0.0,0.0,0.0,0.0,2.9927,2.8919,3.0665,3.1992,0.0,0.0,3.3608,3.2804,3.5565,3.6344,0.0,0.0,0.0,0.0,0.0,0.0,0.0,0.0,0.0,0.0,0.0,0.0,0.0,0.0,0.0,0.0,0.0,0.0,0.0,0.0,0.0,0.0,0.0,0.0,0.0,0.0,0.0,0.0,0.0,0.0,0.0,0.0,0.0,0.0,0.0,0.0,0.0,0.0,0.0,0.0,0.0,0.0,0.0,0.0,0.0,0.0,0.0,0.0,0.0,0.0,0.0,0.0,0.0,0.0,0.0,3.566,4.1511,4.5268,4.6542,4.6634,4.6973,4.7527,4.465,4.176,0.0,0.0,0.0,0.0,0.0,0.0,0.0,0.0,0.0,0.0,0.0,0.0,0.0,0.0,0.0,0.0,0.0,0.0,0.0,0.0,0.0,0.0,0.0,0.0,0.0,0.0,0.0,0.0,0.0,0.0,0.0,0.0,0.0,0.0,0.0,0.0,0.0,0.0,0.0,0.0,0.0,3.1645,3.1554,3.2219,3.3229,0.0,0.0,3.5003,3.5064,3.9801,4.0993,3.3578,0.0,0.0,0.0,0.0,0.0,0.0,0.0,0.0,0.0,0.0,0.0,0.0,0.0,0.0,0.0,0.0,0.0,0.0,0.0,0.0,0.0,0.0,0.0,0.0,0.0,0.0,0.0,0.0,0.0,0.0,0.0,0.0,0.0,0.0,0.0,0.0,0.0,0.0,0.0,0.0,0.0,0.0,0.0,0.0,0.0,0.0,0.0,0.0,0.0,0.0,0.0,0.0,0.0,3.5445,3.6184,4.2127,4.5669,4.6573,4.7004,4.7527,4.8183,4.5017,4.2105,0.0,0.0,0.0,0.0,0.0,0.0,0.0,0.0,0.0,0.0,0.0,0.0,0.0,0.0,0.0,0.0,0.0,0.0,0.0,0.0,0.0,0.0,0.0,0.0,0.0,0.0,0.0,0.0,2.423,2.4813,2.5387,0.0,0.0,0.0,0.0,0.0,0.0,0.0,0.0,0.0,0.0,3.3023,3.4093,3.483,0.0,0.0,3.7994,3.8179,3.6492,3.9173,3.9267,3.2852,3.2403,0.0,0.0,0.0,0.0,0.0,0.0,0.0,0.0,0.0,0.0,0.0,0.0,0.0,0.0,0.0,0.0,0.0,0.0,0.0,0.0,0.0,0.0,0.0,0.0,0.0,0.0,0.0,0.0,0.0,0.0,0.0,0.0,0.0,0.0,0.0,0.0,0.0,0.0,0.0,0.0,0.0,0.0,0.0,0.0,0.0,0.0,0.0,0.0,0.0,0.0,0.0,0.0,3.5737,3.6215,4.222,4.575,4.6672,4.7105,4.7732,4.8594,4.6035,4.3451,0.0,0.0,0.0,0.0,0.0,0.0,0.0,0.0,0.0,0.0,0.0,0.0,0.0,0.0,0.0,0.0,0.0,0.0,0.0,0.0,0.0,0.0,0.0,0.0,0.0,0.0,0.0,0.0,2.5962,2.6593,2.6907,0.0,0.0,0.0,0.0,0.0,0.0,0.0,0.0,0.0,0.0,3.4798,3.5344,3.6194,3.6954,3.7326,3.8387,3.8511,3.6753,3.7779,3.7545,3.4022,0.0,0.0,0.0,0.0,0.0,0.0,0.0,0.0,0.0,0.0,0.0,0.0,0.0,0.0,0.0,0.0,0.0,0.0,0.0,0.0,0.0,0.0,0.0,0.0,0.0,0.0,0.0,0.0,0.0,0.0,2.5643,0.0,0.0,0.0,0.0,0.0,0.0,0.0,0.0,0.0,0.0,0.0,0.0,0.0,0.0,0.0,0.0,0.0,0.0,0.0,0.0,0.0,0.0,0.0,3.5599,4.1591,4.5395,4.6838,4.6733,4.7432,4.8882,4.7988,4.6137,4.3231,0.0,0.0,0.0,0.0,0.0,0.0,0.0,0.0,0.0,0.0,0.0,0.0,0.0,0.0,0.0,0.0,0.0,0.0,0.0,0.0,0.0,0.0,0.0,0.0,0.0,0.0,2.3396,2.5806,2.781,0.0,0.0,0.0,0.0,0.0,0.0,0.0,0.0,0.0,0.0,3.5156,3.7125,3.49,3.584,3.6552,3.589,3.5256,3.5053,3.5731,3.6136,3.676,0.0,0.0,0.0,0.0,0.0,0.0,0.0,0.0,0.0,0.0,0.0,0.0,0.0,0.0,0.0,0.0,0.0,0.0,0.0,0.0,0.0,0.0,0.0,0.0,0.0,0.0,0.0,2.8423,2.8508,0.0,0.0,0.0,0.0,0.0,0.0,0.0,0.0,0.0,0.0,0.0,3.1927,3.2698,0.0,0.0,0.0,0.0,0.0,0.0,0.0,0.0,0.0,0.0,0.0,0.0,3.6214,3.6631,4.2355,4.599,4.7064,4.7492,4.8286,4.9361,4.8395,4.621,4.273,0.0,0.0,0.0,0.0,0.0,0.0,0.0,0.0,0.0,0.0,0.0,0.0,0.0,0.0,0.0,0.0,0.0,0.0,0.0,0.0,0.0,0.0,0.0,0.0,0.0,2.6537,0.0,0.0,0.0,0.0,0.0,0.0,0.0,0.0,0.0,0.0,0.0,3.2569,3.3699,3.4144,3.4701,3.5558,3.6132,3.7563,0.0,0.0,0.0,0.0,0.0,0.0,0.0,0.0,0.0,0.0,0.0,0.0,0.0,0.0,3.4809,3.086,3.176,3.292,3.2238,0.0,0.0,0.0,0.0,0.0,0.0,0.0,0.0,0.0,0.0,0.0,0.0,0.0,0.0,0.0,0.0,3.0378,0.0,0.0,0.0,0.0,0.0,0.0,0.0,0.0,3.2539,3.4281,3.5799,3.6768,3.7246,0.0,3.6753,3.4383,0.0,0.0,0.0,0.0,0.0,0.0,0.0,0.0,3.6986,3.7483,4.3323,4.6953,4.7951,4.8442,4.9119,4.9868,4.8596,4.667,4.4069,4.0733,3.7869,0.0,0.0,0.0,0.0,0.0,0.0,0.0,0.0,0.0,0.0,0.0,0.0,0.0,0.0,0.0,0.0,0.0,0.0,0.0,0.0,0.0,0.0,0.0,2.8637,0.0,0.0,0.0,0.0,0.0,0.0,0.0,0.0,0.0,3.2345,3.3626,3.5044,3.6181,3.6103,3.5949,3.577,0.0,0.0,0.0,0.0,0.0,0.0,0.0,3.3334,3.3284,3.4261,3.6318,4.0225,4.1942,4.256,4.1907,0.0,0.0,3.4955,3.5233,3.6124,3.5423,3.5272,3.5183,3.5048,3.4927,3.4942,0.0,0.0,0.0,0.0,0.0,0.0,0.0,0.0,3.2371,3.2371,0.0,3.2438,0.0,0.0,0.0,0.0,0.0,3.1644,0.0,0.0,3.7596,3.9277,3.8896,4.016,4.0745,4.0653,3.9487,3.8515,3.7619,3.5103,0.0,0.0,0.0,0.0,0.0,0.0,3.7824,3.8544,4.4472,4.8238,4.9475,4.9558,4.9891,5.0422,4.8662,4.7502,4.7064,4.3176,4.0879,4.071,3.6478,0.0,0.0,0.0,0.0,0.0,0.0,0.0,0.0,0.0,0.0,0.0,0.0,0.0,0.0,0.0,0.0,0.0,0.0,0.0,0.0,2.9642,0.0,0.0,0.0,0.0,0.0,0.0,0.0,0.0,0.0,0.0,3.3699,3.5851,3.7816,3.8406,0.0,0.0,0.0,0.0,3.9203,3.3923,3.2846,3.2905,3.3132,3.3769,3.5714,3.9815,0.0,0.0,4.8103,4.5088,4.2727,4.2583,4.4926,4.4903,4.0168,3.8563,3.7818,3.7649,3.7652,3.7295,3.7033,3.7203,3.6815,4.0268,0.0,0.0,0.0,0.0,3.5019,3.6562,3.8822,3.8171,3.7728,3.7333,3.6874,0.0,0.0,0.0,0.0,0.0,0.0,3.6137,3.7781,4.0474,4.243,4.3762,4.5241,4.5877,4.5842,4.5597,4.4844,4.3554,4.2784,3.9267,3.3195,0.0,0.0,0.0,0.0,4.0566,4.2601,4.7129,4.9766,5.014,5.0607,5.0782,5.0723,4.9275,4.8222,4.7631,4.54,4.3277,4.1371,3.9704,0.0,0.0,0.0,0.0,0.0,0.0,0.0,0.0,0.0,0.0,0.0,0.0,0.0,0.0,0.0,0.0,0.0,0.0,0.0,3.0474,3.2222,3.2235,0.0,0.0,0.0,0.0,0.0,0.0,0.0,0.0,0.0,3.8691,3.743,3.6809,0.0,0.0,3.5672,3.4669,3.705,3.953,4.14,0.0,0.0,0.0,4.0903,3.9251,4.0921,4.5073,4.8676,5.0016,5.1842,5.2888,5.2099,5.1967,5.1043,4.8346,4.6187,4.463,4.3776,4.3529,4.3237,4.2639,4.2308,4.225,4.9095,4.3474,3.9961,3.8855,3.9401,3.9322,4.0824,4.3216,4.2106,4.1604,4.1582,4.0571,3.8692,3.6215,3.5992,0.0,0.0,0.0,4.0448,4.2202,4.461,4.6611,4.817,4.9664,5.0325,5.0301,5.0151,4.9597,4.8676,4.7506,4.4583,3.9892,0.0,0.0,3.7433,4.0947,4.3622,4.5459,4.9236,5.1292,5.1394,5.1645,5.1604,5.1276,4.9797,4.8707,4.8065,4.656,4.4898,4.3157,4.1804,3.9833,0.0,0.0,0.0,0.0,0.0,0.0,0.0,0.0,0.0,0.0,0.0,2.9549,0.0,0.0,0.0,0.0,3.1964,3.2398,3.3029,3.3462,0.0,0.0,0.0,0.0,0.0,0.0,0.0,3.4292,3.8709,4.1916,4.1837,4.0484,3.9998,4.1331,4.0333,3.9329,3.895,0.0,4.3442,4.5659,4.4632,4.4426,4.6704,4.5147,4.3946,4.5209,4.8331,5.1262,5.2807,5.5349,5.6799,5.6167,5.5178,5.3885,5.2243,5.0775,4.931,4.7752,4.7366,4.7248,4.6959,4.6538,4.6426,5.7886,5.48,4.6751,4.3898,4.4571,4.3787,4.4645,4.6407,4.496,4.4695,4.5267,4.3867,4.2416,4.1107,4.0625,0.0,4.2378,4.396,4.5422,4.6831,4.9541,5.123,5.213,5.3362,5.4039,5.4063,5.3525,5.3247,5.302,5.046,4.8993,4.8675,4.5452,4.2774,4.1064,4.4421,4.6646,4.7419,5.071,5.2598,5.2921,5.2555,5.2256,5.196,5.0287,4.9123,4.8515,4.6915,4.5891,4.5478,4.3157,4.1495,4.0795,0.0,0.0,0.0,0.0,0.0,0.0,0.0,0.0,0.0,0.0,0.0,0.0,0.0,0.0,0.0,3.4969,0.0,3.6559,3.4558,0.0,0.0,0.0,3.6648,4.0441,4.1356,4.1631,4.1342,0.0,0.0,4.385,0.0,4.5919,4.8563,4.8689,4.7858,4.5929,4.79,4.9328,4.7513,4.6766,4.6386,4.7036,4.7667,4.8878,5.0809,5.2504,5.3669,5.5264,5.586,5.6099,5.6115,5.5332,5.4244,5.3141,5.2648,5.2051,5.0043,4.9604,4.9696,4.9961,4.9455,4.905,6.2851,6.1936,5.8104,5.45,5.1237,5.0953,5.1417,5.223,5.0864,5.0051,4.9706,4.8794,4.7645,4.6362,4.6414,4.6842,4.7722,4.9241,5.0737,5.2113,5.273,5.3764,5.5135,5.5579,5.6071,5.6549,5.7116,5.7014,5.6297,5.5604,5.4138,5.207,5.1543,4.9126,4.4972,4.6278,4.7939,4.9743,5.1172,5.2348,5.323,5.3093,5.2635,5.1877,5.0635,4.9581,4.8728,4.7276,4.6283,4.5859,4.4894,4.3416,4.1421,3.8541,0.0,0.0,0.0,0.0,0.0,0.0,0.0,0.0,0.0,3.0917,2.8981,0.0,3.2367,0.0,3.8205,4.1522,4.1957,4.1865,0.0,0.0,3.9709,3.9827,4.0426,4.3824,4.5131,4.2474,4.5584,4.7903,4.7735,4.8277,4.9781,5.254,4.9607,4.6872,4.6432,4.8901,5.068,5.0313,5.1212,5.2304,5.2448,5.2286,5.2102,5.2842,5.3095,5.3635,5.4941,5.5196,5.5247,5.5313,5.5043,5.4398,5.3484,5.3161,5.2872,5.2208,5.1828,5.1486,5.1228,5.0801,5.0558,6.6203,6.5486,6.4174,6.1467,5.7969,5.6419,5.5969,5.6217,5.4821,5.4241,5.4255,5.3273,5.2631,5.2269,5.2343,5.2828,5.3579,5.4755,5.5576,5.6121,5.6735,5.7343,5.7983,5.8413,5.8798,5.9148,5.9648,5.9648,5.9114,5.8462,5.7311,5.5744,5.5405,5.3434,4.9983,4.9189,4.9345,5.0315,5.1317,5.2443,5.3665,5.345,5.2438,5.0669,4.9255,4.7597,4.5668,4.416,4.3149,4.2735,4.2361,4.1642,4.0529,3.8008,3.5938,0.0,0.0,0.0,0.0,0.0,0.0,0.0,0.0,0.0,0.0,0.0,3.531,3.622,4.0709,4.3356,4.2817,4.3078,4.3307,4.3585,4.391,4.4671,4.6207,4.8904,4.9829,4.7977,5.014,5.172,5.1505,5.1762,5.259,5.4259,5.2247,5.0598,5.0665,5.2087,5.3214,5.3622,5.4621,5.5251,5.5174,5.416,5.3416,5.3467,5.3737,5.4195,5.4805,5.5025,5.5125,5.509,5.4784,5.436,5.3785,5.3617,5.3517,5.3399,5.3196,5.2991,5.2787,5.2415,5.2128,6.8556,6.7337,6.7235,6.6051,6.4041,6.1098,5.9663,5.9252,5.7796,5.7721,5.8528,5.7346,5.7234,5.7872,5.7909,5.8351,5.9148,5.9811,5.9882,5.9561,6.0766,6.1094,6.0668,6.1392,6.1634,6.1461,6.1668,6.1634,6.1392,6.0151,5.9323,5.8823,5.7598,5.6081,5.4341,5.2219,5.0793,5.0168,5.1393,5.2641,5.3864,5.3086,5.1431,4.8897,4.7005,4.4687,4.1844,4.034,3.9354,3.8845,3.8595,3.8865,3.9668,3.7086,3.5727,0.0,3.3906,0.0,0.0,0.0,0.0,0.0,0.0,0.0,0.0,3.8869,3.9504,4.0809,4.3098,4.4077,4.2993,4.2965,4.449,4.7954,4.8492,4.9986,5.3432,5.409,5.4239,5.4239,5.4383,5.4494,5.4359,5.4494,5.4478,5.4513,5.4741,5.4815,5.5274,5.5258,5.5568,5.646,5.6478,5.5763,5.5054,5.4208,5.3634,5.3635,5.4076,5.4686,5.4652,5.4938,5.512,5.4918,5.4539,5.4177,5.4045,5.4013,5.3997,5.3948,5.3931,5.3987,5.4076,5.3754,5.3619,7.0388,7.0081,6.9488,6.8281,6.6745,6.6113,6.4457,6.2163,6.1268,6.0985,6.117,6.0925,6.0876,6.104,6.1208,6.1692,6.241,6.2724,6.3107,6.353,6.3248,6.3046,6.3013,6.3703,6.3427,6.2411,6.3462,6.3427,6.2273,6.1997,6.0565,5.815,5.784,5.6322,5.3736,0.0,0.0,0.0,5.1724,5.2234,5.2332,4.9864,4.7933,4.6692,4.4984,0.0,4.2293,4.1539,4.079,4.0034,3.9509,0.0,0.0,0.0,0.0,0.0,0.0,0.0,0.0,0.0,0.0,0.0,4.122,4.0706,4.0692,4.1319,4.2731,4.5163,4.6836,4.8649,5.0689,5.1327,5.1799,5.2248,5.2719,5.3149,5.3542,5.4071,5.4431,5.4431,5.4463,5.4494,5.4494,5.4494,5.4494,5.4529,5.4616,5.472,5.4736,5.5203,5.5409,5.503,5.4934,5.4635,5.4269,5.3935,5.3701,5.3685,5.3652,5.3788,5.3856,5.3956,5.4121,5.4219,5.4213,5.4207,5.4175,5.4175,5.4143,5.4029,5.4078,5.4177,5.42,5.405,5.3916,7.1234,0.0,7.0503,6.9507,0.0,6.8206,6.7184,6.5431,6.4141,6.3642,6.3738,6.3851,6.3889,6.3889,6.3983,6.4434,6.5122,6.4838,6.5117,6.5773,6.5067,6.4757,6.4738,6.5117,6.491,6.4205,6.4531,6.4343,6.3565,6.2841,6.1514,5.9599,5.9219,5.8081,5.6202,5.5805,5.4685,5.2789,5.3134,5.3482,5.3714,5.2176,5.0311,4.81,0.0,0.0,0.0,0.0,0.0,0.0,0.0,0.0,0.0,0.0,0.0,4.3858,4.3476,4.344,4.4049,4.4304,4.554,4.7986,4.8247,4.7181,4.4578,4.6003,4.7834,4.9596,5.0497,5.166,5.3563,5.4047,5.4166,5.398,5.4208,5.4211,5.4015,5.4272,5.4494,5.4494,5.4494,5.4494,5.4494,5.4494,5.4494,5.4494,5.4494,5.4494,5.4513,5.4839,5.4858,5.4547,5.4335,5.4159,5.4013,5.3849,5.3717,5.3701,5.3634,5.3668,5.3735,5.3849,5.3997,5.4094,5.4239,5.4351,5.4351,5.4351,5.4319,5.4271,5.4303,5.4351,5.4335,5.4223,5.4045,7.1773,7.1225,7.1225,7.0509,6.9371,6.9371,6.9026,6.8374,0.0,0.0,0.0,6.6025,6.6171,6.6275,6.6309,6.6689,6.7344,6.6792,6.6827,6.7359,6.662,6.6309,6.6309,6.6309,6.6137,6.5895,6.5221,6.4841,6.4634,6.3324,6.2307,6.1496,6.0771,5.9909,5.903,5.8392,5.7185,5.5375,5.4754,5.472,5.5168,5.4576,5.2754,4.9651,4.8572,4.6907,4.4596,4.3881,4.3443,4.3189,4.3774,4.4544,4.5509,4.6157,4.6492,4.6568,4.6855,4.7732,4.9342,4.9193,5.0474,5.3856,5.4191,5.2693,4.9061,5.0915,5.2548,5.3291,5.3341,5.3663,5.4394,5.4494,5.4494,5.4494,5.4494,5.4478,5.4494,5.4494,5.4494,5.4494,5.4494,5.4494,5.4494,5.4494,5.4494,5.4494,5.4494,5.4494,5.4494,5.4529,5.4532,5.4415,5.4287,5.4159,5.4013,5.3882,5.3767,5.3749,5.3767,5.3816,5.3964,5.411,5.4191,5.4191,5.4367,5.4497,5.4478,5.4478,5.4494,5.4494,5.4494,5.4494,5.4478,5.4335,5.4127,7.2552,7.2448,7.2469,7.1953,7.1146,7.1146,7.0719,6.9946,6.8369,6.7369,6.6822,6.6842,6.7206,6.7773,6.7807,6.8221,6.8966,6.8862,6.8862,0.0,6.8152,6.7773,6.7773,6.7773,6.7118,6.5964,6.5792,6.5359,6.4669,6.3841,6.3048,6.2307,6.153,6.0409,5.9116,5.8909,5.8685,5.8306,5.5805,5.4253,5.3701,5.1104,4.9209,4.8065,4.6762,4.5694,4.5272,4.5832,4.5723,4.5011,4.5602,4.7005,4.9178,4.9486,5.0527,5.2775,5.3873,5.404,5.3284,5.4004,5.4455,5.4399,5.4431,5.4174,5.3629,5.3867,5.4155,5.4325,5.4275,5.4359,5.4494,5.4494,5.4494,5.4494,5.4494,5.4494,5.4494,5.4494,5.4494,5.4494,5.4494,5.4494,5.4494,5.4494,5.4494,5.4494,5.4494,5.4494,5.4494,5.4494,5.4415,5.4287,5.4223,5.4143,5.4045,5.398,5.3948,5.3948,5.3948,5.3964,5.4029,5.4143,5.4223,5.4207,5.4367,5.4478,5.4494,5.4494,5.4494,5.4494,5.4494,5.4494,5.4478,5.4351,5.4207,7.2692,7.2692,7.2692,7.2485,7.2105,7.167,7.1291,7.0912,6.9828,6.9153,6.8862,6.8842,6.9035,6.9345,6.9325,6.9552,6.9897,6.9483,6.9311,6.9242,6.8463,6.8083,6.8083,6.8083,6.7758,6.7103,6.6689,6.6102,6.5343,6.4565,6.36,6.2514,6.1703,6.0737,5.9737,5.9633,5.9426,5.8961,5.7616,5.6564,5.5839,5.4444,5.3375,5.2666,5.1892,5.1582,5.1582,5.1836,5.1775,5.1386,5.2015,5.2885,5.397,5.443,5.5077,5.5926,5.6611,5.6558,5.5593,5.5729,5.5558,5.483,5.4761,5.4761,5.4761,5.4623,5.4494,5.4494,5.4494,5.4494,5.4494,5.4494,5.4494,5.4494,5.4494,5.4494,5.4494,5.4494,5.4494,5.4494,5.4494,5.4494,5.4494,5.4494,5.4494,5.4494,5.4494,5.4494,5.4494,5.4494,5.4463,5.4367,5.4287,5.4191,5.411,5.4045,5.4029,5.4094,5.411,5.4143,5.4223,5.4335,5.4351,5.4367,5.4465,5.4478,5.4494,5.4494,5.4494,5.4494,5.4494,5.4494,5.4463,5.4415,5.4303,7.2692,7.2692,7.2692,7.2692,7.2657,7.2036,7.1795,7.1726,7.1139,7.0932,7.0863,7.0587,7.0484,7.0656,7.0636,7.0656,7.0587,7.007,6.9794,6.9725,6.898,6.8704,6.8842,6.8704,6.8497,6.831,6.7601,6.6861,6.6102,6.5186,6.3945,6.2565,6.1875,6.1185,6.0461,6.0427,6.0082,5.9306,5.9288,5.884,5.7994,5.7926,5.7546,5.6924,5.6753,5.6805,5.6789,5.6794,5.683,5.6864,5.7415,5.7757,5.7775,5.8323,5.8409,5.793,5.81,5.7853,5.6971,5.6226,5.5618,5.5077,5.5007,5.5007,5.4976,5.4776,5.4623,5.4557,5.4592,5.4576,5.4529,5.4494,5.4494,5.4494,5.4494,5.4494,5.4494,5.4494,5.4494,5.4494,5.4494,5.4494,5.4494,5.4494,5.4494,5.4494,5.4494,5.4494,5.4494,5.4494,5.4494,5.4463,5.4367,5.4287,5.4255,5.4191,5.4175,5.4271,5.4271,5.4319,5.4431,5.4478,5.4494,5.4478,5.4478,5.4494,5.4494,5.4494,5.4494,5.4494,5.4494,5.4494,5.4494,5.4478,5.4415,7.2692,7.2692,7.2692,7.2692,7.2692,7.2588,7.2554,7.2554,7.2485,7.2485,7.2278,7.1036,7.0829,7.1325,7.1394,7.1415,7.1394,7.1346,7.1243,7.1153,7.0518,7.0532,7.0967,7.0429,6.9828,6.9138,6.8359,6.7601,6.6773,6.5393,6.3979,6.2652,6.2445,6.1979,6.1289,6.122,6.084,6.0116,6.0082,5.9478,5.823,5.7993,5.7596,5.6983,5.6887,5.6805,5.6925,5.7444,5.7772,5.7841,5.8444,5.8841,5.8858,5.9063,5.92,5.9079,5.9281,5.8824,5.7345,5.5916,5.5127,5.5007,5.5022,5.5022,5.5022,5.4992,5.4884,5.4811,5.478,5.4702,5.4545,5.4529,5.4494,5.4494,5.4494,5.4494,5.4494,5.4494,5.4494,5.4494,5.4494,5.4494,5.4494,5.4494,5.4494,5.4494,5.4494,5.4494,5.4494,5.4494,5.4494,5.4494,5.4497,5.4447,5.4447,5.4463,5.4415,5.4447,5.4463,5.4463,5.4478,5.4494,5.4494,5.4494,5.4494,5.4494,5.4494,5.4494,5.4494,5.4494,5.4494,5.4494,5.4494,5.4494,5.4447,7.2692,7.2692,7.2692,7.2692,7.2692,7.2692,7.2692,7.2692,7.2692,7.2692,7.2657,7.2036,7.1933,7.2209,7.2209,7.2209,7.2174,7.1705,7.1498,7.1429,7.0739,7.0567,7.0794,7.0587,7.0001,6.9345,6.8966,6.8172,6.6911,6.5428,6.4393,6.3807,6.3393,6.2737,6.2048,6.2013,6.1445,6.0272,6.0324,5.996,5.9107,5.8852,5.8662,5.8534,5.8501,5.8451,5.8451,5.878,5.8918,5.8936,5.9214,5.9352,5.9369,5.9436,5.9453,5.9451,5.8748,5.8142,5.7608,5.6154,5.5314,5.5264,5.5299,5.5299,5.5314,5.5314,5.5254,5.5068,5.4961,5.4873,5.4717,5.467,5.4639,5.451,5.4494,5.4494,5.4494,5.4494,5.4494,5.4494,5.4494,5.4494,5.4494,5.4494,5.4494,5.4494,5.4494,5.4494,5.4494,5.4494,5.4494,5.4494,5.4494,5.4494,5.4494,5.4494,5.4494,5.4494,5.4494,5.4494,5.4494,5.4494,5.4494,5.4494,5.4494,5.4494,5.4494,5.4494,5.4494,5.4494,5.4494,5.4494,5.4494,5.4494,5.4494,7.2864,7.2726,7.2692,7.2692,7.2692,7.2692,7.2692,7.2692,7.2692,7.2692,7.2692,7.2692,7.2692,7.2692,7.2692,7.2692,7.2623,7.2105,7.1843,7.1774,7.1277,7.107,7.1036,7.0774,7.0311,6.9656,6.938,6.8517,6.6999,6.5704,6.491,6.4634,6.3945,6.3342,6.2894,6.2772,6.2151,6.0962,6.0826,6.0496,5.9953,5.9607,5.952,5.9636,5.9637,5.9604,5.9604,5.9604,5.9604,5.9604,5.9604,5.9604,5.9604,5.9619,5.9599,5.9334,5.8295,5.7545,5.7458,5.623,5.5493,5.5493,5.5493,5.5493,5.5493,5.5493,5.5448,5.5309,5.5189,5.5053,5.4888,5.4857,5.478,5.4589,5.4592,5.4576,5.4494,5.4494,5.4494,5.4494,5.4494,5.4494,5.4494,5.4494,5.4494,5.4494,5.4494,5.4494,5.4494,5.4494,5.4494,5.4494,5.4494,5.4494,5.4494,5.4494,5.4494,5.4494,5.4494,5.4494,5.4494,5.4494,5.4494,5.4494,5.4494,5.4494,5.4494,5.4494,5.4494,5.4494,5.4494,5.4494,5.4494,5.4494,5.4494,7.3347,7.2726,7.2692,7.2713,7.2713,7.2734,7.2734,7.2846,7.2755,7.2713,7.2755,7.2692,7.2692,7.2692,7.2692,7.2692,7.2692,7.2623,7.2554,7.2554,7.2519,7.2554,7.2519,7.1829,7.107,7.0277,6.969,6.8586,6.7068,6.6206,6.5462,6.4703,6.3979,6.3565,6.3496,6.3462,6.3151,6.2291,6.1725,6.1224,6.0631,6.0048,5.9797,5.9797,5.9685,5.9637,5.9621,5.9621,5.9621,5.9621,5.9637,5.9621,5.9637,5.9751,5.9599,5.9096,5.8285,5.7493,5.6842,5.6034,5.5563,5.5528,5.5528,5.5493,5.5493,5.5493,5.5493,5.5478,5.5448,5.5329,5.5053,5.5007,5.4915,5.4795,5.478,5.4702,5.451,5.451,5.4494,5.4494,5.4494,5.4494,5.4494,5.4494,5.4494,5.4494,5.4494,5.4494,5.4494,5.4494,5.4494,5.4494,5.4494,5.4494,5.4494,5.4494,5.4494,5.4494,5.4494,5.4494,5.4494,5.4494,5.4494,5.4494,5.4494,5.4494,5.4494,5.4494,5.4494,5.4494,5.4494,5.4494,5.4494,5.4494,5.4494,7.3382,7.2726,7.2692,7.297,7.3392,7.3412,7.3677,7.4127,7.3617,7.3412,7.3311,7.2908,7.2692,7.2692,7.2692,7.2692,7.2692,7.2692,7.2692,7.2692,7.2692,7.2692,7.2657,7.2381,7.1588,7.0518,7.0139,6.9207,6.7704,6.6516,6.5757,6.5309,6.422,6.36,6.36,6.36,6.322,6.2532,6.2021,6.1449,6.0769,6.025,5.9975,5.9975,5.9927,5.9914,5.9914,5.993,5.9914,5.993,5.9914,5.993,5.993,5.9943,5.9902,5.967,5.8983,5.8457,5.802,5.6912,5.621,5.6174,5.5738,5.5563,5.5493,5.5493,5.5493,5.5528,5.5528,5.5433,5.5359,5.5219,5.5098,5.4961,5.4915,5.4873,5.4749,5.4686,5.4655,5.451,5.4494,5.4494,5.4494,5.4494,5.4494,5.4494,5.4494,5.4494,5.4494,5.4494,5.4494,5.4494,5.4494,5.4494,5.4494,5.4494,5.4494,5.4494,5.4494,5.4494,5.4494,5.4494,5.4494,5.4494,5.4494,5.4494,5.4494,5.4494,5.4494,5.4494,5.4494,5.4494,5.4494,5.4494,5.4494,7.4499,7.3906,7.4136,7.4192,7.4204,7.4454,7.4723,7.4973,7.4435,7.4152,7.4072,7.3672,7.3467,7.3406,7.3183,7.3039,7.3032,7.2804,7.2692,7.2692,7.2692,7.2692,7.2657,7.2416,7.1795,7.0794,7.0242,6.9325,6.8118,6.6861,6.6137,6.5826,6.4565,6.3825,6.3634,6.36,6.3342,6.2917,6.2474,6.2005,6.1516,6.1083,6.0704,6.0544,6.0541,6.0401,6.0123,6.0072,6.0139,6.0186,6.0202,6.0186,6.0186,6.0139,6.0017,5.9721,5.9264,5.8862,5.8546,5.7564,5.6982,5.6982,5.6561,5.623,5.623,5.623,5.6139,5.5949,5.5844,5.5809,5.5548,5.5369,5.5249,5.5113,5.5083,5.5022,5.4853,5.4873,5.4795,5.462,5.4526,5.4494,5.4494,5.4494,5.4494,5.4494,5.4494,5.4494,5.4494,5.4494,5.4494,5.4494,5.4494,5.4494,5.4494,5.4494,5.4494,5.4494,5.4494,5.4494,5.4494,5.4494,5.4494,5.4494,5.4494,5.4494,5.4494,5.4494,5.4494,5.4494,5.4494,5.4494,5.4494,5.4494,5.4494,7.6812,7.6221,7.701,7.6204,7.526,7.5725,7.569,7.5209,7.5065,7.501,7.4992,7.4901,7.4716,7.4679,7.3936,7.3721,7.3477,7.297,7.2692,7.2692,7.2692,7.2692,7.2657,7.2071,7.1567,7.1187,6.9966,6.8911,6.8083,6.729,6.6585,6.5895,6.5083,6.4289,6.3634,6.3653,6.3692,6.3632,6.3169,6.2997,6.3187,6.2499,6.1914,6.1403,6.1411,6.1111,6.0279,6.0174,6.0253,6.045,6.0396,6.0396,6.0345,6.0234,5.9858,5.9331,5.9104,5.8683,5.8086,5.7926,5.7836,5.7816,5.775,5.759,5.7504,5.7559,5.7313,5.6771,5.6596,5.6385,5.5823,5.5723,5.5559,5.5244,5.5249,5.5174,5.5053,5.4992,5.493,5.4811,5.4636,5.451,5.4494,5.4542,5.4557,5.4557,5.4557,5.4557,5.4573,5.4592,5.4545,5.4529,5.4529,5.4494,5.4494,5.4494,5.4494,5.4494,5.4494,5.4494,5.4494,5.4494,5.4494,5.4494,5.4494,5.4494,5.4494,5.4494,5.4494,5.4494,5.4494,5.4494,5.4494,5.4494,5.4494,7.6743,7.6886,7.6064,7.6141,7.653,7.6348,7.6299,7.6501,7.6065,7.5826,7.574,7.5245,7.4681,7.4245,7.3897,7.3537,7.3039,7.2797,7.2692,7.2713,7.2692,7.2692,7.2657,7.245,7.176,7.0739,6.9759,6.8897,6.8083,6.7359,6.6842,6.6462,6.5324,6.4634,6.4289,6.3876,6.3692,6.3805,6.3308,6.3119,6.3222,6.2726,6.235,6.2289,6.2302,6.2226,6.2059,6.1019,6.0803,6.131,6.085,6.0552,6.0516,6.047,6.0333,6.0156,6.0121,6.0015,5.9732,5.9203,5.8885,5.8794,5.8456,5.8114,5.7973,5.7978,5.7826,5.7469,5.7438,5.7298,5.7158,5.7087,5.6601,5.5539,5.5433,5.5359,5.5154,5.5083,5.4992,5.4946,5.4884,5.4853,5.4838,5.4838,5.4807,5.4823,5.4823,5.4823,5.4823,5.4764,5.4717,5.4702,5.4639,5.4542,5.4573,5.4589,5.4589,5.4557,5.4542,5.4494,5.4494,5.4494,5.4494,5.4494,5.4494,5.4494,5.4494,5.4494,5.4494,5.4494,5.4494,5.4494,5.4494,5.4494,5.4494,7.8739,7.8776,7.7748,7.75,7.7883,7.7287,7.7153,7.7233,7.6813,7.6619,7.6485,7.6099,7.5599,7.5047,7.4513,7.4168,7.3909,7.3142,7.288,7.2998,7.2797,7.2692,7.2692,7.2692,7.1898,7.0587,6.9932,6.9118,6.8118,6.7635,6.7152,6.6462,6.56,6.4826,6.4358,6.386,6.371,6.3895,6.3674,6.3607,6.3779,6.3563,6.3326,6.3263,6.3274,6.3406,6.3412,6.2289,6.1721,6.171,6.1111,6.0686,6.0651,6.0625,6.0594,6.0594,6.0594,6.0594,6.0558,6.0083,5.9866,5.976,5.9406,5.9128,5.8986,5.8956,5.8839,5.8481,5.8411,5.829,5.8043,5.7877,5.7389,5.6565,5.6134,5.5779,5.5429,5.5154,5.5063,5.5083,5.5037,5.5022,5.5007,5.5007,5.5007,5.5007,5.5007,5.5007,5.4992,5.4915,5.4904,5.4873,5.4792,5.4745,5.4698,5.4698,5.4698,5.4652,5.4605,5.4542,5.4494,5.4494,5.4494,5.4494,5.4494,5.4494,5.4494,5.4494,5.4494,5.4494,5.4494,5.4494,5.4494,5.4494,5.4494,8.22,8.1551,8.1202,8.0031,7.8906,7.8568,7.7992,7.7347,7.7243,7.7212,7.7212,7.7118,7.7087,7.6797,7.5564,7.5281,7.56,7.4006,7.3285,7.3452,7.3162,7.2825,7.2713,7.2692,7.1933,7.076,7.0415,6.9566,6.8325,6.8049,6.7413,6.6455,6.6037,6.5296,6.4403,6.383,6.3996,6.4234,6.4339,6.462,6.4944,6.4993,6.4758,6.425,6.4392,6.4539,6.4429,6.3667,6.2903,6.2128,6.1438,6.1011,6.0909,6.0752,6.0671,6.0671,6.064,6.0655,6.064,6.0615,6.0564,6.0544,6.0509,6.0609,6.0361,6.0255,6.0063,5.9486,5.9431,5.9198,5.8653,5.8456,5.826,5.7983,5.7193,5.6455,5.5773,5.5584,5.5649,5.5549,5.5268,5.5142,5.5292,5.5207,5.5172,5.5068,5.5083,5.5098,5.5068,5.5068,5.5022,5.4992,5.4961,5.49,5.4838,5.4838,5.4838,5.4807,5.4745,5.4667,5.4557,5.4526,5.4494,5.4494,5.4545,5.4529,5.4494,5.4494,5.4494,5.4494,5.4494,5.4494,5.4494,5.4494,5.4494,8.26,8.2237,8.0886,8.0051,7.9593,7.8924,7.8112,7.7362,7.7326,7.7326,7.7289,7.7326,7.7003,7.6488,7.6082,7.5722,7.5281,7.4679,7.4072,7.3799,7.3657,7.3148,7.2797,7.2692,7.2174,7.1229,7.0628,6.9897,6.9,6.8419,6.8038,6.7942,6.6569,6.6043,6.5962,6.5224,6.4828,6.4899,6.551,6.561,6.5453,6.5623,6.5661,6.553,6.5632,6.5709,6.5653,6.448,6.357,6.3061,6.2332,6.1925,6.1747,6.1259,6.0944,6.0929,6.0944,6.0959,6.0959,6.0944,6.0959,6.0959,6.0929,6.0914,6.0757,6.0757,6.059,6.0321,6.0275,6.0184,6.0007,5.9891,5.9613,5.9017,5.8164,5.7469,5.7158,5.7162,5.7132,5.7116,5.7,5.667,5.6304,5.6129,5.5989,5.5639,5.5484,5.5484,5.5579,5.5359,5.5364,5.5163,5.5083,5.5022,5.4992,5.4992,5.4976,5.4961,5.4915,5.4853,5.4714,5.4605,5.4542,5.4494,5.4576,5.4576,5.4545,5.4494,5.4494,5.4494,5.4494,5.4494,5.4494,5.4494,5.4494,8.3244,8.2769,8.1262,8.0416,8.0017,7.9028,7.8096,7.7436,7.7326,7.7326,7.7304,7.7402,7.715,7.6684,7.6403,7.62,7.591,7.5334,7.4883,7.4586,7.4068,7.3527,7.3067,7.2818,7.2188,7.1336,7.0886,7.0055,6.9179,6.8721,6.8604,6.8266,6.742,6.6975,6.6829,6.6407,6.6004,6.6019,6.638,6.6366,6.6255,6.6196,6.6264,6.6325,6.6385,6.6361,6.6156,6.5385,6.4417,6.3283,6.235,6.1876,6.1825,6.1408,6.1093,6.1093,6.1093,6.1093,6.1093,6.1093,6.1093,6.1093,6.1093,6.1049,6.0938,6.0923,6.0899,6.0803,6.0808,6.0808,6.0793,6.0747,6.0423,5.9957,5.9344,5.8662,5.8053,5.7811,5.7851,5.7805,5.779,5.7684,5.7122,5.7122,5.6912,5.6616,5.6601,5.6566,5.6551,5.6085,5.5779,5.5734,5.5509,5.5394,5.5414,5.5414,5.5468,5.5453,5.5238,5.5177,5.5019,5.483,5.473,5.4683,5.467,5.4639,5.4639,5.4557,5.4494,5.4494,5.4494,5.4494,5.451,5.4494,5.4494,8.4035,8.324,8.2088,8.1116,8.0243,7.9195,7.8299,7.746,7.7365,7.7365,7.7396,7.7539,7.7493,7.7304,7.6888,7.6804,7.7227,7.6161,7.5668,7.5245,7.4602,7.3885,7.3667,7.3176,7.2406,7.1494,7.1166,7.0295,6.9412,6.9241,6.9027,6.8714,6.8379,6.8029,6.7867,6.7498,6.7445,6.7521,6.7549,6.7574,6.7554,6.7391,6.7353,6.7186,6.6838,6.6646,6.6476,6.6112,6.5238,6.3127,6.2162,6.2002,6.1794,6.1497,6.1239,6.1182,6.1197,6.1182,6.1152,6.1167,6.1123,6.1138,6.1108,6.1093,6.1078,6.1064,6.1064,6.1034,6.1093,6.1049,6.1034,6.0908,6.0767,6.0555,6.0514,5.982,5.8744,5.8275,5.8199,5.8112,5.8132,5.8082,5.7961,5.7961,5.789,5.7263,5.7263,5.7263,5.7193,5.6917,5.6726,5.6691,5.634,5.5899,5.5884,5.5884,5.6009,5.6014,5.5749,5.5569,5.5443,5.5266,5.5061,5.4946,5.4823,5.4811,5.4811,5.4698,5.4605,5.4573,5.4636,5.4589,5.4526,5.4494,5.4494,8.4852,8.4057,8.3023,8.1763,8.0496,8.0021,7.9045,7.7703,7.7703,7.7651,7.7681,7.7747,7.771,7.7688,7.7495,7.7592,7.7636,7.7185,7.6804,7.5704,7.4974,7.4735,7.4621,7.4104,7.3221,7.2462,7.1737,7.1036,7.0305,6.9859,6.9618,7.0001,6.9398,6.917,6.9776,6.9477,6.9343,6.9279,6.9627,6.9557,6.9223,6.922,6.8958,6.8394,6.7675,6.723,6.6887,6.6407,6.5712,6.507,6.4461,6.3866,6.319,6.2622,6.2126,6.1645,6.1516,6.1494,6.1444,6.1343,6.127,6.1255,6.1182,6.1093,6.1093,6.1108,6.1108,6.1093,6.1093,6.1093,6.1093,6.1064,6.1004,6.0959,6.0944,6.0757,6.0316,6.0058,5.9895,5.9885,5.9834,5.9713,5.904,5.8919,5.8646,5.8046,5.786,5.7825,5.7805,5.777,5.7614,5.7544,5.7158,5.6721,5.6736,5.6736,5.6736,5.6721,5.643,5.6245,5.6084,5.5763,5.5597,5.5312,5.4976,5.4946,5.4946,5.4915,5.4838,5.4807,5.4811,5.473,5.4667,5.4589,5.456,8.4904,8.3812,8.3165,8.1956,8.0593,8.0259,7.9298,7.8005,7.7783,7.7783,7.7798,7.7842,7.7856,7.7783,7.7856,7.7856,7.7754,7.7621,7.7268,7.6579,7.5995,7.579,7.5878,7.5441,7.478,7.3904,7.3422,7.2763,7.2049,7.1456,7.1466,7.1701,7.0798,7.0681,7.122,7.1102,7.0859,7.0718,7.0887,7.0855,7.0531,7.0376,6.9955,6.9038,6.8238,6.764,6.7179,6.6846,6.6458,6.6214,6.5987,6.5313,6.4215,6.3544,6.2904,6.2292,6.2112,6.1897,6.1688,6.1487,6.1444,6.143,6.1357,6.1343,6.1299,6.1255,6.1197,6.1182,6.1138,6.1093,6.1093,6.1093,6.1093,6.1093,6.1093,6.1049,6.0923,6.0788,6.0671,6.0625,6.0508,6.03,6.0006,5.9794,5.9763,5.9283,5.9245,5.9194,5.9007,5.8901,5.8507,5.8281,5.793,5.7669,5.7649,5.7614,5.7509,5.7438,5.7248,5.7162,5.7081,5.6619,5.6208,5.5833,5.5473,5.5113,5.5113,5.5083,5.5142,5.4996,5.4969,5.4919,5.4888,5.4911,5.4799,8.474,8.3329,8.2935,8.1912,8.06,8.0186,7.9239,7.8019,7.7856,7.7937,7.7922,7.8,7.8,7.7914,7.8,7.7971,7.7879,7.7666,7.748,7.7261,7.6935,7.6724,7.6708,7.6571,7.632,7.5511,7.4981,7.4461,7.3764,7.3432,7.2803,7.3048,7.2385,7.1984,7.2065,7.2116,7.2094,7.2034,7.1852,7.1715,7.1582,7.127,7.0645,6.9571,6.8587,6.7952,6.7556,6.7332,6.7151,6.6889,6.6859,6.6062,6.5062,6.4252,6.3804,6.3048,6.2861,6.2515,6.2082,6.1788,6.1601,6.1637,6.1609,6.1559,6.1516,6.143,6.1372,6.1299,6.1255,6.1152,6.1138,6.1108,6.1093,6.1093,6.1093,6.1093,6.1078,6.0938,6.0803,6.0747,6.0762,6.0641,6.0544,6.0427,6.0554,6.0578,6.0505,6.0392,6.0133,5.9926,5.9456,5.9268,5.9003,5.8769,5.8753,5.8648,5.8542,5.8332,5.8156,5.8,5.793,5.7393,5.6875,5.64,5.6019,5.5834,5.5824,5.6038,5.5942,5.5432,5.5525,5.5908,5.5734,5.5336,5.5209,8.5038,8.4087,8.272,8.1554,8.0625,7.9914,7.9083,7.8318,7.8179,7.8207,7.8207,7.8235,7.8221,7.8207,7.8221,7.8235,7.815,7.8051,7.7871,7.7629,7.7383,7.7353,7.7353,7.7368,7.7393,7.7312,7.6445,7.526,7.4499,7.3623,7.3846,7.3647,7.3102,7.2876,7.3074,7.3162,7.3091,7.2963,7.2849,7.2815,7.2767,7.251,7.1932,7.0533,6.9261,6.8406,6.8067,6.7926,6.7704,6.721,6.714,6.6943,6.6472,6.5764,6.4997,6.4259,6.3651,6.3253,6.2805,6.2173,6.1879,6.1728,6.1708,6.1637,6.1623,6.1544,6.1516,6.1473,6.1372,6.127,6.127,6.1211,6.1108,6.1108,6.1108,6.1108,6.1093,6.1064,6.1019,6.0959,6.0959,6.0959,6.0869,6.0773,6.0778,6.0732,6.0625,6.0578,6.0477,6.041,6.0289,6.0207,6.0196,6.0019,5.9858,5.9752,5.9663,5.9417,5.9171,5.8823,5.8613,5.807,5.7599,5.7443,5.7232,5.7062,5.7101,5.7051,5.6965,5.6694,5.6858,5.7091,5.6726,5.6326,5.6079,8.4257,8.3106,8.2303,8.1263,8.0134,7.9651,7.9033,7.8364,7.829,7.829,7.829,7.829,7.829,7.829,7.829,7.829,7.829,7.829,7.8165,7.7943,7.7928,7.7928,7.7914,7.7914,7.8043,7.8025,7.7355,7.6766,7.639,7.5682,7.5275,7.5319,7.4709,7.4239,7.4076,7.4015,7.3757,7.3534,7.3385,7.3385,7.3348,7.3051,7.2233,7.1441,7.0041,6.9063,6.8701,6.823,6.7889,6.7506,6.7396,6.741,6.7259,6.6934,6.6276,6.551,6.4876,6.4175,6.3575,6.2807,6.2415,6.1968,6.1862,6.1834,6.1806,6.1728,6.1694,6.1587,6.153,6.1444,6.1444,6.1372,6.1314,6.1226,6.1211,6.1167,6.1123,6.1108,6.1108,6.1108,6.1064,6.1034,6.1019,6.0959,6.0929,6.0869,6.0778,6.0712,6.0696,6.0701,6.0671,6.0594,6.0497,6.0454,6.0313,6.0297,6.0266,6.0144,5.9988,5.9675,5.9468,5.9026,5.8979,5.9018,5.8773,5.8172,5.7774,5.7533,5.7704,5.786,5.7747,5.7615,5.7545,5.7374,5.7091,8.3306,8.1969,8.1634,8.0742,7.9591,7.9293,7.8885,7.8402,7.829,7.829,7.829,7.829,7.829,7.829,7.829,7.829,7.829,7.829,7.8276,7.8262,7.8248,7.8276,7.8276,7.829,7.8276,7.8262,7.8197,7.829,7.7845,7.714,7.7023,7.6601,7.6108,7.5392,7.4686,7.4463,7.4091,7.3645,7.3385,7.3385,7.32,7.2642,7.2196,7.2048,7.0574,6.9545,6.9282,6.8604,6.8081,6.78,6.7707,6.7707,6.7707,6.7707,6.7403,6.6851,6.6379,6.5363,6.4548,6.3771,6.3244,6.2495,6.2336,6.22,6.1987,6.1904,6.182,6.1686,6.163,6.1651,6.1637,6.1609,6.1501,6.1415,6.1357,6.1328,6.1255,6.1211,6.1167,6.1152,6.1123,6.1093,6.1078,6.1064,6.1019,6.1004,6.0929,6.0914,6.0884,6.0838,6.0793,6.0701,6.0655,6.0625,6.0547,6.0501,6.0454,6.0372,6.0321,6.0164,6.0137,6.0019,6.0023,5.9866,5.9448,5.8882,5.8433,5.8246,5.8632,5.8737,5.8386,5.8336,5.855,5.8359,5.7981,8.2823,8.1857,8.0408,7.9665,7.9405,7.8773,7.8439,7.8327,7.829,7.829,7.829,7.829,7.829,7.829,7.829,7.829,7.829,7.829,7.829,7.829,7.829,7.829,7.829,7.829,7.829,7.829,7.829,7.829,7.8141,7.751,7.7175,7.7027,7.6469,7.5503,7.5057,7.4983,7.4166,7.3608,7.346,7.3423,7.3274,7.2679,7.2345,7.1862,7.0772,6.9769,6.9632,6.8952,6.8296,6.807,6.8031,6.8031,6.8031,6.8031,6.8171,6.7826,6.718,6.6213,6.5717,6.5111,6.4306,6.3489,6.3239,6.2794,6.2504,6.2268,6.2212,6.195,6.1912,6.1915,6.1923,6.1694,6.1587,6.1559,6.153,6.1566,6.1509,6.1343,6.1299,6.127,6.127,6.1182,6.1123,6.1108,6.1093,6.1093,6.1078,6.1064,6.1034,6.0959,6.0929,6.0854,6.0773,6.0793,6.0762,6.0732,6.0655,6.0629,6.0563,6.0547,6.047,6.0407,6.0407,6.018,5.9867,5.9699,5.9476,5.9464,5.9717,5.958,5.9229,5.944,5.9826,5.9424,5.8811,8.0928,8.052,7.9799,7.9256,7.881,7.8439,7.829,7.829,7.829,7.829,7.829,7.829,7.829,7.829,7.829,7.829,7.829,7.829,7.829,7.829,7.829,7.829,7.829,7.829,7.829,7.829,7.829,7.829,7.8141,7.803,7.777,7.7696,7.7398,7.6915,7.5912,7.5986,7.554,7.4909,7.4351,7.3868,7.3423,7.3088,7.2865,7.2791,7.1218,7.0499,7.0054,6.9125,6.8531,6.8334,6.8334,6.8334,6.8334,6.8334,6.8396,6.8408,6.7975,6.7306,6.6635,6.6098,6.5291,6.4569,6.423,6.3934,6.3451,6.3309,6.3295,6.3368,6.2891,6.2646,6.2452,6.2107,6.1842,6.1764,6.1772,6.1644,6.1651,6.158,6.1458,6.143,6.1401,6.1314,6.1226,6.1182,6.1152,6.1093,6.1093,6.1078,6.1078,6.1064,6.1034,6.1004,6.0989,6.0974,6.0959,6.0929,6.0818,6.0793,6.0712,6.0666,6.0609,6.0563,6.0578,6.0547,6.034,6.0262,6.036,6.018,5.9979,6.0017,6.0072,6.0072,6.0072,6.0001,5.9529,7.9182,7.9219,7.9219,7.8847,7.829,7.829,7.829,7.829,7.829,7.829,7.829,7.829,7.829,7.829,7.829,7.829,7.829,7.829,7.829,7.829,7.829,7.829,7.829,7.829,7.829,7.829,7.829,7.829,7.829,7.8253,7.8216,7.829,7.8104,7.7696,7.725,7.6841,7.6395,7.5243,7.4723,7.4128,7.3534,7.3385,7.32,7.2679,7.1812,7.0834,7.0425,6.9311,6.8518,6.8481,6.8469,6.8457,6.8457,6.8457,6.8457,6.8493,6.8309,6.8074,6.7518,6.7021,6.6347,6.5623,6.4908,6.4494,6.4377,6.4438,6.4359,6.4215,6.3852,6.3526,6.3359,6.2788,6.2443,6.2193,6.2021,6.1842,6.17,6.1658,6.1615,6.1587,6.1544,6.1487,6.1386,6.1299,6.1211,6.1123,6.1093,6.1108,6.1108,6.1108,6.1078,6.1064,6.1064,6.1049,6.1049,6.1034,6.0953,6.0923,6.0893,6.0848,6.0808,6.0762,6.0762,6.0732,6.0671,6.0594,6.0501,6.0329,6.0186,6.0186,6.0186,6.0123,6.0072,6.0088,6.0072,7.8364,7.8402,7.8402,7.8364,7.829,7.829,7.829,7.829,7.829,7.829,7.829,7.829,7.829,7.829,7.829,7.829,7.829,7.829,7.829,7.829,7.829,7.829,7.829,7.829,7.829,7.829,7.829,7.829,7.829,7.829,7.829,7.829,7.829,7.7807,7.7435,7.725,7.6432,7.5392,7.4834,7.4277,7.3645,7.3348,7.3088,7.2345,7.1478,7.0574,6.9868,6.9013,6.8642,6.8642,6.8531,6.8531,6.8531,6.8531,6.8531,6.8531,6.8531,6.8346,6.8111,6.7938,6.7478,6.6479,6.5582,6.5031,6.5014,6.4648,6.4496,6.4627,6.4504,6.4359,6.407,6.3671,6.3187,6.2941,6.266,6.2271,6.2107,6.1834,6.1806,6.1742,6.17,6.1644,6.1587,6.1501,6.1372,6.1285,6.1167,6.1167,6.1138,6.1123,6.1108,6.1093,6.1093,6.1093,6.1093,6.1064,6.1049,6.1034,6.0983,6.1034,6.1019,6.0989,6.0914,6.0884,6.0823,6.0732,6.0655,6.0532,6.0423,6.0364,6.0317,6.025,6.0202,6.0186,6.0155,7.829,7.829,7.829,7.829,7.829,7.829,7.829,7.829,7.829,7.829,7.829,7.829,7.829,7.829,7.829,7.829,7.829,7.829,7.829,7.829,7.829,7.829,7.829,7.829,7.829,7.829,7.829,7.829,7.829,7.829,7.829,7.829,7.829,7.8179,7.7881,7.7658,7.6767,7.5763,7.5206,7.476,7.3608,7.3385,7.3237,7.2902,7.1465,7.1168,7.092,6.9348,6.9051,6.8976,6.8753,6.8605,6.8531,6.8531,6.8531,6.8531,6.8531,6.8531,6.8481,6.842,6.8061,6.7555,6.6755,6.6226,6.5963,6.5981,6.5931,6.5815,6.5388,6.5171,6.5011,6.4432,6.3889,6.3744,6.3382,6.2911,6.263,6.2415,6.2112,6.2143,6.1984,6.1812,6.1756,6.17,6.1573,6.1444,6.1328,6.1226,6.1211,6.1197,6.1182,6.1152,6.1152,6.1123,6.1123,6.1108,6.1093,6.1093,6.1093,6.1093,6.1093,6.1093,6.1034,6.1004,6.0953,6.0929,6.0854,6.0747,6.064,6.0532,6.0454,6.0407,6.0345,6.0266,6.0234,7.829,7.829,7.829,7.829,7.829,7.829,7.829,7.829,7.829,7.829,7.829,7.829,7.829,7.829,7.829,7.829,7.829,7.829,7.829,7.829,7.829,7.829,7.829,7.829,7.829,7.829,7.829,7.829,7.829,7.829,7.829,7.829,7.829,7.8253,7.8253,7.8216,7.7473,7.6209,7.5689,7.4983,7.3645,7.3385,7.3162,7.2939,7.1849,7.1391,7.1218,7.0165,6.9534,6.9422,6.9199,6.8791,6.8605,6.8531,6.8531,6.8531,6.8531,6.8531,6.8481,6.842,6.8296,6.7843,6.7604,6.7296,6.7233,6.7105,6.6779,6.6707,6.6279,6.5975,6.591,6.5265,6.4794,6.4613,6.3997,6.3563,6.3454,6.3281,6.2847,6.2543,6.2385,6.2299,6.1968,6.1898,6.1808,6.1645,6.1509,6.1401,6.1386,6.1357,6.1364,6.1285,6.1241,6.1197,6.1167,6.1138,6.1123,6.1093,6.1093,6.1093,6.1093,6.1108,6.1108,6.1064,6.1064,6.1093,6.1034,6.0914,6.0808,6.0701,6.0625,6.0547,6.0485,6.0423,6.0392,7.829,7.829,7.829,7.829,7.829,7.829,7.829,7.829,7.829,7.829,7.829,7.829,7.829,7.829,7.829,7.829,7.829,7.829,7.829,7.829,7.829,7.829,7.829,7.829,7.829,7.829,7.829,7.829,7.829,7.829,7.829,7.829,7.829,7.829,7.829,7.829,7.7435,7.6098,7.5912,7.4872,7.3906,7.3497,7.3088,7.2679,7.2196,7.1775,7.1552,7.0908,7.0264,6.9905,6.9682,6.9162,6.8568,6.8531,6.8531,6.8531,6.8531,6.8531,6.8518,6.8371,6.8246,6.8057,6.7834,6.7606,6.7456,6.7331,6.714,6.6997,6.6823,6.6787,6.6497,6.6112,6.5765,6.5374,6.4794,6.4359,6.4287,6.3975,6.349,6.3237,6.3128,6.2947,6.2426,6.2095,6.2007,6.188,6.1687,6.1609,6.1595,6.1537,6.148,6.1451,6.1357,6.1343,6.1299,6.1197,6.1152,6.1123,6.1138,6.1182,6.1167,6.1152,6.1138,6.1108,6.1093,6.1093,6.1093,6.1078,6.0974,6.0854,6.0732,6.0655,6.0609,6.0578,6.0547,7.829,7.829,7.829,7.829,7.829,7.829,7.829,7.829,7.829,7.829,7.829,7.829,7.829,7.829,7.829,7.829,7.829,7.829,7.829,7.829,7.829,7.829,7.829,7.829,7.829,7.829,7.829,7.829,7.829,7.829,7.829,7.829,7.829,7.829,7.829,7.8253,7.7658,7.6729,7.6098,7.528,7.4277,7.3683,7.3237,7.2939,7.2494,7.2271,7.2295,7.1614,7.0945,7.0499,7.0239,6.9459,6.8753,6.8605,6.8531,6.8531,6.8531,6.8531,6.8493,6.8432,6.8334,6.8145,6.7965,6.7741,6.7524,6.7456,6.7317,6.7182,6.714,6.7054,6.6809,6.6729,6.6497,6.6221,6.5772,6.5337,6.5048,6.4541,6.4106,6.4033,6.3925,6.3866,6.3526,6.3092,6.2886,6.2576,6.2384,6.1909,6.175,6.1637,6.1566,6.1566,6.1501,6.1501,6.1458,6.1372,6.1343,6.1343,6.1357,6.1386,6.1343,6.127,6.1211,6.1197,6.1138,6.1093,6.1123,6.1123,6.1093,6.1004,6.0884,6.0808,6.0742,6.0696,6.0666,7.829,7.829,7.829,7.829,7.829,7.829,7.829,7.829,7.829,7.829,7.829,7.829,7.829,7.829,7.829,7.829,7.829,7.829,7.829,7.829,7.829,7.829,7.829,7.829,7.829,7.829,7.829,7.829,7.829,7.829,7.829,7.829,7.829,7.829,7.829,7.8216,7.7881,7.699,7.6246,7.5392,7.4537,7.3906,7.3423,7.3237,7.3014,7.2828,7.2939,7.2444,7.1576,7.1242,7.0735,6.9955,6.9274,6.8902,6.8791,6.8642,6.8531,6.8531,6.8493,6.8493,6.8358,6.8108,6.7993,6.7847,6.7633,6.7565,6.747,6.7387,6.7294,6.7196,6.7097,6.7105,6.6975,6.6714,6.6526,6.6054,6.5931,6.5423,6.5076,6.5004,6.4808,6.4736,6.4555,6.4251,6.3933,6.3543,6.3117,6.2618,6.2107,6.1973,6.1902,6.1816,6.173,6.1716,6.1651,6.1595,6.1544,6.1573,6.1559,6.1544,6.1501,6.1415,6.1343,6.1285,6.1314,6.1299,6.1197,6.1152,6.1138,6.1108,6.1049,6.0989,6.0908,6.0863,6.0818,7.829,7.829,7.829,7.829,7.829,7.829,7.829,7.829,7.829,7.829,7.829,7.829,7.829,7.829,7.829,7.829,7.829,7.829,7.829,7.829,7.829,7.829,7.829,7.829,7.829,7.829,7.829,7.829,7.829,7.829,7.829,7.829,7.829,7.829,7.829,7.8216,7.7919,7.7287,7.6544,7.5838,7.5169,7.4091,7.3868,7.3683,7.3497,7.3385,7.3385,7.3162,7.2568,7.2233,7.1936,7.0995,7.0239,6.9756,6.9236,6.8828,6.8642,6.8642,6.8531,6.8531,6.8383,6.8159,6.812,6.7952,6.7781,6.766,6.7593,6.7524,6.7483,6.735,6.7252,6.7224,6.7196,6.7075,6.7004,6.6866,6.6823,6.6562,6.6236,6.5989,6.5757,6.5525,6.5134,6.4867,6.4895,6.4504,6.4078,6.3557,6.3058,6.2674,6.2532,6.2243,6.2107,6.1943,6.1879,6.18,6.175,6.1728,6.1686,6.1708,6.1651,6.1609,6.1537,6.1523,6.153,6.1501,6.1372,6.127,6.1197,6.1182,6.1197,6.1093,6.0998,6.1034,6.1004,7.829,7.829,7.829,7.829,7.829,7.829,7.829,7.829,7.829,7.829,7.829,7.829,7.829,7.829,7.829,7.829,7.829,7.829,7.829,7.829,7.829,7.829,7.829,7.829,7.829,7.829,7.829,7.829,7.829,7.829,7.829,7.829,7.829,7.829,7.829,7.829,7.8104,7.7733,7.7027,7.6507,7.5875,7.4909,7.476,7.4649,7.3906,7.3831,7.398,7.3608,7.2828,7.1738,7.2011,7.1366,6.9905,7.0165,7.019,6.9484,6.9298,6.9162,6.8642,6.8531,6.8457,6.8259,6.817,6.7928,6.7794,6.77,6.7674,6.7633,6.7606,6.7524,6.7456,6.7378,6.7336,6.728,6.721,6.7154,6.7126,6.701,6.6721,6.6656,6.6423,6.6279,6.5873,6.5917,6.5895,6.5489,6.5062,6.4605,6.4048,6.3649,6.3237,6.2933,6.2774,6.2632,6.2176,6.2004,6.1954,6.1882,6.1862,6.182,6.1778,6.1736,6.1708,6.168,6.1644,6.1601,6.1516,6.143,6.1343,6.1357,6.1372,6.1241,6.1138,6.1123,6.1108,7.829,7.829,7.829,7.829,7.829,7.829,7.8141,7.7919,7.8141,7.829,7.829,7.829,7.829,7.829,7.829,7.829,7.829,7.829,7.829,7.829,7.829,7.829,7.829,7.829,7.829,7.829,7.829,7.829,7.829,7.829,7.829,7.829,7.829,7.829,7.829,7.829,7.829,7.7993,7.7584,7.7213,7.6581,7.5801,7.5652,7.5503,7.4463,7.4351,7.4426,7.3831,7.2828,7.1998,7.2568,7.2085,7.0796,7.0908,7.0784,7.019,7.0152,6.9744,6.9236,6.9051,6.8754,6.8432,6.8234,6.8055,6.7836,6.7741,6.7714,6.7674,6.7687,6.766,6.7606,6.7552,6.7511,6.7456,6.7364,6.7308,6.7266,6.7238,6.7174,6.7146,6.7053,6.7004,6.691,6.6976,6.6889,6.6482,6.6199,6.5974,6.5242,6.4547,6.4098,6.3708,6.3563,6.3426,6.2911,6.2426,6.2362,6.224,6.1937,6.1932,6.1904,6.189,6.1862,6.1806,6.1714,6.1686,6.1644,6.1587,6.1516,6.1544,6.1566,6.143,6.1285,6.1167,6.1138,7.829,7.829,7.829,7.829,7.829,7.829,7.7881,7.7213,7.7844,7.8141,7.803,7.8253,7.8253,7.8104,7.8179,7.829,7.829,7.829,7.829,7.829,7.829,7.829,7.829,7.829,7.829,7.829,7.829,7.829,7.829,7.829,7.829,7.829,7.829,7.829,7.829,7.829,7.829,7.8179,7.777,7.7398,7.7101,7.6469,7.5912,7.5949,7.5318,7.4723,7.4537,7.4054,7.3423,7.3348,7.3237,7.2828,7.2271,7.1701,7.1316,7.1019,7.1019,7.0536,6.9979,6.9645,6.9175,6.8766,6.8333,6.817,6.8017,6.7834,6.7781,6.7714,6.77,6.77,6.7647,6.7633,6.7606,6.7579,6.7538,6.7511,6.7483,6.7405,6.735,6.7322,6.7266,6.7219,6.7111,6.7069,6.7069,6.7016,6.6952,6.683,6.6423,6.5553,6.501,6.4583,6.4446,6.4215,6.3635,6.32,6.2947,6.268,6.239,6.2245,6.2385,6.2254,6.2028,6.1909,6.1826,6.1812,6.1784,6.1728,6.17,6.1672,6.1658,6.1615,6.1487,6.1364,6.1226,7.829,7.829,7.829,7.829,7.829,7.829,7.7844,7.7138,7.7287,7.699,7.6729,7.7584,7.7956,7.7547,7.803,7.8216,7.829,7.829,7.829,7.829,7.829,7.829,7.829,7.829,7.829,7.829,7.829,7.829,7.829,7.829,7.829,7.829,7.829,7.829,7.829,7.829,7.829,7.8253,7.8104,7.7881,7.777,7.7361,7.6952,7.6915,7.6507,7.5578,7.5206,7.4723,7.3608,7.2828,7.32,7.32,7.3088,7.2852,7.2481,7.2035,7.1862,7.1403,7.0759,7.0239,6.9756,6.9311,6.889,6.8432,6.8158,6.7978,6.7847,6.7767,6.7714,6.7727,6.7727,6.7727,6.7727,6.7714,6.77,6.7674,6.766,6.7606,6.7552,6.7497,6.7456,6.74,6.7294,6.7252,6.721,6.716,6.716,6.7081,6.7067,6.6501,6.5967,6.5546,6.5366,6.5026,6.441,6.4011,6.378,6.3526,6.3237,6.3092,6.2925,6.2585,6.2281,6.2064,6.195,6.1923,6.1909,6.1923,6.1895,6.1826,6.1784,6.1742,6.1686,6.1559,6.143,7.829,7.829,7.829,7.829,7.8253,7.7919,7.7287,7.6618,7.6507,7.5838,7.5095,7.6358,7.7101,7.7027,7.7584,7.8104,7.8216,7.829,7.829,7.829,7.829,7.829,7.829,7.829,7.829,7.829,7.829,7.829,7.829,7.829,7.829,7.829,7.829,7.829,7.829,7.829,7.829,7.829,7.829,7.829,7.829,7.7919,7.777,7.777,7.7213,7.6321,7.5578,7.502,7.398,7.3125,7.3237,7.3348,7.3348,7.3274,7.3125,7.2865,7.2642,7.2345,7.1589,7.1032,7.0536,7.009,6.9855,6.9594,6.8926,6.8723,6.8364,6.8249,6.7989,6.7939,6.7939,6.7952,6.7952,6.7939,6.7939,6.7926,6.7926,6.7899,6.7873,6.781,6.7784,6.777,6.7731,6.7717,6.7664,6.7556,6.7501,6.735,6.7322,6.7238,6.6741,6.6417,6.6127,6.5728,6.512,6.483,6.4685,6.4396,6.4106,6.3852,6.3635,6.3019,6.2535,6.2426,6.2245,6.1978,6.2028,6.2028,6.2028,6.1937,6.1932,6.1904,6.1812,6.1792,6.1716,7.8253,7.8179,7.8141,7.8067,7.7881,7.725,7.6469,7.5726,7.5652,7.4834,7.3831,7.5095,7.6098,7.6692,7.7138,7.7696,7.8104,7.8253,7.829,7.829,7.829,7.829,7.829,7.829,7.829,7.829,7.829,7.829,7.829,7.829,7.829,7.829,7.829,7.829,7.829,7.829,7.829,7.829,7.829,7.829,7.829,7.829,7.829,7.7993,7.751,7.6692,7.5838,7.502,7.4203,7.372,7.3348,7.3385,7.3385,7.3385,7.3385,7.3237,7.32,7.2865,7.2419,7.2048,7.1589,7.1242,7.1056,7.0597,6.9841,6.9494,6.9134,6.8837,6.854,6.8156,6.8156,6.8156,6.8156,6.8144,6.8144,6.8107,6.8107,6.8107,6.807,6.807,6.8057,6.8057,6.8057,6.8057,6.8006,6.7939,6.7834,6.7687,6.7552,6.7414,6.7115,6.6836,6.6634,6.6214,6.5801,6.5627,6.5482,6.5265,6.4975,6.4685,6.4251,6.3454,6.2947,6.2911,6.2693,6.2245,6.2028,6.2028,6.2028,6.2136,6.2,6.1973,6.1923,6.1904,6.1984,7.7919,7.7324,7.7324,7.6952,7.6321,7.6098,7.5578,7.4909,7.4834,7.4277,7.3831,7.4314,7.528,7.6098,7.6841,7.751,7.8216,7.829,7.829,7.829,7.829,7.829,7.829,7.829,7.829,7.829,7.829,7.829,7.829,7.829,7.829,7.829,7.829,7.829,7.829,7.829,7.829,7.829,7.829,7.829,7.829,7.829,7.829,7.7993,7.751,7.6692,7.5838,7.502,7.4203,7.3645,7.3385,7.3385,7.3385,7.3385,7.3385,7.3385,7.3385,7.3274,7.2939,7.2605,7.2109,7.1998,7.1701,7.1118,7.0709,7.0597,7.0287,7.0002,6.9531,6.8627,6.8453,6.8453,6.8453,6.8343,6.8306,6.8232,6.8158,6.8158,6.8158,6.8121,6.8158,6.8158,6.8158,6.8158,6.8145,6.8081,6.8068,6.7913,6.7727,6.7579,6.7428,6.7275,6.7069,6.6918,6.6598,6.6424,6.6279,6.6062,6.5808,6.541,6.4758,6.3708,6.3345,6.3599,6.2983,6.2354,6.2173,6.2512,6.2354,6.2426,6.2136,6.2014,6.2014,6.2037,6.214]}]]